Darstellungsparameter: Aktuell verwendete Einstellungen:
Skalierung der Graphiken ... ?
xyx+y,   Skalierungsfaktor:      Skalierung: Modus: x, Faktor: 1
Darstellungszeitraum ... ?
Vom - - bis: - -   Zeitraum: 02.12.2011 - 01.06.2012
Min/Max/Avg-Anzeige ... ?
Zeige MMA aktuell
Zeige MMA Monat
Zeige MMA alles
Zeige --A aktuell
Zeige --A Monat
Zeige --A alles
Keine MMA-Anzeige
MMA:
Keine MMA-Graphiken
MMA-Basis: 02.12.2011 - 01.06.2012
Quicknavigation für Darstellung... ?
Tage:      1T, 2T, 3T, 5T -1T -2T -3T -5T +1T +2T +3T +5T
Wochen: 1W, 2W, 3W -1W -2W -3W +1W +2W +3W
Monate: 1M, 3M, 6M -1M -3M -6M +1M +3M +6M
Jahre:    1J, 3J, 5J, 10J -1J -3J -5J -10J +1J +3J +5J +10J
Nutze für die Darstellung ... ?
Originaldaten oder Mittelwerte auf ...
Stundenbasis Tagesbasis Wochenbasis
Monatsbasis Jahresbasis      Datenbasis: Original-Daten
Darstellen als:
Statistik (Auto) Statistik J:M      Darstellung:
Zur Graphik,    zurück zur Übersicht aller Sensoren.
 
Tabellarische Datenbersicht: ?
 
Sensor: Nr:Datum:Temp:Abs-Feuchte:Windchill:Wind:
Aussen-T/F 1 02-12-2011 00:00:01 10.6 C 8.3 g/m*3 10.6 C 0 km/h
2 02-12-2011 00:12:01 11.2 C 8.11 g/m*3 11.2 C 0 km/h
3 02-12-2011 00:24:01 10.9 C 7.76 g/m*3 10.9 C 0 km/h
4 02-12-2011 00:36:01 10.5 C 7.66 g/m*3 10.5 C 0 km/h
5 02-12-2011 00:48:01 10.2 C 7.61 g/m*3 10.2 C 0 km/h
6 02-12-2011 01:00:01 10 C 7.61 g/m*3 10 C 0 km/h
7 02-12-2011 01:12:01 10 C 7.71 g/m*3 10 C 0 km/h
8 02-12-2011 01:24:02 9.8 C 7.79 g/m*3 9.8 C 0 km/h
9 02-12-2011 01:36:01 9.5 C 7.65 g/m*3 9.5 C 0 km/h
10 02-12-2011 01:48:03 9.5 C 7.74 g/m*3 9.5 C 0 km/h
11 02-12-2011 02:00:03 9.5 C 7.74 g/m*3 9.5 C 0 km/h
12 02-12-2011 02:12:02 8.8 C 7.4 g/m*3 8.8 C 0 km/h
13 02-12-2011 02:24:02 8.6 C 7.39 g/m*3 8.6 C 0 km/h
14 02-12-2011 02:36:02 9.5 C 7.65 g/m*3 9.5 C 0 km/h
15 02-12-2011 02:49:04 9.8 C 7.42 g/m*3 9.8 C 0 km/h
16 02-12-2011 03:01:04 9.6 C 7.15 g/m*3 9.6 C 0 km/h
17 02-12-2011 03:13:03 9.2 C 6.88 g/m*3 9.2 C 0 km/h
18 02-12-2011 03:25:03 10 C 6.58 g/m*3 10 C 0 km/h
19 02-12-2011 03:37:03 9.7 C 6.45 g/m*3 9.7 C 0 km/h
20 02-12-2011 03:49:03 8.8 C 6.35 g/m*3 8.8 C 0 km/h
21 02-12-2011 04:01:02 9.2 C 6.34 g/m*3 9.2 C 0 km/h
22 02-12-2011 04:13:02 11.2 C 6.69 g/m*3 11.2 C 0 km/h
23 02-12-2011 04:25:02 10.3 C 6.03 g/m*3 10.3 C 0 km/h
24 02-12-2011 04:37:02 10.4 C 6.17 g/m*3 10.4 C 0 km/h
25 02-12-2011 04:49:02 10.1 C 6.05 g/m*3 10.1 C 0 km/h
Sensor: Nr:Datum:Temp:Abs-Feuchte:Windchill:Wind:
Aussen-T/F 26 02-12-2011 05:01:02 10 C 6.01 g/m*3 10 C 0 km/h
27 02-12-2011 05:13:02 10.1 C 6.05 g/m*3 10.1 C 0 km/h
28 02-12-2011 05:25:02 9.3 C 6.2 g/m*3 9.3 C 0 km/h
29 02-12-2011 05:37:02 10.4 C 6.46 g/m*3 10.4 C 0 km/h
30 02-12-2011 05:49:02 11.9 C 6.46 g/m*3 11.9 C 0 km/h
31 02-12-2011 06:01:02 12.4 C 6.23 g/m*3 12.4 C 0 km/h
32 02-12-2011 06:13:02 12.3 C 6.19 g/m*3 12.3 C 0 km/h
33 02-12-2011 06:25:01 12.5 C 6.27 g/m*3 12.5 C 0 km/h
34 02-12-2011 06:37:02 12.1 C 6.22 g/m*3 12.1 C 0 km/h
35 02-12-2011 06:49:02 12.2 C 6.26 g/m*3 12.2 C 0 km/h
36 02-12-2011 07:01:02 12 C 6.5 g/m*3 12 C 0 km/h
37 02-12-2011 07:13:02 11.9 C 6.67 g/m*3 11.9 C 0 km/h
38 02-12-2011 07:25:01 11.8 C 6.74 g/m*3 11.8 C 0 km/h
39 02-12-2011 07:37:02 11.7 C 6.69 g/m*3 11.7 C 0 km/h
40 02-12-2011 07:49:02 11.7 C 6.69 g/m*3 11.7 C 0 km/h
41 02-12-2011 08:01:02 11.7 C 6.59 g/m*3 11.7 C 0 km/h
42 02-12-2011 08:13:02 11.7 C 6.59 g/m*3 11.7 C 0 km/h
43 02-12-2011 08:25:01 11.8 C 6.63 g/m*3 11.8 C 0 km/h
44 02-12-2011 08:37:02 11.7 C 6.59 g/m*3 11.7 C 0 km/h
45 02-12-2011 08:49:01 11.8 C 6.63 g/m*3 11.8 C 0 km/h
46 02-12-2011 09:01:02 11.8 C 6.63 g/m*3 11.8 C 0 km/h
47 02-12-2011 09:13:02 11.9 C 6.67 g/m*3 11.9 C 0 km/h
48 02-12-2011 09:25:02 11.9 C 6.57 g/m*3 11.9 C 0 km/h
49 02-12-2011 09:37:01 12 C 6.5 g/m*3 12 C 0 km/h
50 02-12-2011 09:49:02 12 C 6.39 g/m*3 12 C 0 km/h
Sensor: Nr:Datum:Temp:Abs-Feuchte:Windchill:Wind:
Aussen-T/F 51 02-12-2011 10:01:01 12 C 6.39 g/m*3 12 C 0 km/h
52 02-12-2011 10:13:01 12 C 6.5 g/m*3 12 C 0 km/h
53 02-12-2011 10:25:02 12 C 6.5 g/m*3 12 C 0 km/h
54 02-12-2011 10:37:01 9.8 C 5.85 g/m*3 9.8 C 0 km/h
55 02-12-2011 10:49:02 8 C 6.04 g/m*3 8 C 0 km/h
56 02-12-2011 11:01:02 7.2 C 6.28 g/m*3 7.2 C 0 km/h
57 02-12-2011 11:13:02 7 C 6.35 g/m*3 7 C 0 km/h
58 02-12-2011 11:25:02 7 C 6.28 g/m*3 7 C 0 km/h
59 02-12-2011 11:37:02 6.9 C 6.24 g/m*3 6.9 C 0 km/h
60 02-12-2011 11:49:01 7 C 6.12 g/m*3 7 C 0 km/h
61 02-12-2011 12:01:02 7.3 C 6.08 g/m*3 7.3 C 0 km/h
62 02-12-2011 12:13:02 7.5 C 6.08 g/m*3 7.5 C 0 km/h
63 02-12-2011 12:25:01 7.5 C 6 g/m*3 7.5 C 0 km/h
64 02-12-2011 12:37:01 7.3 C 5.93 g/m*3 7.3 C 0 km/h
65 02-12-2011 12:49:01 7.3 C 6 g/m*3 7.3 C 0 km/h
66 02-12-2011 13:01:02 7.5 C 5.92 g/m*3 7.5 C 0 km/h
67 02-12-2011 13:13:02 7.7 C 5.92 g/m*3 7.7 C 0 km/h
68 02-12-2011 13:25:01 7.8 C 5.79 g/m*3 7.8 C 0 km/h
69 02-12-2011 13:37:01 7.6 C 5.72 g/m*3 7.6 C 0 km/h
70 02-12-2011 13:49:01 7.6 C 5.96 g/m*3 7.6 C 0 km/h
71 02-12-2011 14:01:02 7.5 C 5.76 g/m*3 7.5 C 0 km/h
72 02-12-2011 14:13:02 7.5 C 5.6 g/m*3 7.5 C 0 km/h
73 02-12-2011 14:25:02 7.3 C 5.61 g/m*3 7.3 C 0 km/h
74 02-12-2011 14:37:01 6.7 C 5.47 g/m*3 6.7 C 0 km/h
75 02-12-2011 14:49:02 6.4 C 5.51 g/m*3 6.4 C 0 km/h
Sensor: Nr:Datum:Temp:Abs-Feuchte:Windchill:Wind:
Aussen-T/F 76 02-12-2011 15:01:01 6.4 C 5.66 g/m*3 6.4 C 0 km/h
77 02-12-2011 15:13:01 6.2 C 5.74 g/m*3 6.2 C 0 km/h
78 02-12-2011 15:25:02 5.9 C 5.84 g/m*3 5.9 C 0 km/h
79 02-12-2011 15:37:01 6 C 5.81 g/m*3 6 C 0 km/h
80 02-12-2011 15:49:02 5.7 C 5.84 g/m*3 5.7 C 0 km/h
81 02-12-2011 16:01:02 5.5 C 5.83 g/m*3 5.5 C 0 km/h
82 02-12-2011 16:13:02 4.9 C 5.67 g/m*3 4.9 C 0 km/h
83 02-12-2011 16:25:02 4.7 C 5.66 g/m*3 4.7 C 0 km/h
84 02-12-2011 16:37:03 4.3 C 5.58 g/m*3 4.3 C 0 km/h
85 02-12-2011 16:49:02 4.5 C 5.72 g/m*3 4.5 C 0 km/h
86 02-12-2011 17:01:02 4.2 C 5.61 g/m*3 4.2 C 0 km/h
87 02-12-2011 17:13:02 3.6 C 5.45 g/m*3 3.6 C 0 km/h
88 02-12-2011 17:25:02 3 C 5.23 g/m*3 3 C 0 km/h
89 02-12-2011 17:37:02 2.8 C 5.22 g/m*3 2.8 C 0 km/h
90 02-12-2011 17:49:02 2.6 C 5.15 g/m*3 2.6 C 0 km/h
91 02-12-2011 18:01:02 2.1 C 4.98 g/m*3 2.1 C 0 km/h
92 02-12-2011 18:13:02 2.5 C 5.17 g/m*3 2.5 C 0 km/h
93 02-12-2011 18:25:02 2.1 C 5.04 g/m*3 2.1 C 0 km/h
94 02-12-2011 18:37:02 2.1 C 5.04 g/m*3 2.1 C 0 km/h
95 02-12-2011 18:49:02 2 C 5.06 g/m*3 2 C 0 km/h
96 02-12-2011 19:01:02 1.8 C 4.99 g/m*3 1.8 C 0 km/h
97 02-12-2011 19:13:02 1.7 C 4.95 g/m*3 1.7 C 0 km/h
98 02-12-2011 19:25:02 1.8 C 5.04 g/m*3 1.8 C 0 km/h
99 02-12-2011 19:37:02 1.5 C 4.94 g/m*3 1.5 C 0 km/h
100 02-12-2011 19:49:02 1.2 C 4.84 g/m*3 1.2 C 0 km/h
Sensor: Nr:Datum:Temp:Abs-Feuchte:Windchill:Wind:
Aussen-T/F 101 02-12-2011 20:01:02 0.6 C 4.65 g/m*3 0.6 C 0 km/h
102 02-12-2011 20:13:02 0.9 C 4.74 g/m*3 0.9 C 0 km/h
103 02-12-2011 20:25:03 0.6 C 4.65 g/m*3 0.6 C 0 km/h
104 02-12-2011 20:37:02 0.4 C 4.58 g/m*3 0.4 C 0 km/h
105 02-12-2011 20:49:02 1.8 C 5.04 g/m*3 1.8 C 0 km/h
106 02-12-2011 21:01:02 1.7 C 5.01 g/m*3 1.7 C 0 km/h
107 02-12-2011 21:13:02 1.8 C 5.1 g/m*3 1.8 C 0 km/h
108 02-12-2011 21:25:02 1.8 C 5.1 g/m*3 1.8 C 0 km/h
109 02-12-2011 21:37:02 1.8 C 5.1 g/m*3 1.8 C 0 km/h
110 02-12-2011 21:49:02 1.8 C 5.1 g/m*3 1.8 C 0 km/h
111 02-12-2011 22:01:01 2.3 C 5.22 g/m*3 2.3 C 0 km/h
112 02-12-2011 22:13:01 2 C 5.11 g/m*3 2 C 0 km/h
113 02-12-2011 22:25:02 2 C 5.11 g/m*3 2 C 0 km/h
114 02-12-2011 22:37:02 2 C 5.11 g/m*3 2 C 0 km/h
115 02-12-2011 22:49:01 1.7 C 5.01 g/m*3 1.7 C 0 km/h
116 02-12-2011 23:01:02 1.6 C 4.97 g/m*3 1.6 C 0 km/h
117 02-12-2011 23:13:02 1.6 C 4.97 g/m*3 1.6 C 0 km/h
118 02-12-2011 23:25:01 1.5 C 4.94 g/m*3 1.5 C 0 km/h
119 02-12-2011 23:37:02 1 C 4.78 g/m*3 1 C 0 km/h
120 02-12-2011 23:49:02 0.3 C 4.55 g/m*3 0.3 C 0 km/h
121 03-12-2011 00:01:02 0.2 C 4.52 g/m*3 0.2 C 0 km/h
122 03-12-2011 00:13:02 0.7 C 4.68 g/m*3 0.7 C 0 km/h
123 03-12-2011 00:25:02 0.5 C 4.61 g/m*3 0.5 C 0 km/h
124 03-12-2011 00:37:02 0.1 C 4.49 g/m*3 0.1 C 0 km/h
125 03-12-2011 00:49:02 -0.3 C 4.37 g/m*3 -0.3 C 0 km/h
Sensor: Nr:Datum:Temp:Abs-Feuchte:Windchill:Wind:
Aussen-T/F 126 03-12-2011 01:01:02 -0.4 C 4.34 g/m*3 -0.4 C 0 km/h
127 03-12-2011 01:13:03 -0.3 C 4.37 g/m*3 -0.3 C 0 km/h
128 03-12-2011 01:25:02 -0.2 C 4.4 g/m*3 -0.2 C 0 km/h
129 03-12-2011 01:37:02 -0.4 C 4.34 g/m*3 -0.4 C 0 km/h
130 03-12-2011 01:49:02 0 C 4.46 g/m*3 0 C 0 km/h
131 03-12-2011 02:01:02 0.1 C 4.54 g/m*3 0.1 C 0 km/h
132 03-12-2011 02:13:02 0.5 C 4.66 g/m*3 0.5 C 0 km/h
133 03-12-2011 02:25:03 0.7 C 4.73 g/m*3 0.7 C 0 km/h
134 03-12-2011 02:37:02 1.1 C 4.86 g/m*3 1.1 C 0 km/h
135 03-12-2011 02:50:04 2.2 C 5.24 g/m*3 2.2 C 0 km/h
136 03-12-2011 03:02:04 2.4 C 5.31 g/m*3 2.4 C 0 km/h
137 03-12-2011 03:14:03 2 C 5.17 g/m*3 2 C 0 km/h
138 03-12-2011 03:26:03 1.8 C 5.1 g/m*3 1.8 C 0 km/h
139 03-12-2011 03:38:01 2 C 5.17 g/m*3 2 C 0 km/h
140 03-12-2011 03:50:01 2.2 C 5.24 g/m*3 2.2 C 0 km/h
141 03-12-2011 04:02:02 2.2 C 5.24 g/m*3 2.2 C 0 km/h
142 03-12-2011 04:14:02 2.6 C 5.38 g/m*3 2.6 C 0 km/h
143 03-12-2011 04:26:02 3.2 C 5.54 g/m*3 3.2 C 0 km/h
144 03-12-2011 04:38:01 3.2 C 5.48 g/m*3 3.2 C 0 km/h
145 03-12-2011 04:50:02 3.3 C 5.4 g/m*3 3.3 C 0 km/h
146 03-12-2011 05:02:01 3.9 C 5.56 g/m*3 3.9 C 0 km/h
147 03-12-2011 05:14:01 4 C 5.4 g/m*3 4 C 0 km/h
148 03-12-2011 05:26:02 4.2 C 5.35 g/m*3 4.2 C 0 km/h
149 03-12-2011 05:38:01 4.3 C 5.25 g/m*3 4.3 C 0 km/h
150 03-12-2011 05:50:02 4.3 C 5.25 g/m*3 4.3 C 0 km/h
Sensor: Nr:Datum:Temp:Abs-Feuchte:Windchill:Wind:
Aussen-T/F 151 03-12-2011 06:02:01 4.1 C 5.25 g/m*3 4.1 C 0 km/h
152 03-12-2011 06:14:01 4.4 C 5.42 g/m*3 4.4 C 0 km/h
153 03-12-2011 06:26:01 5.3 C 5.48 g/m*3 5.3 C 0 km/h
154 03-12-2011 06:38:02 5.1 C 5.27 g/m*3 5.1 C 0 km/h
155 03-12-2011 06:50:02 5.3 C 5.34 g/m*3 5.3 C 0 km/h
156 03-12-2011 07:02:02 5.6 C 5.3 g/m*3 5.6 C 0 km/h
157 03-12-2011 07:14:02 5.8 C 5.3 g/m*3 5.8 C 0 km/h
158 03-12-2011 07:26:01 5.7 C 5.27 g/m*3 5.7 C 0 km/h
159 03-12-2011 07:38:02 5.8 C 5.23 g/m*3 5.8 C 0 km/h
160 03-12-2011 07:50:02 6 C 5.08 g/m*3 6 C 0 km/h
161 03-12-2011 08:02:02 6.1 C 5.04 g/m*3 6.1 C 0 km/h
162 03-12-2011 08:14:02 6.3 C 4.96 g/m*3 6.3 C 0 km/h
163 03-12-2011 08:26:01 6.5 C 4.95 g/m*3 6.5 C 0 km/h
164 03-12-2011 08:38:02 6.6 C 4.91 g/m*3 6.6 C 0 km/h
165 03-12-2011 08:50:02 6.7 C 4.86 g/m*3 6.7 C 0 km/h
166 03-12-2011 09:02:02 6.9 C 4.85 g/m*3 6.9 C 0 km/h
167 03-12-2011 09:14:02 7 C 4.8 g/m*3 7 C 0 km/h
168 03-12-2011 09:26:02 7.1 C 4.84 g/m*3 7.1 C 0 km/h
169 03-12-2011 09:38:02 7.2 C 4.87 g/m*3 7.2 C 0 km/h
170 03-12-2011 09:50:02 7.2 C 4.87 g/m*3 7.2 C 0 km/h
171 03-12-2011 10:02:01 7.3 C 4.98 g/m*3 7.3 C 0 km/h
172 03-12-2011 10:14:01 7.5 C 5.04 g/m*3 7.5 C 0 km/h
173 03-12-2011 10:26:02 7.5 C 5.04 g/m*3 7.5 C 0 km/h
174 03-12-2011 10:38:01 7.5 C 5.12 g/m*3 7.5 C 0 km/h
175 03-12-2011 10:50:02 7.5 C 5.2 g/m*3 7.5 C 0 km/h
Sensor: Nr:Datum:Temp:Abs-Feuchte:Windchill:Wind:
Aussen-T/F 176 03-12-2011 11:02:02 7.5 C 5.2 g/m*3 7.5 C 0 km/h
177 03-12-2011 11:14:02 7.6 C 5.24 g/m*3 7.6 C 0 km/h
178 03-12-2011 11:26:02 7.7 C 5.27 g/m*3 7.7 C 0 km/h
179 03-12-2011 11:38:03 7.7 C 5.27 g/m*3 7.7 C 0 km/h
180 03-12-2011 11:50:02 7.8 C 5.3 g/m*3 7.8 C 0 km/h
181 03-12-2011 12:02:02 7.9 C 5.34 g/m*3 7.9 C 0 km/h
182 03-12-2011 12:14:02 7.9 C 5.34 g/m*3 7.9 C 0 km/h
183 03-12-2011 12:26:01 7.9 C 5.42 g/m*3 7.9 C 0 km/h
184 03-12-2011 12:38:02 8 C 5.37 g/m*3 8 C 0 km/h
185 03-12-2011 12:50:02 7.8 C 5.55 g/m*3 7.8 C 0 km/h
186 03-12-2011 13:02:02 7.5 C 5.6 g/m*3 7.5 C 0 km/h
187 03-12-2011 13:14:02 7.6 C 5.72 g/m*3 7.6 C 0 km/h
188 03-12-2011 13:26:01 7.7 C 5.84 g/m*3 7.7 C 0 km/h
189 03-12-2011 13:38:02 7.5 C 5.84 g/m*3 7.5 C 0 km/h
190 03-12-2011 13:50:02 7.7 C 6 g/m*3 7.7 C 0 km/h
191 03-12-2011 14:02:02 7.9 C 6 g/m*3 7.9 C 0 km/h
192 03-12-2011 14:14:02 8.1 C 5.91 g/m*3 8.1 C 0 km/h
193 03-12-2011 14:26:02 8.2 C 5.86 g/m*3 8.2 C 0 km/h
194 03-12-2011 14:38:02 8.3 C 5.9 g/m*3 8.3 C 0 km/h
195 03-12-2011 14:50:01 8.4 C 5.85 g/m*3 8.4 C 0 km/h
196 03-12-2011 15:02:02 8.6 C 5.93 g/m*3 8.6 C 0 km/h
197 03-12-2011 15:14:02 8.6 C 6.02 g/m*3 8.6 C 0 km/h
198 03-12-2011 15:26:02 8.6 C 6.02 g/m*3 8.6 C 0 km/h
199 03-12-2011 15:38:02 8.5 C 6.06 g/m*3 8.5 C 0 km/h
200 03-12-2011 15:50:02 8.5 C 6.15 g/m*3 8.5 C 0 km/h
Sensor: Nr:Datum:Temp:Abs-Feuchte:Windchill:Wind:
Aussen-T/F 201 03-12-2011 16:02:01 8.6 C 6.19 g/m*3 8.6 C 0 km/h
202 03-12-2011 16:14:01 8.6 C 6.19 g/m*3 8.6 C 0 km/h
203 03-12-2011 16:26:02 8.4 C 6.19 g/m*3 8.4 C 0 km/h
204 03-12-2011 16:38:02 8.3 C 6.32 g/m*3 8.3 C 0 km/h
205 03-12-2011 16:50:01 8.4 C 6.45 g/m*3 8.4 C 0 km/h
206 03-12-2011 17:02:02 8.4 C 6.45 g/m*3 8.4 C 0 km/h
207 03-12-2011 17:14:02 8.7 C 6.49 g/m*3 8.7 C 0 km/h
208 03-12-2011 17:26:01 8.7 C 6.4 g/m*3 8.7 C 0 km/h
209 03-12-2011 17:38:02 8.7 C 6.4 g/m*3 8.7 C 0 km/h
210 03-12-2011 17:50:02 8.9 C 6.48 g/m*3 8.9 C 0 km/h
211 03-12-2011 18:02:02 9 C 6.44 g/m*3 9 C 0 km/h
212 03-12-2011 18:14:02 8.8 C 6.61 g/m*3 8.8 C 0 km/h
213 03-12-2011 18:26:01 8.7 C 6.66 g/m*3 8.7 C 0 km/h
214 03-12-2011 18:38:02 8.6 C 6.7 g/m*3 8.6 C 0 km/h
215 03-12-2011 18:50:02 8.6 C 6.79 g/m*3 8.6 C 0 km/h
216 03-12-2011 19:02:02 8.7 C 6.83 g/m*3 8.7 C 0 km/h
217 03-12-2011 19:14:02 8.8 C 6.88 g/m*3 8.8 C 0 km/h
218 03-12-2011 19:26:01 9 C 6.79 g/m*3 9 C 0 km/h
219 03-12-2011 19:38:02 9 C 6.7 g/m*3 9 C 0 km/h
220 03-12-2011 19:50:01 9.1 C 6.74 g/m*3 9.1 C 0 km/h
221 03-12-2011 20:02:02 9.2 C 6.7 g/m*3 9.2 C 0 km/h
222 03-12-2011 20:14:02 9.3 C 6.65 g/m*3 9.3 C 0 km/h
223 03-12-2011 20:26:02 9.2 C 6.61 g/m*3 9.2 C 0 km/h
224 03-12-2011 20:38:02 9.2 C 6.7 g/m*3 9.2 C 0 km/h
225 03-12-2011 20:50:02 9.3 C 6.65 g/m*3 9.3 C 0 km/h
Sensor: Nr:Datum:Temp:Abs-Feuchte:Windchill:Wind:
Aussen-T/F 226 03-12-2011 21:02:02 9.1 C 6.57 g/m*3 9.1 C 0 km/h
227 03-12-2011 21:14:02 9.1 C 6.65 g/m*3 9.1 C 0 km/h
228 03-12-2011 21:26:02 9.3 C 6.65 g/m*3 9.3 C 0 km/h
229 03-12-2011 21:38:01 9.2 C 6.52 g/m*3 9.2 C 0 km/h
230 03-12-2011 21:50:02 8.9 C 6.48 g/m*3 8.9 C 0 km/h
231 03-12-2011 22:02:01 8.5 C 6.4 g/m*3 8.5 C 0 km/h
232 03-12-2011 22:14:01 8.2 C 6.45 g/m*3 8.2 C 0 km/h
233 03-12-2011 22:26:02 8.5 C 6.57 g/m*3 8.5 C 0 km/h
234 03-12-2011 22:38:02 8.5 C 6.4 g/m*3 8.5 C 0 km/h
235 03-12-2011 22:50:02 8 C 6.2 g/m*3 8 C 0 km/h
236 03-12-2011 23:02:02 7.2 C 6.2 g/m*3 7.2 C 0 km/h
237 03-12-2011 23:14:02 7.3 C 6.4 g/m*3 7.3 C 0 km/h
238 03-12-2011 23:26:02 7.2 C 6.44 g/m*3 7.2 C 0 km/h
239 03-12-2011 23:38:02 7.6 C 6.61 g/m*3 7.6 C 0 km/h
240 03-12-2011 23:50:01 7.5 C 6.56 g/m*3 7.5 C 0 km/h
241 04-12-2011 00:02:02 7.8 C 6.69 g/m*3 7.8 C 0 km/h
242 04-12-2011 00:14:02 7.6 C 6.53 g/m*3 7.6 C 0 km/h
243 04-12-2011 00:26:01 6.9 C 6.31 g/m*3 6.9 C 0 km/h
244 04-12-2011 00:38:02 6.8 C 6.35 g/m*3 6.8 C 0 km/h
245 04-12-2011 00:50:02 7.1 C 6.47 g/m*3 7.1 C 0 km/h
246 04-12-2011 01:02:02 7.3 C 6.56 g/m*3 7.3 C 0 km/h
247 04-12-2011 01:14:02 6.6 C 6.27 g/m*3 6.6 C 0 km/h
248 04-12-2011 01:26:02 6.5 C 6.3 g/m*3 6.5 C 0 km/h
249 04-12-2011 01:38:02 6.6 C 6.49 g/m*3 6.6 C 0 km/h
250 04-12-2011 01:50:02 7.1 C 6.71 g/m*3 7.1 C 0 km/h
Sensor: Nr:Datum:Temp:Abs-Feuchte:Windchill:Wind:
Aussen-T/F 251 04-12-2011 02:02:02 7.4 C 6.84 g/m*3 7.4 C 0 km/h
252 04-12-2011 02:14:03 7.7 C 6.89 g/m*3 7.7 C 0 km/h
253 04-12-2011 02:26:02 8.6 C 6.87 g/m*3 8.6 C 0 km/h
254 04-12-2011 02:38:02 9.3 C 6.56 g/m*3 9.3 C 0 km/h
255 04-12-2011 02:51:03 9.5 C 6.46 g/m*3 9.5 C 0 km/h
256 04-12-2011 03:03:03 9.6 C 6.41 g/m*3 9.6 C 0 km/h
257 04-12-2011 03:15:03 9.4 C 6.42 g/m*3 9.4 C 0 km/h
258 04-12-2011 03:27:03 9.4 C 6.51 g/m*3 9.4 C 0 km/h
259 04-12-2011 03:39:01 9.6 C 6.6 g/m*3 9.6 C 0 km/h
260 04-12-2011 03:51:01 9.7 C 6.55 g/m*3 9.7 C 0 km/h
261 04-12-2011 04:03:02 9.9 C 6.63 g/m*3 9.9 C 0 km/h
262 04-12-2011 04:15:01 10 C 6.67 g/m*3 10 C 0 km/h
263 04-12-2011 04:27:01 10.1 C 6.71 g/m*3 10.1 C 0 km/h
264 04-12-2011 04:39:02 10 C 6.67 g/m*3 10 C 0 km/h
265 04-12-2011 04:51:01 10.2 C 6.85 g/m*3 10.2 C 0 km/h
266 04-12-2011 05:03:02 10 C 6.86 g/m*3 10 C 0 km/h
267 04-12-2011 05:15:01 9.6 C 7.05 g/m*3 9.6 C 0 km/h
268 04-12-2011 05:27:01 9.4 C 7.24 g/m*3 9.4 C 0 km/h
269 04-12-2011 05:39:02 9.2 C 7.32 g/m*3 9.2 C 0 km/h
270 04-12-2011 05:51:01 8.9 C 7.45 g/m*3 8.9 C 0 km/h
271 04-12-2011 06:03:02 8.9 C 7.53 g/m*3 8.9 C 0 km/h
272 04-12-2011 06:15:02 9 C 7.58 g/m*3 9 C 0 km/h
273 04-12-2011 06:27:02 9.2 C 7.68 g/m*3 9.2 C 0 km/h
274 04-12-2011 06:39:01 8.9 C 7.62 g/m*3 8.9 C 0 km/h
275 04-12-2011 06:51:02 8.7 C 7.52 g/m*3 8.7 C 0 km/h
Sensor: Nr:Datum:Temp:Abs-Feuchte:Windchill:Wind:
Aussen-T/F 276 04-12-2011 07:03:01 8.7 C 7.61 g/m*3 8.7 C 0 km/h
277 04-12-2011 07:15:02 8.7 C 7.61 g/m*3 8.7 C 0 km/h
278 04-12-2011 07:27:03 9.1 C 7.81 g/m*3 9.1 C 0 km/h
279 04-12-2011 07:39:01 9.3 C 7.91 g/m*3 9.3 C 0 km/h
280 04-12-2011 07:51:02 9.3 C 7.91 g/m*3 9.3 C 0 km/h
281 04-12-2011 08:03:02 9.1 C 7.81 g/m*3 9.1 C 0 km/h
282 04-12-2011 08:15:02 8.9 C 7.8 g/m*3 8.9 C 0 km/h
283 04-12-2011 08:27:02 8.5 C 7.51 g/m*3 8.5 C 0 km/h
284 04-12-2011 08:39:02 8.2 C 7.37 g/m*3 8.2 C 0 km/h
285 04-12-2011 08:51:02 8 C 7.19 g/m*3 8 C 0 km/h
286 04-12-2011 09:03:02 8 C 7.19 g/m*3 8 C 0 km/h
287 04-12-2011 09:15:01 8 C 7.28 g/m*3 8 C 0 km/h
288 04-12-2011 09:27:01 8 C 7.28 g/m*3 8 C 0 km/h
289 04-12-2011 09:39:02 8.1 C 7.16 g/m*3 8.1 C 0 km/h
290 04-12-2011 09:51:02 8.1 C 6.99 g/m*3 8.1 C 0 km/h
291 04-12-2011 10:03:02 8.1 C 6.99 g/m*3 8.1 C 0 km/h
292 04-12-2011 10:15:01 8.3 C 6.91 g/m*3 8.3 C 0 km/h
293 04-12-2011 10:27:01 8.6 C 6.87 g/m*3 8.6 C 0 km/h
294 04-12-2011 10:39:02 8.7 C 6.66 g/m*3 8.7 C 0 km/h
295 04-12-2011 10:51:01 9.1 C 6.39 g/m*3 9.1 C 0 km/h
296 04-12-2011 11:03:02 9.3 C 6.29 g/m*3 9.3 C 0 km/h
297 04-12-2011 11:15:02 9.3 C 6.38 g/m*3 9.3 C 0 km/h
298 04-12-2011 11:27:02 9.4 C 6.15 g/m*3 9.4 C 0 km/h
299 04-12-2011 11:39:02 9.4 C 5.88 g/m*3 9.4 C 0 km/h
300 04-12-2011 11:51:02 9.4 C 5.79 g/m*3 9.4 C 0 km/h
Sensor: Nr:Datum:Temp:Abs-Feuchte:Windchill:Wind:
Aussen-T/F 301 04-12-2011 12:03:02 9.4 C 5.79 g/m*3 9.4 C 0 km/h
302 04-12-2011 12:15:02 9.4 C 5.88 g/m*3 9.4 C 0 km/h
303 04-12-2011 12:27:02 9.6 C 5.77 g/m*3 9.6 C 0 km/h
304 04-12-2011 12:39:01 9.7 C 5.72 g/m*3 9.7 C 0 km/h
305 04-12-2011 12:51:02 9.7 C 5.81 g/m*3 9.7 C 0 km/h
306 04-12-2011 13:03:01 9.7 C 5.81 g/m*3 9.7 C 0 km/h
307 04-12-2011 13:15:01 9.7 C 5.81 g/m*3 9.7 C 0 km/h
308 04-12-2011 13:27:01 9 C 5.91 g/m*3 9 C 0 km/h
309 04-12-2011 13:39:02 8.6 C 6.19 g/m*3 8.6 C 0 km/h
310 04-12-2011 13:51:02 8.5 C 6.23 g/m*3 8.5 C 0 km/h
311 04-12-2011 14:03:02 8.6 C 6.44 g/m*3 8.6 C 0 km/h
312 04-12-2011 14:15:02 8.9 C 6.22 g/m*3 8.9 C 0 km/h
313 04-12-2011 14:27:02 8.9 C 6.13 g/m*3 8.9 C 0 km/h
314 04-12-2011 14:39:02 8.8 C 6.09 g/m*3 8.8 C 0 km/h
315 04-12-2011 14:51:02 8.3 C 6.07 g/m*3 8.3 C 0 km/h
316 04-12-2011 15:03:02 8.3 C 6.24 g/m*3 8.3 C 0 km/h
317 04-12-2011 15:15:02 8.3 C 6.41 g/m*3 8.3 C 0 km/h
318 04-12-2011 15:27:02 8 C 6.37 g/m*3 8 C 0 km/h
319 04-12-2011 15:39:02 8.4 C 6.36 g/m*3 8.4 C 0 km/h
320 04-12-2011 15:51:02 8.2 C 6.36 g/m*3 8.2 C 0 km/h
321 04-12-2011 16:03:02 8.5 C 6.49 g/m*3 8.5 C 0 km/h
322 04-12-2011 16:15:03 8.5 C 6.32 g/m*3 8.5 C 0 km/h
323 04-12-2011 16:27:03 8.7 C 6.31 g/m*3 8.7 C 0 km/h
324 04-12-2011 16:39:02 8.1 C 6.41 g/m*3 8.1 C 0 km/h
325 04-12-2011 16:51:03 7.7 C 6.65 g/m*3 7.7 C 0 km/h
Sensor: Nr:Datum:Temp:Abs-Feuchte:Windchill:Wind:
Aussen-T/F 326 04-12-2011 17:03:02 7.6 C 6.77 g/m*3 7.6 C 0 km/h
327 04-12-2011 17:15:02 7.5 C 6.88 g/m*3 7.5 C 0 km/h
328 04-12-2011 17:27:02 7.5 C 6.96 g/m*3 7.5 C 0 km/h
329 04-12-2011 17:39:02 7.5 C 7.04 g/m*3 7.5 C 0 km/h
330 04-12-2011 17:51:02 7.6 C 7.09 g/m*3 7.6 C 0 km/h
331 04-12-2011 18:03:02 7.4 C 7 g/m*3 7.4 C 0 km/h
332 04-12-2011 18:15:02 7.3 C 7.03 g/m*3 7.3 C 0 km/h
333 04-12-2011 18:27:02 7.3 C 7.03 g/m*3 7.3 C 0 km/h
334 04-12-2011 18:39:03 7.3 C 7.03 g/m*3 7.3 C 0 km/h
335 04-12-2011 18:51:02 7.3 C 7.03 g/m*3 7.3 C 0 km/h
336 04-12-2011 19:03:02 7.3 C 7.11 g/m*3 7.3 C 0 km/h
337 04-12-2011 19:15:01 7.5 C 7.2 g/m*3 7.5 C 0 km/h
338 04-12-2011 19:27:01 7.3 C 7.11 g/m*3 7.3 C 0 km/h
339 04-12-2011 19:39:02 7.4 C 7.16 g/m*3 7.4 C 0 km/h
340 04-12-2011 19:51:02 7.4 C 7.16 g/m*3 7.4 C 0 km/h
341 04-12-2011 20:03:02 7.4 C 7.16 g/m*3 7.4 C 0 km/h
342 04-12-2011 20:15:02 7.2 C 7.06 g/m*3 7.2 C 0 km/h
343 04-12-2011 20:27:02 7.2 C 7.06 g/m*3 7.2 C 0 km/h
344 04-12-2011 20:39:02 7.2 C 7.14 g/m*3 7.2 C 0 km/h
345 04-12-2011 20:51:02 7.3 C 7.19 g/m*3 7.3 C 0 km/h
346 04-12-2011 21:03:02 7.5 C 7.28 g/m*3 7.5 C 0 km/h
347 04-12-2011 21:15:03 7.9 C 7.47 g/m*3 7.9 C 0 km/h
348 04-12-2011 21:27:03 7.8 C 7.43 g/m*3 7.8 C 0 km/h
349 04-12-2011 21:39:02 7.7 C 7.38 g/m*3 7.7 C 0 km/h
350 04-12-2011 21:51:01 7.6 C 7.33 g/m*3 7.6 C 0 km/h
Sensor: Nr:Datum:Temp:Abs-Feuchte:Windchill:Wind:
Aussen-T/F 351 04-12-2011 22:03:01 7.5 C 7.2 g/m*3 7.5 C 0 km/h
352 04-12-2011 22:15:02 7.4 C 7.08 g/m*3 7.4 C 0 km/h
353 04-12-2011 22:27:02 7.3 C 7.03 g/m*3 7.3 C 0 km/h
354 04-12-2011 22:39:01 7.4 C 7.08 g/m*3 7.4 C 0 km/h
355 04-12-2011 22:51:03 7.3 C 7.03 g/m*3 7.3 C 0 km/h
356 04-12-2011 23:03:02 7.1 C 6.94 g/m*3 7.1 C 0 km/h
357 04-12-2011 23:15:02 7 C 6.9 g/m*3 7 C 0 km/h
358 04-12-2011 23:27:03 6.7 C 6.76 g/m*3 6.7 C 0 km/h
359 04-12-2011 23:39:02 6.4 C 6.48 g/m*3 6.4 C 0 km/h
360 04-12-2011 23:51:02 6 C 6.24 g/m*3 6 C 0 km/h
361 05-12-2011 00:03:01 5.7 C 6.19 g/m*3 5.7 C 0 km/h
362 05-12-2011 00:15:02 5.6 C 6.22 g/m*3 5.6 C 0 km/h
363 05-12-2011 00:27:02 5.5 C 6.18 g/m*3 5.5 C 0 km/h
364 05-12-2011 00:39:02 5.3 C 6.17 g/m*3 5.3 C 0 km/h
365 05-12-2011 00:51:02 5.3 C 6.17 g/m*3 5.3 C 0 km/h
366 05-12-2011 01:03:02 5.5 C 6.25 g/m*3 5.5 C 0 km/h
367 05-12-2011 01:15:02 5.5 C 6.18 g/m*3 5.5 C 0 km/h
368 05-12-2011 01:27:02 5.5 C 6.18 g/m*3 5.5 C 0 km/h
369 05-12-2011 01:39:02 5.6 C 6.15 g/m*3 5.6 C 0 km/h
370 05-12-2011 01:51:02 5.6 C 6.08 g/m*3 5.6 C 0 km/h
371 05-12-2011 02:03:01 5.4 C 5.93 g/m*3 5.4 C 0 km/h
372 05-12-2011 02:15:02 5.6 C 6.01 g/m*3 5.6 C 0 km/h
373 05-12-2011 02:27:02 5.7 C 5.98 g/m*3 5.7 C 0 km/h
374 05-12-2011 02:39:02 5.8 C 6.02 g/m*3 5.8 C 0 km/h
375 05-12-2011 02:52:04 5.6 C 5.94 g/m*3 5.6 C 0 km/h
Sensor: Nr:Datum:Temp:Abs-Feuchte:Windchill:Wind:
Aussen-T/F 376 05-12-2011 03:04:04 5.4 C 5.86 g/m*3 5.4 C 0 km/h
377 05-12-2011 03:16:03 5.1 C 5.47 g/m*3 5.1 C 0 km/h
378 05-12-2011 03:28:03 5.1 C 5.47 g/m*3 5.1 C 0 km/h
379 05-12-2011 03:40:02 5.1 C 5.34 g/m*3 5.1 C 0 km/h
380 05-12-2011 03:52:02 5.3 C 5.34 g/m*3 5.3 C 0 km/h
381 05-12-2011 04:04:01 5.3 C 5.34 g/m*3 5.3 C 0 km/h
382 05-12-2011 04:16:02 5.2 C 5.3 g/m*3 5.2 C 0 km/h
383 05-12-2011 04:28:02 4.9 C 5.13 g/m*3 4.9 C 0 km/h
384 05-12-2011 04:40:01 5.1 C 4.92 g/m*3 5.1 C 0 km/h
385 05-12-2011 04:52:02 4.7 C 4.86 g/m*3 4.7 C 0 km/h
386 05-12-2011 05:04:02 4.3 C 4.86 g/m*3 4.3 C 0 km/h
387 05-12-2011 05:16:02 4 C 4.7 g/m*3 4 C 0 km/h
388 05-12-2011 05:28:02 4.5 C 4.8 g/m*3 4.5 C 0 km/h
389 05-12-2011 05:40:02 3.9 C 4.67 g/m*3 3.9 C 0 km/h
390 05-12-2011 05:52:02 3.9 C 4.8 g/m*3 3.9 C 0 km/h
391 05-12-2011 06:04:02 3.4 C 4.7 g/m*3 3.4 C 0 km/h
392 05-12-2011 06:16:01 3.3 C 4.61 g/m*3 3.3 C 0 km/h
393 05-12-2011 06:28:01 4 C 4.64 g/m*3 4 C 0 km/h
394 05-12-2011 06:40:02 3.3 C 4.55 g/m*3 3.3 C 0 km/h
395 05-12-2011 06:52:02 3.5 C 4.61 g/m*3 3.5 C 0 km/h
396 05-12-2011 07:04:02 3.5 C 4.55 g/m*3 3.5 C 0 km/h
397 05-12-2011 07:16:01 3.6 C 4.64 g/m*3 3.6 C 0 km/h
398 05-12-2011 07:28:01 3.7 C 4.42 g/m*3 3.7 C 0 km/h
399 05-12-2011 07:40:02 2.9 C 4.55 g/m*3 2.9 C 0 km/h
400 05-12-2011 07:52:01 2.8 C 4.63 g/m*3 2.8 C 0 km/h
Sensor: Nr:Datum:Temp:Abs-Feuchte:Windchill:Wind:
Aussen-T/F 401 05-12-2011 08:04:02 2.9 C 4.72 g/m*3 2.9 C 0 km/h
402 05-12-2011 08:16:02 2.6 C 4.75 g/m*3 2.6 C 0 km/h
403 05-12-2011 08:28:02 2.1 C 4.59 g/m*3 2.1 C 0 km/h
404 05-12-2011 08:40:01 2.1 C 4.7 g/m*3 2.1 C 0 km/h
405 05-12-2011 08:52:02 2.1 C 4.81 g/m*3 2.1 C 0 km/h
406 05-12-2011 09:04:01 1.6 C 4.7 g/m*3 1.6 C 0 km/h
407 05-12-2011 09:16:01 1.8 C 4.82 g/m*3 1.8 C 0 km/h
408 05-12-2011 09:28:02 1.9 C 4.91 g/m*3 1.9 C 0 km/h
409 05-12-2011 09:40:01 2.1 C 4.98 g/m*3 2.1 C 0 km/h
410 05-12-2011 09:52:02 3 C 5.17 g/m*3 3 C 0 km/h
411 05-12-2011 10:04:01 2.9 C 5.08 g/m*3 2.9 C 0 km/h
412 05-12-2011 10:16:02 2.5 C 4.89 g/m*3 2.5 C 0 km/h
413 05-12-2011 10:28:02 3.5 C 5.04 g/m*3 3.5 C 0 km/h
414 05-12-2011 10:40:02 3.2 C 4.7 g/m*3 3.2 C 0 km/h
415 05-12-2011 10:52:02 3.9 C 4.8 g/m*3 3.9 C 0 km/h
416 05-12-2011 11:04:03 4 C 4.58 g/m*3 4 C 0 km/h
417 05-12-2011 11:16:02 3.9 C 4.55 g/m*3 3.9 C 0 km/h
418 05-12-2011 11:28:02 4.1 C 4.48 g/m*3 4.1 C 0 km/h
419 05-12-2011 11:40:02 4.6 C 4.5 g/m*3 4.6 C 0 km/h
420 05-12-2011 11:52:01 4.4 C 4.37 g/m*3 4.4 C 0 km/h
421 05-12-2011 12:04:01 4.7 C 4.53 g/m*3 4.7 C 0 km/h
422 05-12-2011 12:16:01 5.4 C 4.6 g/m*3 5.4 C 0 km/h
423 05-12-2011 12:28:01 5.1 C 4.24 g/m*3 5.1 C 0 km/h
424 05-12-2011 12:40:01 5.3 C 4.16 g/m*3 5.3 C 0 km/h
425 05-12-2011 12:52:01 5.7 C 4.2 g/m*3 5.7 C 0 km/h
Sensor: Nr:Datum:Temp:Abs-Feuchte:Windchill:Wind:
Aussen-T/F 426 05-12-2011 13:04:01 5.8 C 4.08 g/m*3 5.8 C 0 km/h
427 05-12-2011 13:16:02 5.8 C 3.87 g/m*3 5.8 C 0 km/h
428 05-12-2011 13:28:02 5.6 C 3.61 g/m*3 5.6 C 0 km/h
429 05-12-2011 13:40:01 5.6 C 3.68 g/m*3 5.6 C 0 km/h
430 05-12-2011 13:52:03 5.4 C 3.42 g/m*3 5.4 C 0 km/h
431 05-12-2011 14:04:02 5.1 C 3.49 g/m*3 5.1 C 0 km/h
432 05-12-2011 14:16:02 4.8 C 3.76 g/m*3 4.8 C 0 km/h
433 05-12-2011 14:28:02 5.5 C 3.44 g/m*3 5.5 C 0 km/h
434 05-12-2011 14:40:02 5.2 C 3.58 g/m*3 5.2 C 0 km/h
435 05-12-2011 14:52:02 5.2 C 3.51 g/m*3 5.2 C 0 km/h
436 05-12-2011 15:04:01 5.5 C 3.44 g/m*3 5.5 C 0 km/h
437 05-12-2011 15:16:02 5.5 C 3.51 g/m*3 5.5 C 0 km/h
438 05-12-2011 15:28:02 5.6 C 3.46 g/m*3 5.6 C 0 km/h
439 05-12-2011 15:40:02 5.4 C 3.49 g/m*3 5.4 C 0 km/h
440 05-12-2011 15:52:02 5 C 3.47 g/m*3 5 C 0 km/h
441 05-12-2011 16:04:03 5.3 C 3.47 g/m*3 5.3 C 0 km/h
442 05-12-2011 16:16:02 5.2 C 3.51 g/m*3 5.2 C 0 km/h
443 05-12-2011 16:28:02 5.1 C 3.63 g/m*3 5.1 C 0 km/h
444 05-12-2011 16:40:02 5 C 3.74 g/m*3 5 C 0 km/h
445 05-12-2011 16:52:01 4.7 C 3.93 g/m*3 4.7 C 0 km/h
446 05-12-2011 17:04:02 4.5 C 4.08 g/m*3 4.5 C 0 km/h
447 05-12-2011 17:16:01 4 C 4.07 g/m*3 4 C 0 km/h
448 05-12-2011 17:28:01 4.6 C 3.97 g/m*3 4.6 C 0 km/h
449 05-12-2011 17:40:02 4.5 C 3.94 g/m*3 4.5 C 0 km/h
450 05-12-2011 17:52:01 5.2 C 3.99 g/m*3 5.2 C 0 km/h
Sensor: Nr:Datum:Temp:Abs-Feuchte:Windchill:Wind:
Aussen-T/F 451 05-12-2011 18:04:02 5.4 C 3.98 g/m*3 5.4 C 0 km/h
452 05-12-2011 18:16:02 5.3 C 4.02 g/m*3 5.3 C 0 km/h
453 05-12-2011 18:28:02 5.3 C 4.09 g/m*3 5.3 C 0 km/h
454 05-12-2011 18:40:02 5.3 C 4.16 g/m*3 5.3 C 0 km/h
455 05-12-2011 18:52:01 5.4 C 4.26 g/m*3 5.4 C 0 km/h
456 05-12-2011 19:04:02 5.4 C 4.26 g/m*3 5.4 C 0 km/h
457 05-12-2011 19:16:02 5.2 C 4.34 g/m*3 5.2 C 0 km/h
458 05-12-2011 19:28:02 4.9 C 4.46 g/m*3 4.9 C 0 km/h
459 05-12-2011 19:40:01 4.5 C 4.54 g/m*3 4.5 C 0 km/h
460 05-12-2011 19:52:02 3.9 C 4.74 g/m*3 3.9 C 0 km/h
461 05-12-2011 20:04:01 3.7 C 4.92 g/m*3 3.7 C 0 km/h
462 05-12-2011 20:16:02 3.8 C 4.96 g/m*3 3.8 C 0 km/h
463 05-12-2011 20:28:02 3.6 C 4.83 g/m*3 3.6 C 0 km/h
464 05-12-2011 20:40:01 3.4 C 4.83 g/m*3 3.4 C 0 km/h
465 05-12-2011 20:52:02 4 C 4.77 g/m*3 4 C 0 km/h
466 05-12-2011 21:04:02 4.2 C 4.7 g/m*3 4.2 C 0 km/h
467 05-12-2011 21:16:02 4.1 C 4.35 g/m*3 4.1 C 0 km/h
468 05-12-2011 21:28:02 3.8 C 4.33 g/m*3 3.8 C 0 km/h
469 05-12-2011 21:40:02 3.6 C 4.39 g/m*3 3.6 C 0 km/h
470 05-12-2011 21:52:02 3.5 C 4.49 g/m*3 3.5 C 0 km/h
471 05-12-2011 22:04:02 3.5 C 4.49 g/m*3 3.5 C 0 km/h
472 05-12-2011 22:16:01 2.9 C 4.55 g/m*3 2.9 C 0 km/h
473 05-12-2011 22:28:01 3.2 C 4.76 g/m*3 3.2 C 0 km/h
474 05-12-2011 22:40:02 3.8 C 4.89 g/m*3 3.8 C 0 km/h
475 05-12-2011 22:52:02 3.5 C 4.73 g/m*3 3.5 C 0 km/h
Sensor: Nr:Datum:Temp:Abs-Feuchte:Windchill:Wind:
Aussen-T/F 476 05-12-2011 23:04:02 3.5 C 4.67 g/m*3 3.5 C 0 km/h
477 05-12-2011 23:16:01 3.4 C 4.7 g/m*3 3.4 C 0 km/h
478 05-12-2011 23:28:01 3.3 C 4.73 g/m*3 3.3 C 0 km/h
479 05-12-2011 23:40:02 3.7 C 4.74 g/m*3 3.7 C 0 km/h
480 05-12-2011 23:52:02 3.5 C 4.61 g/m*3 3.5 C 0 km/h
481 06-12-2011 00:04:02 4 C 4.58 g/m*3 4 C 0 km/h
482 06-12-2011 00:16:02 3.9 C 4.67 g/m*3 3.9 C 0 km/h
483 06-12-2011 00:28:02 3.8 C 4.71 g/m*3 3.8 C 0 km/h
484 06-12-2011 00:40:02 4.1 C 4.67 g/m*3 4.1 C 0 km/h
485 06-12-2011 00:52:02 3.7 C 4.67 g/m*3 3.7 C 0 km/h
486 06-12-2011 01:04:02 3.4 C 4.7 g/m*3 3.4 C 0 km/h
487 06-12-2011 01:16:02 3.5 C 4.8 g/m*3 3.5 C 0 km/h
488 06-12-2011 01:28:02 3.1 C 4.73 g/m*3 3.1 C 0 km/h
489 06-12-2011 01:40:02 3 C 4.76 g/m*3 3 C 0 km/h
490 06-12-2011 01:52:02 3.1 C 4.73 g/m*3 3.1 C 0 km/h
491 06-12-2011 02:04:01 3.2 C 4.76 g/m*3 3.2 C 0 km/h
492 06-12-2011 02:16:02 3.5 C 4.86 g/m*3 3.5 C 0 km/h
493 06-12-2011 02:28:02 3.5 C 4.8 g/m*3 3.5 C 0 km/h
494 06-12-2011 02:40:02 4 C 4.64 g/m*3 4 C 0 km/h
495 06-12-2011 02:53:03 4 C 4.64 g/m*3 4 C 0 km/h
496 06-12-2011 03:05:03 3.7 C 4.67 g/m*3 3.7 C 0 km/h
497 06-12-2011 03:17:02 3.5 C 4.67 g/m*3 3.5 C 0 km/h
498 06-12-2011 03:29:02 3.8 C 4.77 g/m*3 3.8 C 0 km/h
499 06-12-2011 03:41:02 3.7 C 4.67 g/m*3 3.7 C 0 km/h
500 06-12-2011 03:53:02 4 C 4.58 g/m*3 4 C 0 km/h
Sensor: Nr:Datum:Temp:Abs-Feuchte:Windchill:Wind:
Aussen-T/F 501 06-12-2011 04:05:01 3.8 C 4.58 g/m*3 3.8 C 0 km/h
502 06-12-2011 04:17:02 3.8 C 4.58 g/m*3 3.8 C 0 km/h
503 06-12-2011 04:29:02 3.8 C 4.64 g/m*3 3.8 C 0 km/h
504 06-12-2011 04:41:02 3.8 C 4.58 g/m*3 3.8 C 0 km/h
505 06-12-2011 04:53:02 3.8 C 4.58 g/m*3 3.8 C 0 km/h
506 06-12-2011 05:05:03 3.7 C 4.55 g/m*3 3.7 C 0 km/h
507 06-12-2011 05:17:02 3.7 C 4.49 g/m*3 3.7 C 0 km/h
508 06-12-2011 05:29:02 3.7 C 4.49 g/m*3 3.7 C 0 km/h
509 06-12-2011 05:41:02 3.8 C 4.52 g/m*3 3.8 C 0 km/h
510 06-12-2011 05:53:02 3.3 C 4.37 g/m*3 3.3 C 0 km/h
511 06-12-2011 06:05:02 3.2 C 4.4 g/m*3 3.2 C 0 km/h
512 06-12-2011 06:17:01 3.8 C 4.39 g/m*3 3.8 C 0 km/h
513 06-12-2011 06:29:01 3.8 C 4.39 g/m*3 3.8 C 0 km/h
514 06-12-2011 06:41:02 3.4 C 4.28 g/m*3 3.4 C 0 km/h
515 06-12-2011 06:53:01 3.4 C 4.34 g/m*3 3.4 C 0 km/h
516 06-12-2011 07:05:02 4 C 4.39 g/m*3 4 C 0 km/h
517 06-12-2011 07:17:02 3.9 C 4.29 g/m*3 3.9 C 0 km/h
518 06-12-2011 07:29:02 3.7 C 4.3 g/m*3 3.7 C 0 km/h
519 06-12-2011 07:41:01 3.6 C 4.33 g/m*3 3.6 C 0 km/h
520 06-12-2011 07:53:01 3.3 C 4.31 g/m*3 3.3 C 0 km/h
521 06-12-2011 08:05:01 3.3 C 4.37 g/m*3 3.3 C 0 km/h
522 06-12-2011 08:17:02 3.3 C 4.43 g/m*3 3.3 C 0 km/h
523 06-12-2011 08:29:02 2.6 C 4.34 g/m*3 2.6 C 0 km/h
524 06-12-2011 08:41:01 2.7 C 4.49 g/m*3 2.7 C 0 km/h
525 06-12-2011 08:53:02 2.4 C 4.51 g/m*3 2.4 C 0 km/h
Sensor: Nr:Datum:Temp:Abs-Feuchte:Windchill:Wind:
Aussen-T/F 526 06-12-2011 09:05:02 3.7 C 4.74 g/m*3 3.7 C 0 km/h
527 06-12-2011 09:17:02 4.1 C 4.48 g/m*3 4.1 C 0 km/h
528 06-12-2011 09:29:02 4.3 C 4.41 g/m*3 4.3 C 0 km/h
529 06-12-2011 09:41:03 4.5 C 4.47 g/m*3 4.5 C 0 km/h
530 06-12-2011 09:53:02 4.6 C 4.43 g/m*3 4.6 C 0 km/h
531 06-12-2011 10:05:01 4.7 C 4.4 g/m*3 4.7 C 0 km/h
532 06-12-2011 10:17:01 4.9 C 4.46 g/m*3 4.9 C 0 km/h
533 06-12-2011 10:29:02 5 C 4.42 g/m*3 5 C 0 km/h
534 06-12-2011 10:41:01 4.7 C 4.4 g/m*3 4.7 C 0 km/h
535 06-12-2011 10:53:02 4.7 C 4.4 g/m*3 4.7 C 0 km/h
536 06-12-2011 11:05:02 5 C 4.42 g/m*3 5 C 0 km/h
537 06-12-2011 11:17:02 5.3 C 4.44 g/m*3 5.3 C 0 km/h
538 06-12-2011 11:29:02 5.3 C 4.44 g/m*3 5.3 C 0 km/h
539 06-12-2011 11:41:03 5.3 C 4.44 g/m*3 5.3 C 0 km/h
540 06-12-2011 11:53:02 5.6 C 4.45 g/m*3 5.6 C 0 km/h
541 06-12-2011 12:05:02 5.4 C 4.4 g/m*3 5.4 C 0 km/h
542 06-12-2011 12:17:01 5.5 C 4.42 g/m*3 5.5 C 0 km/h
543 06-12-2011 12:29:01 5.2 C 4.48 g/m*3 5.2 C 0 km/h
544 06-12-2011 12:41:02 5.4 C 4.47 g/m*3 5.4 C 0 km/h
545 06-12-2011 12:53:02 5.4 C 4.4 g/m*3 5.4 C 0 km/h
546 06-12-2011 13:05:02 6.2 C 4.27 g/m*3 6.2 C 0 km/h
547 06-12-2011 13:17:01 6.5 C 4.27 g/m*3 6.5 C 0 km/h
548 06-12-2011 13:29:01 6.3 C 4.22 g/m*3 6.3 C 0 km/h
549 06-12-2011 13:41:02 6.5 C 4.2 g/m*3 6.5 C 0 km/h
550 06-12-2011 13:53:01 6.6 C 4.23 g/m*3 6.6 C 0 km/h
Sensor: Nr:Datum:Temp:Abs-Feuchte:Windchill:Wind:
Aussen-T/F 551 06-12-2011 14:05:02 6.6 C 4.23 g/m*3 6.6 C 0 km/h
552 06-12-2011 14:17:02 6.5 C 4.2 g/m*3 6.5 C 0 km/h
553 06-12-2011 14:29:02 6.2 C 4.12 g/m*3 6.2 C 0 km/h
554 06-12-2011 14:41:01 6.2 C 4.27 g/m*3 6.2 C 0 km/h
555 06-12-2011 14:53:02 6.2 C 4.12 g/m*3 6.2 C 0 km/h
556 06-12-2011 15:05:01 6.2 C 4.27 g/m*3 6.2 C 0 km/h
557 06-12-2011 15:17:02 5.9 C 4.33 g/m*3 5.9 C 0 km/h
558 06-12-2011 15:29:03 5.9 C 4.33 g/m*3 5.9 C 0 km/h
559 06-12-2011 15:41:01 6.2 C 4.27 g/m*3 6.2 C 0 km/h
560 06-12-2011 15:53:02 6.1 C 4.24 g/m*3 6.1 C 0 km/h
561 06-12-2011 16:05:02 5.7 C 4.2 g/m*3 5.7 C 0 km/h
562 06-12-2011 16:17:02 5.2 C 4.06 g/m*3 5.2 C 0 km/h
563 06-12-2011 16:29:02 4.9 C 4.12 g/m*3 4.9 C 0 km/h
564 06-12-2011 16:41:02 4.6 C 4.23 g/m*3 4.6 C 0 km/h
565 06-12-2011 16:53:02 4.9 C 4.25 g/m*3 4.9 C 0 km/h
566 06-12-2011 17:05:02 4.7 C 4.13 g/m*3 4.7 C 0 km/h
567 06-12-2011 17:17:01 4.5 C 4.14 g/m*3 4.5 C 0 km/h
568 06-12-2011 17:29:01 4.3 C 4.09 g/m*3 4.3 C 0 km/h
569 06-12-2011 17:41:02 4 C 4.2 g/m*3 4 C 0 km/h
570 06-12-2011 17:53:02 4 C 4.13 g/m*3 4 C 0 km/h
571 06-12-2011 18:05:02 3.7 C 4.18 g/m*3 3.7 C 0 km/h
572 06-12-2011 18:17:01 3.6 C 4.21 g/m*3 3.6 C 0 km/h
573 06-12-2011 18:29:01 3.5 C 4.24 g/m*3 3.5 C 0 km/h
574 06-12-2011 18:41:02 3.4 C 4.21 g/m*3 3.4 C 0 km/h
575 06-12-2011 18:53:02 3.6 C 4.33 g/m*3 3.6 C 0 km/h
Sensor: Nr:Datum:Temp:Abs-Feuchte:Windchill:Wind:
Aussen-T/F 576 06-12-2011 19:05:02 3.5 C 4.3 g/m*3 3.5 C 0 km/h
577 06-12-2011 19:17:02 4.2 C 4.19 g/m*3 4.2 C 0 km/h
578 06-12-2011 19:29:02 4.7 C 4.2 g/m*3 4.7 C 0 km/h
579 06-12-2011 19:41:02 4.3 C 4.09 g/m*3 4.3 C 0 km/h
580 06-12-2011 19:53:02 4.8 C 4.16 g/m*3 4.8 C 0 km/h
581 06-12-2011 20:05:02 4.8 C 4.16 g/m*3 4.8 C 0 km/h
582 06-12-2011 20:17:02 4.8 C 4.09 g/m*3 4.8 C 0 km/h
583 06-12-2011 20:29:03 4.8 C 4.02 g/m*3 4.8 C 0 km/h
584 06-12-2011 20:41:01 5.1 C 3.97 g/m*3 5.1 C 0 km/h
585 06-12-2011 20:53:02 4.9 C 4.05 g/m*3 4.9 C 0 km/h
586 06-12-2011 21:05:01 4.8 C 4.09 g/m*3 4.8 C 0 km/h
587 06-12-2011 21:17:01 5 C 4.01 g/m*3 5 C 0 km/h
588 06-12-2011 21:29:01 5.2 C 4.06 g/m*3 5.2 C 0 km/h
589 06-12-2011 21:41:02 4.7 C 4.06 g/m*3 4.7 C 0 km/h
590 06-12-2011 21:53:02 4.5 C 4.21 g/m*3 4.5 C 0 km/h
591 06-12-2011 22:05:02 4.3 C 4.28 g/m*3 4.3 C 0 km/h
592 06-12-2011 22:17:02 4.3 C 4.35 g/m*3 4.3 C 0 km/h
593 06-12-2011 22:29:02 4.5 C 4.4 g/m*3 4.5 C 0 km/h
594 06-12-2011 22:41:02 4.8 C 4.43 g/m*3 4.8 C 0 km/h
595 06-12-2011 22:53:01 4.7 C 4.46 g/m*3 4.7 C 0 km/h
596 06-12-2011 23:05:02 4.7 C 4.46 g/m*3 4.7 C 0 km/h
597 06-12-2011 23:17:01 4.5 C 4.54 g/m*3 4.5 C 0 km/h
598 06-12-2011 23:29:01 4.8 C 4.63 g/m*3 4.8 C 0 km/h
599 06-12-2011 23:41:01 4.6 C 4.57 g/m*3 4.6 C 0 km/h
600 06-12-2011 23:53:01 4.7 C 4.6 g/m*3 4.7 C 0 km/h
Sensor: Nr:Datum:Temp:Abs-Feuchte:Windchill:Wind:
Aussen-T/F 601 07-12-2011 00:05:01 5 C 4.62 g/m*3 5 C 0 km/h
602 07-12-2011 00:17:02 5.2 C 4.54 g/m*3 5.2 C 0 km/h
603 07-12-2011 00:29:02 5.1 C 4.51 g/m*3 5.1 C 0 km/h
604 07-12-2011 00:41:01 5.1 C 4.58 g/m*3 5.1 C 0 km/h
605 07-12-2011 00:53:02 5.2 C 4.61 g/m*3 5.2 C 0 km/h
606 07-12-2011 01:05:01 4.9 C 4.79 g/m*3 4.9 C 0 km/h
607 07-12-2011 01:17:02 4.9 C 4.86 g/m*3 4.9 C 0 km/h
608 07-12-2011 01:29:02 4.7 C 4.86 g/m*3 4.7 C 0 km/h
609 07-12-2011 01:41:01 4.5 C 4.93 g/m*3 4.5 C 0 km/h
610 07-12-2011 01:53:02 4.5 C 5 g/m*3 4.5 C 0 km/h
611 07-12-2011 02:05:02 4.4 C 5.03 g/m*3 4.4 C 0 km/h
612 07-12-2011 02:17:02 4.3 C 5.06 g/m*3 4.3 C 0 km/h
613 07-12-2011 02:29:02 4.5 C 5.13 g/m*3 4.5 C 0 km/h
614 07-12-2011 02:41:02 4.9 C 5.2 g/m*3 4.9 C 0 km/h
615 07-12-2011 02:53:01 4.8 C 5.23 g/m*3 4.8 C 0 km/h
616 07-12-2011 03:05:01 5.1 C 5.27 g/m*3 5.1 C 0 km/h
617 07-12-2011 03:17:02 5.1 C 5.2 g/m*3 5.1 C 0 km/h
618 07-12-2011 03:29:02 5.5 C 5.27 g/m*3 5.5 C 0 km/h
619 07-12-2011 03:41:01 5.7 C 5.19 g/m*3 5.7 C 0 km/h
620 07-12-2011 03:53:02 5.8 C 5.23 g/m*3 5.8 C 0 km/h
621 07-12-2011 04:05:01 5.8 C 5.23 g/m*3 5.8 C 0 km/h
622 07-12-2011 04:17:01 5.9 C 5.19 g/m*3 5.9 C 0 km/h
623 07-12-2011 04:29:01 6 C 5.15 g/m*3 6 C 0 km/h
624 07-12-2011 04:41:02 6.1 C 5.19 g/m*3 6.1 C 0 km/h
625 07-12-2011 04:53:01 6.3 C 5.26 g/m*3 6.3 C 0 km/h
Sensor: Nr:Datum:Temp:Abs-Feuchte:Windchill:Wind:
Aussen-T/F 626 07-12-2011 05:05:02 6.4 C 5.29 g/m*3 6.4 C 0 km/h
627 07-12-2011 05:17:01 6.5 C 5.25 g/m*3 6.5 C 0 km/h
628 07-12-2011 05:29:01 6.5 C 5.25 g/m*3 6.5 C 0 km/h
629 07-12-2011 05:41:01 6.6 C 5.28 g/m*3 6.6 C 0 km/h
630 07-12-2011 05:53:01 6.6 C 5.36 g/m*3 6.6 C 0 km/h
631 07-12-2011 06:05:02 6.6 C 5.36 g/m*3 6.6 C 0 km/h
632 07-12-2011 06:17:01 6.5 C 5.25 g/m*3 6.5 C 0 km/h
633 07-12-2011 06:29:01 6.7 C 5.32 g/m*3 6.7 C 0 km/h
634 07-12-2011 06:41:02 6.5 C 5.25 g/m*3 6.5 C 0 km/h
635 07-12-2011 06:53:01 6.1 C 5.41 g/m*3 6.1 C 0 km/h
636 07-12-2011 07:05:02 6 C 5.44 g/m*3 6 C 0 km/h
637 07-12-2011 07:17:01 5.5 C 5.55 g/m*3 5.5 C 0 km/h
638 07-12-2011 07:29:01 5.4 C 5.65 g/m*3 5.4 C 0 km/h
639 07-12-2011 07:41:01 5.3 C 5.75 g/m*3 5.3 C 0 km/h
640 07-12-2011 07:53:01 5.2 C 5.78 g/m*3 5.2 C 0 km/h
641 07-12-2011 08:05:01 5.1 C 5.81 g/m*3 5.1 C 0 km/h
642 07-12-2011 08:17:01 4.8 C 5.83 g/m*3 4.8 C 0 km/h
643 07-12-2011 08:29:01 4.9 C 5.94 g/m*3 4.9 C 0 km/h
644 07-12-2011 08:41:01 6.4 C 6.41 g/m*3 6.4 C 0 km/h
645 07-12-2011 08:53:01 6.4 C 6.18 g/m*3 6.4 C 0 km/h
646 07-12-2011 09:05:02 6.2 C 6.03 g/m*3 6.2 C 0 km/h
647 07-12-2011 09:17:01 6.3 C 6.14 g/m*3 6.3 C 0 km/h
648 07-12-2011 09:29:01 6.2 C 6.18 g/m*3 6.2 C 0 km/h
649 07-12-2011 09:41:01 6.4 C 6.26 g/m*3 6.4 C 0 km/h
650 07-12-2011 09:53:01 6.2 C 6.25 g/m*3 6.2 C 0 km/h
Sensor: Nr:Datum:Temp:Abs-Feuchte:Windchill:Wind:
Aussen-T/F 651 07-12-2011 10:05:01 6.2 C 5.88 g/m*3 6.2 C 0 km/h
652 07-12-2011 10:17:01 5.8 C 5.73 g/m*3 5.8 C 0 km/h
653 07-12-2011 10:29:01 5.8 C 5.66 g/m*3 5.8 C 0 km/h
654 07-12-2011 10:41:01 5.8 C 5.66 g/m*3 5.8 C 0 km/h
655 07-12-2011 10:53:01 6.1 C 5.63 g/m*3 6.1 C 0 km/h
656 07-12-2011 11:05:01 6.4 C 5.51 g/m*3 6.4 C 0 km/h
657 07-12-2011 11:17:02 7 C 5.35 g/m*3 7 C 0 km/h
658 07-12-2011 11:29:02 7.4 C 5.33 g/m*3 7.4 C 0 km/h
659 07-12-2011 11:41:01 7.6 C 5.48 g/m*3 7.6 C 0 km/h
660 07-12-2011 11:53:02 8.1 C 5.49 g/m*3 8.1 C 0 km/h
661 07-12-2011 12:05:01 8.6 C 5.5 g/m*3 8.6 C 0 km/h
662 07-12-2011 12:17:01 8.9 C 5.43 g/m*3 8.9 C 0 km/h
663 07-12-2011 12:29:01 6.2 C 4.85 g/m*3 6.2 C 0 km/h
664 07-12-2011 12:41:02 6.2 C 5 g/m*3 6.2 C 0 km/h
665 07-12-2011 12:53:01 7.6 C 5.16 g/m*3 7.6 C 0 km/h
666 07-12-2011 13:05:01 7.3 C 5.06 g/m*3 7.3 C 0 km/h
667 07-12-2011 13:17:01 6 C 5.15 g/m*3 6 C 0 km/h
668 07-12-2011 13:29:01 5.1 C 5.13 g/m*3 5.1 C 0 km/h
669 07-12-2011 13:41:02 5.8 C 5.3 g/m*3 5.8 C 0 km/h
670 07-12-2011 13:53:01 6 C 5.23 g/m*3 6 C 0 km/h
671 07-12-2011 14:05:02 5.7 C 5.19 g/m*3 5.7 C 0 km/h
672 07-12-2011 14:17:01 5.7 C 5.34 g/m*3 5.7 C 0 km/h
673 07-12-2011 14:29:01 5.8 C 5.3 g/m*3 5.8 C 0 km/h
674 07-12-2011 14:41:01 6.7 C 5.24 g/m*3 6.7 C 0 km/h
675 07-12-2011 14:53:01 6.7 C 5.09 g/m*3 6.7 C 0 km/h
Sensor: Nr:Datum:Temp:Abs-Feuchte:Windchill:Wind:
Aussen-T/F 676 07-12-2011 15:05:01 6.1 C 5.19 g/m*3 6.1 C 0 km/h
677 07-12-2011 15:17:02 6.6 C 5.21 g/m*3 6.6 C 0 km/h
678 07-12-2011 15:29:02 7 C 4.88 g/m*3 7 C 0 km/h
679 07-12-2011 15:41:01 4.8 C 4.56 g/m*3 4.8 C 0 km/h
680 07-12-2011 15:53:02 4 C 4.77 g/m*3 4 C 0 km/h
681 07-12-2011 16:05:01 3.7 C 4.92 g/m*3 3.7 C 0 km/h
682 07-12-2011 16:17:02 3.8 C 5.08 g/m*3 3.8 C 0 km/h
683 07-12-2011 16:29:02 6.5 C 5.25 g/m*3 6.5 C 0 km/h
684 07-12-2011 16:41:01 6.9 C 4.08 g/m*3 6.9 C 0 km/h
685 07-12-2011 16:53:02 4.6 C 4.57 g/m*3 4.6 C 0 km/h
686 07-12-2011 17:05:01 3.6 C 4.58 g/m*3 3.6 C 0 km/h
687 07-12-2011 17:17:01 4.7 C 4.93 g/m*3 4.7 C 0 km/h
688 07-12-2011 17:29:01 5.9 C 4.18 g/m*3 5.9 C 0 km/h
689 07-12-2011 17:41:02 6.9 C 3.62 g/m*3 6.9 C 0 km/h
690 07-12-2011 17:53:01 6.3 C 3.63 g/m*3 6.3 C 0 km/h
691 07-12-2011 18:05:02 5.8 C 4.01 g/m*3 5.8 C 0 km/h
692 07-12-2011 18:17:01 5.3 C 4.23 g/m*3 5.3 C 0 km/h
693 07-12-2011 18:29:01 4.6 C 4.37 g/m*3 4.6 C 0 km/h
694 07-12-2011 18:41:02 4.8 C 4.49 g/m*3 4.8 C 0 km/h
695 07-12-2011 18:53:01 4.8 C 4.43 g/m*3 4.8 C 0 km/h
696 07-12-2011 19:05:02 4.5 C 4.47 g/m*3 4.5 C 0 km/h
697 07-12-2011 19:17:01 4 C 4.51 g/m*3 4 C 0 km/h
698 07-12-2011 19:29:01 3.7 C 4.67 g/m*3 3.7 C 0 km/h
699 07-12-2011 19:41:01 3.5 C 4.67 g/m*3 3.5 C 0 km/h
700 07-12-2011 19:53:01 4.1 C 4.74 g/m*3 4.1 C 0 km/h
Sensor: Nr:Datum:Temp:Abs-Feuchte:Windchill:Wind:
Aussen-T/F 701 07-12-2011 20:05:01 4 C 4.64 g/m*3 4 C 0 km/h
702 07-12-2011 20:17:02 3.8 C 4.58 g/m*3 3.8 C 0 km/h
703 07-12-2011 20:29:02 4.5 C 4.67 g/m*3 4.5 C 0 km/h
704 07-12-2011 20:41:01 4.8 C 4.56 g/m*3 4.8 C 0 km/h
705 07-12-2011 20:53:02 5.4 C 4.4 g/m*3 5.4 C 0 km/h
706 07-12-2011 21:05:01 4.5 C 4.67 g/m*3 4.5 C 0 km/h
707 07-12-2011 21:17:01 4.3 C 4.74 g/m*3 4.3 C 0 km/h
708 07-12-2011 21:29:02 4.2 C 4.64 g/m*3 4.2 C 0 km/h
709 07-12-2011 21:41:01 4.4 C 4.44 g/m*3 4.4 C 0 km/h
710 07-12-2011 21:53:01 4.4 C 4.31 g/m*3 4.4 C 0 km/h
711 07-12-2011 22:05:01 5 C 4.01 g/m*3 5 C 0 km/h
712 07-12-2011 22:17:01 5.5 C 3.93 g/m*3 5.5 C 0 km/h
713 07-12-2011 22:29:01 5.4 C 3.91 g/m*3 5.4 C 0 km/h
714 07-12-2011 22:41:02 5.3 C 4.02 g/m*3 5.3 C 0 km/h
715 07-12-2011 22:53:01 5.4 C 3.98 g/m*3 5.4 C 0 km/h
716 07-12-2011 23:05:02 5.2 C 3.99 g/m*3 5.2 C 0 km/h
717 07-12-2011 23:17:01 5.2 C 3.99 g/m*3 5.2 C 0 km/h
718 07-12-2011 23:29:01 5.2 C 3.92 g/m*3 5.2 C 0 km/h
719 07-12-2011 23:41:02 5.6 C 3.82 g/m*3 5.6 C 0 km/h
720 07-12-2011 23:53:01 5.7 C 3.77 g/m*3 5.7 C 0 km/h
721 08-12-2011 00:05:01 5.8 C 3.65 g/m*3 5.8 C 0 km/h
722 08-12-2011 00:17:01 6.2 C 3.68 g/m*3 6.2 C 0 km/h
723 08-12-2011 00:29:01 6.2 C 3.68 g/m*3 6.2 C 0 km/h
724 08-12-2011 00:41:02 6.4 C 3.65 g/m*3 6.4 C 0 km/h
725 08-12-2011 00:53:01 6.4 C 3.65 g/m*3 6.4 C 0 km/h
Sensor: Nr:Datum:Temp:Abs-Feuchte:Windchill:Wind:
Aussen-T/F 726 08-12-2011 01:05:02 6.5 C 3.6 g/m*3 6.5 C 0 km/h
727 08-12-2011 01:17:01 6.5 C 3.6 g/m*3 6.5 C 0 km/h
728 08-12-2011 01:29:01 6.2 C 3.6 g/m*3 6.2 C 0 km/h
729 08-12-2011 01:41:01 6.3 C 3.55 g/m*3 6.3 C 0 km/h
730 08-12-2011 01:53:01 6 C 3.63 g/m*3 6 C 0 km/h
731 08-12-2011 02:05:01 6.1 C 3.65 g/m*3 6.1 C 0 km/h
732 08-12-2011 02:17:02 6.1 C 3.65 g/m*3 6.1 C 0 km/h
733 08-12-2011 02:29:02 6.2 C 3.68 g/m*3 6.2 C 0 km/h
734 08-12-2011 02:41:01 6 C 3.63 g/m*3 6 C 0 km/h
735 08-12-2011 02:54:04 5.4 C 3.7 g/m*3 5.4 C 0 km/h
736 08-12-2011 03:06:04 5.1 C 3.69 g/m*3 5.1 C 0 km/h
737 08-12-2011 03:18:04 5.1 C 3.63 g/m*3 5.1 C 0 km/h
738 08-12-2011 03:30:04 4.7 C 3.73 g/m*3 4.7 C 0 km/h
739 08-12-2011 03:42:02 4.6 C 3.77 g/m*3 4.6 C 0 km/h
740 08-12-2011 03:54:02 4.5 C 3.81 g/m*3 4.5 C 0 km/h
741 08-12-2011 04:06:02 4 C 3.81 g/m*3 4 C 0 km/h
742 08-12-2011 04:18:02 4.1 C 3.84 g/m*3 4.1 C 0 km/h
743 08-12-2011 04:30:02 3.9 C 3.85 g/m*3 3.9 C 0 km/h
744 08-12-2011 04:42:02 4.2 C 3.87 g/m*3 4.2 C 0 km/h
745 08-12-2011 04:54:02 3.7 C 3.86 g/m*3 3.7 C 0 km/h
746 08-12-2011 05:06:02 4.1 C 3.9 g/m*3 4.1 C 0 km/h
747 08-12-2011 05:18:02 3.8 C 3.95 g/m*3 3.8 C 0 km/h
748 08-12-2011 05:30:02 3.2 C 3.92 g/m*3 3.2 C 0 km/h
749 08-12-2011 05:42:01 3.1 C 3.95 g/m*3 3.1 C 0 km/h
750 08-12-2011 05:54:02 2.7 C 4.08 g/m*3 2.7 C 0 km/h
Sensor: Nr:Datum:Temp:Abs-Feuchte:Windchill:Wind:
Aussen-T/F 751 08-12-2011 06:06:01 2.8 C 4.05 g/m*3 2.8 C 0 km/h
752 08-12-2011 06:18:02 2.2 C 4.06 g/m*3 2.2 C 0 km/h
753 08-12-2011 06:30:02 2.5 C 4.14 g/m*3 2.5 C 0 km/h
754 08-12-2011 06:42:02 2.8 C 4.16 g/m*3 2.8 C 0 km/h
755 08-12-2011 06:54:02 2.6 C 4.05 g/m*3 2.6 C 0 km/h
756 08-12-2011 07:06:02 2.8 C 4.05 g/m*3 2.8 C 0 km/h
757 08-12-2011 07:18:02 3.1 C 4.07 g/m*3 3.1 C 0 km/h
758 08-12-2011 07:30:02 2.9 C 4.07 g/m*3 2.9 C 0 km/h
759 08-12-2011 07:42:02 2.9 C 4.13 g/m*3 2.9 C 0 km/h
760 08-12-2011 07:54:02 2.7 C 4.02 g/m*3 2.7 C 0 km/h
761 08-12-2011 08:06:02 2.6 C 4.05 g/m*3 2.6 C 0 km/h
762 08-12-2011 08:18:02 2.4 C 4.05 g/m*3 2.4 C 0 km/h
763 08-12-2011 08:30:02 2 C 4 g/m*3 2 C 0 km/h
764 08-12-2011 08:42:02 1.7 C 4.14 g/m*3 1.7 C 0 km/h
765 08-12-2011 08:54:01 2.9 C 4.25 g/m*3 2.9 C 0 km/h
766 08-12-2011 09:06:01 2.9 C 4.13 g/m*3 2.9 C 0 km/h
767 08-12-2011 09:18:02 2.9 C 4.07 g/m*3 2.9 C 0 km/h
768 08-12-2011 09:30:02 2.6 C 4.05 g/m*3 2.6 C 0 km/h
769 08-12-2011 09:42:01 3.1 C 4.07 g/m*3 3.1 C 0 km/h
770 08-12-2011 09:54:03 3.6 C 4.09 g/m*3 3.6 C 0 km/h
771 08-12-2011 10:06:02 3.7 C 4.11 g/m*3 3.7 C 0 km/h
772 08-12-2011 10:18:02 3.9 C 4.11 g/m*3 3.9 C 0 km/h
773 08-12-2011 10:30:02 4.1 C 4.1 g/m*3 4.1 C 0 km/h
774 08-12-2011 10:42:02 4.4 C 4.18 g/m*3 4.4 C 0 km/h
775 08-12-2011 10:54:02 4.6 C 4.17 g/m*3 4.6 C 0 km/h
Sensor: Nr:Datum:Temp:Abs-Feuchte:Windchill:Wind:
Aussen-T/F 776 08-12-2011 11:06:01 4.8 C 4.22 g/m*3 4.8 C 0 km/h
777 08-12-2011 11:18:02 4.7 C 4.26 g/m*3 4.7 C 0 km/h
778 08-12-2011 11:30:02 5 C 4.35 g/m*3 5 C 0 km/h
779 08-12-2011 11:42:02 5.1 C 4.38 g/m*3 5.1 C 0 km/h
780 08-12-2011 11:54:02 5.3 C 4.44 g/m*3 5.3 C 0 km/h
781 08-12-2011 12:06:03 5.6 C 4.52 g/m*3 5.6 C 0 km/h
782 08-12-2011 12:18:02 6 C 4.5 g/m*3 6 C 0 km/h
783 08-12-2011 12:30:02 6.3 C 4.59 g/m*3 6.3 C 0 km/h
784 08-12-2011 12:42:02 6.2 C 4.56 g/m*3 6.2 C 0 km/h
785 08-12-2011 12:54:01 6.4 C 4.69 g/m*3 6.4 C 0 km/h
786 08-12-2011 13:06:02 6.4 C 4.69 g/m*3 6.4 C 0 km/h
787 08-12-2011 13:18:01 6.2 C 4.78 g/m*3 6.2 C 0 km/h
788 08-12-2011 13:30:01 6.2 C 4.78 g/m*3 6.2 C 0 km/h
789 08-12-2011 13:42:01 6.2 C 4.78 g/m*3 6.2 C 0 km/h
790 08-12-2011 13:54:01 6.3 C 4.89 g/m*3 6.3 C 0 km/h
791 08-12-2011 14:06:02 6.6 C 4.91 g/m*3 6.6 C 0 km/h
792 08-12-2011 14:18:02 6.8 C 4.97 g/m*3 6.8 C 0 km/h
793 08-12-2011 14:30:02 6.8 C 4.97 g/m*3 6.8 C 0 km/h
794 08-12-2011 14:42:01 6.9 C 5 g/m*3 6.9 C 0 km/h
795 08-12-2011 14:54:02 7 C 4.88 g/m*3 7 C 0 km/h
796 08-12-2011 15:06:01 7.1 C 4.99 g/m*3 7.1 C 0 km/h
797 08-12-2011 15:18:02 7.2 C 4.95 g/m*3 7.2 C 0 km/h
798 08-12-2011 15:30:02 7.3 C 4.98 g/m*3 7.3 C 0 km/h
799 08-12-2011 15:42:01 7.2 C 4.95 g/m*3 7.2 C 0 km/h
800 08-12-2011 15:54:02 7.4 C 5.01 g/m*3 7.4 C 0 km/h
Sensor: Nr:Datum:Temp:Abs-Feuchte:Windchill:Wind:
Aussen-T/F 801 08-12-2011 16:06:02 7 C 4.88 g/m*3 7 C 0 km/h
802 08-12-2011 16:18:02 7.5 C 4.96 g/m*3 7.5 C 0 km/h
803 08-12-2011 16:30:02 7.6 C 4.91 g/m*3 7.6 C 0 km/h
804 08-12-2011 16:42:02 7.5 C 4.88 g/m*3 7.5 C 0 km/h
805 08-12-2011 16:54:01 7.8 C 4.98 g/m*3 7.8 C 0 km/h
806 08-12-2011 17:06:02 7.4 C 4.93 g/m*3 7.4 C 0 km/h
807 08-12-2011 17:18:01 7.6 C 4.99 g/m*3 7.6 C 0 km/h
808 08-12-2011 17:30:01 8 C 5.04 g/m*3 8 C 0 km/h
809 08-12-2011 17:42:02 8.1 C 4.99 g/m*3 8.1 C 0 km/h
810 08-12-2011 17:54:02 8.2 C 5.02 g/m*3 8.2 C 0 km/h
811 08-12-2011 18:06:02 8.6 C 5.16 g/m*3 8.6 C 0 km/h
812 08-12-2011 18:18:02 8.5 C 5.12 g/m*3 8.5 C 0 km/h
813 08-12-2011 18:30:02 8.6 C 5.16 g/m*3 8.6 C 0 km/h
814 08-12-2011 18:42:02 8.7 C 5.19 g/m*3 8.7 C 0 km/h
815 08-12-2011 18:54:02 8.9 C 5.34 g/m*3 8.9 C 0 km/h
816 08-12-2011 19:06:02 8.9 C 5.34 g/m*3 8.9 C 0 km/h
817 08-12-2011 19:18:02 9.2 C 5.45 g/m*3 9.2 C 0 km/h
818 08-12-2011 19:30:02 9.2 C 5.45 g/m*3 9.2 C 0 km/h
819 08-12-2011 19:42:02 9.4 C 5.43 g/m*3 9.4 C 0 km/h
820 08-12-2011 19:54:02 9.4 C 5.52 g/m*3 9.4 C 0 km/h
821 08-12-2011 20:06:02 9.3 C 5.48 g/m*3 9.3 C 0 km/h
822 08-12-2011 20:18:03 9.4 C 5.52 g/m*3 9.4 C 0 km/h
823 08-12-2011 20:30:03 9.6 C 5.59 g/m*3 9.6 C 0 km/h
824 08-12-2011 20:42:02 9.6 C 5.59 g/m*3 9.6 C 0 km/h
825 08-12-2011 20:54:02 9.6 C 5.68 g/m*3 9.6 C 0 km/h
Sensor: Nr:Datum:Temp:Abs-Feuchte:Windchill:Wind:
Aussen-T/F 826 08-12-2011 21:06:02 9.5 C 5.73 g/m*3 9.5 C 0 km/h
827 08-12-2011 21:18:02 9.5 C 5.83 g/m*3 9.5 C 0 km/h
828 08-12-2011 21:30:03 9.6 C 5.86 g/m*3 9.6 C 0 km/h
829 08-12-2011 21:42:02 9.6 C 5.86 g/m*3 9.6 C 0 km/h
830 08-12-2011 21:54:02 9.9 C 5.88 g/m*3 9.9 C 0 km/h
831 08-12-2011 22:06:01 10 C 5.83 g/m*3 10 C 0 km/h
832 08-12-2011 22:18:02 10 C 5.92 g/m*3 10 C 0 km/h
833 08-12-2011 22:30:02 10.1 C 5.86 g/m*3 10.1 C 0 km/h
834 08-12-2011 22:42:02 10 C 5.92 g/m*3 10 C 0 km/h
835 08-12-2011 22:54:01 10.1 C 5.96 g/m*3 10.1 C 0 km/h
836 08-12-2011 23:06:02 10.2 C 6 g/m*3 10.2 C 0 km/h
837 08-12-2011 23:18:01 10.3 C 6.03 g/m*3 10.3 C 0 km/h
838 08-12-2011 23:30:01 10.3 C 6.13 g/m*3 10.3 C 0 km/h
839 08-12-2011 23:42:02 9.6 C 6.32 g/m*3 9.6 C 0 km/h
840 08-12-2011 23:54:02 9.7 C 6.45 g/m*3 9.7 C 0 km/h
841 09-12-2011 00:06:02 10 C 6.39 g/m*3 10 C 0 km/h
842 09-12-2011 00:18:01 10 C 6.3 g/m*3 10 C 0 km/h
843 09-12-2011 00:30:01 10.1 C 6.34 g/m*3 10.1 C 0 km/h
844 09-12-2011 00:42:02 10.3 C 6.42 g/m*3 10.3 C 0 km/h
845 09-12-2011 00:54:01 10.3 C 6.32 g/m*3 10.3 C 0 km/h
846 09-12-2011 01:06:02 9.8 C 6.49 g/m*3 9.8 C 0 km/h
847 09-12-2011 01:18:02 9.7 C 6.64 g/m*3 9.7 C 0 km/h
848 09-12-2011 01:30:02 9.8 C 6.77 g/m*3 9.8 C 0 km/h
849 09-12-2011 01:42:02 9.8 C 6.68 g/m*3 9.8 C 0 km/h
850 09-12-2011 01:54:02 9.9 C 6.72 g/m*3 9.9 C 0 km/h
Sensor: Nr:Datum:Temp:Abs-Feuchte:Windchill:Wind:
Aussen-T/F 851 09-12-2011 02:06:01 10 C 6.67 g/m*3 10 C 0 km/h
852 09-12-2011 02:18:02 10.2 C 6.66 g/m*3 10.2 C 0 km/h
853 09-12-2011 02:30:02 10.2 C 6.66 g/m*3 10.2 C 0 km/h
854 09-12-2011 02:42:01 10.4 C 6.65 g/m*3 10.4 C 0 km/h
855 09-12-2011 02:55:03 10.2 C 6.66 g/m*3 10.2 C 0 km/h
856 09-12-2011 03:07:03 10 C 6.77 g/m*3 10 C 0 km/h
857 09-12-2011 03:19:03 10.1 C 6.71 g/m*3 10.1 C 0 km/h
858 09-12-2011 03:31:02 10.6 C 6.83 g/m*3 10.6 C 0 km/h
859 09-12-2011 03:43:02 10.7 C 6.68 g/m*3 10.7 C 0 km/h
860 09-12-2011 03:55:02 10.4 C 6.65 g/m*3 10.4 C 0 km/h
861 09-12-2011 04:07:02 10.3 C 6.9 g/m*3 10.3 C 0 km/h
862 09-12-2011 04:19:02 10.2 C 6.95 g/m*3 10.2 C 0 km/h
863 09-12-2011 04:31:01 10.4 C 6.84 g/m*3 10.4 C 0 km/h
864 09-12-2011 04:43:01 10.4 C 6.94 g/m*3 10.4 C 0 km/h
865 09-12-2011 04:55:02 10.5 C 6.98 g/m*3 10.5 C 0 km/h
866 09-12-2011 05:07:01 10.2 C 7.04 g/m*3 10.2 C 0 km/h
867 09-12-2011 05:19:02 10.1 C 7.09 g/m*3 10.1 C 0 km/h
868 09-12-2011 05:31:02 10 C 7.14 g/m*3 10 C 0 km/h
869 09-12-2011 05:43:02 9.7 C 7.28 g/m*3 9.7 C 0 km/h
870 09-12-2011 05:55:02 8.7 C 6.92 g/m*3 8.7 C 0 km/h
871 09-12-2011 06:07:02 8.5 C 6.83 g/m*3 8.5 C 0 km/h
872 09-12-2011 06:19:02 7.8 C 6.45 g/m*3 7.8 C 0 km/h
873 09-12-2011 06:31:02 7.1 C 5.85 g/m*3 7.1 C 0 km/h
874 09-12-2011 06:43:02 6.7 C 5.77 g/m*3 6.7 C 0 km/h
875 09-12-2011 06:55:01 6.4 C 5.74 g/m*3 6.4 C 0 km/h
Sensor: Nr:Datum:Temp:Abs-Feuchte:Windchill:Wind:
Aussen-T/F 876 09-12-2011 07:07:02 6.2 C 5.96 g/m*3 6.2 C 0 km/h
877 09-12-2011 07:19:01 6.2 C 6.1 g/m*3 6.2 C 0 km/h
878 09-12-2011 07:31:01 6.2 C 6.1 g/m*3 6.2 C 0 km/h
879 09-12-2011 07:43:01 6.2 C 5.88 g/m*3 6.2 C 0 km/h
880 09-12-2011 07:55:02 6.3 C 5.26 g/m*3 6.3 C 0 km/h
881 09-12-2011 08:07:02 6 C 5.01 g/m*3 6 C 0 km/h
882 09-12-2011 08:19:03 6 C 4.94 g/m*3 6 C 0 km/h
883 09-12-2011 08:31:02 6.1 C 4.75 g/m*3 6.1 C 0 km/h
884 09-12-2011 08:43:02 6 C 4.72 g/m*3 6 C 0 km/h
885 09-12-2011 08:55:03 5.6 C 4.81 g/m*3 5.6 C 0 km/h
886 09-12-2011 09:07:02 5.4 C 4.95 g/m*3 5.4 C 0 km/h
887 09-12-2011 09:19:02 5.6 C 4.95 g/m*3 5.6 C 0 km/h
888 09-12-2011 09:31:02 5.5 C 4.71 g/m*3 5.5 C 0 km/h
889 09-12-2011 09:43:02 5.6 C 4.67 g/m*3 5.6 C 0 km/h
890 09-12-2011 09:55:02 5.3 C 4.71 g/m*3 5.3 C 0 km/h
891 09-12-2011 10:07:01 5.5 C 4.78 g/m*3 5.5 C 0 km/h
892 09-12-2011 10:19:02 5.4 C 4.74 g/m*3 5.4 C 0 km/h
893 09-12-2011 10:31:02 5.3 C 4.78 g/m*3 5.3 C 0 km/h
894 09-12-2011 10:43:02 5.4 C 4.81 g/m*3 5.4 C 0 km/h
895 09-12-2011 10:55:02 5.2 C 4.82 g/m*3 5.2 C 0 km/h
896 09-12-2011 11:07:02 5.3 C 4.85 g/m*3 5.3 C 0 km/h
897 09-12-2011 11:19:02 5.8 C 4.87 g/m*3 5.8 C 0 km/h
898 09-12-2011 11:31:02 5.7 C 4.84 g/m*3 5.7 C 0 km/h
899 09-12-2011 11:43:03 5.7 C 4.98 g/m*3 5.7 C 0 km/h
900 09-12-2011 11:55:02 5.8 C 4.94 g/m*3 5.8 C 0 km/h
Sensor: Nr:Datum:Temp:Abs-Feuchte:Windchill:Wind:
Aussen-T/F 901 09-12-2011 12:07:02 5.6 C 4.81 g/m*3 5.6 C 0 km/h
902 09-12-2011 12:19:02 5.5 C 4.92 g/m*3 5.5 C 0 km/h
903 09-12-2011 12:31:02 5.9 C 4.76 g/m*3 5.9 C 0 km/h
904 09-12-2011 12:43:02 6.4 C 3.95 g/m*3 6.4 C 0 km/h
905 09-12-2011 12:55:02 6.3 C 3.63 g/m*3 6.3 C 0 km/h
906 09-12-2011 13:07:02 6.2 C 3.38 g/m*3 6.2 C 0 km/h
907 09-12-2011 13:19:03 6.3 C 3.48 g/m*3 6.3 C 0 km/h
908 09-12-2011 13:31:02 5.7 C 3.56 g/m*3 5.7 C 0 km/h
909 09-12-2011 13:43:02 5.7 C 3.63 g/m*3 5.7 C 0 km/h
910 09-12-2011 13:55:02 5.8 C 3.8 g/m*3 5.8 C 0 km/h
911 09-12-2011 14:07:02 5.6 C 3.82 g/m*3 5.6 C 0 km/h
912 09-12-2011 14:19:02 6 C 3.85 g/m*3 6 C 0 km/h
913 09-12-2011 14:31:02 6.2 C 3.82 g/m*3 6.2 C 0 km/h
914 09-12-2011 14:43:02 5.8 C 4.01 g/m*3 5.8 C 0 km/h
915 09-12-2011 14:55:02 5.9 C 4.04 g/m*3 5.9 C 0 km/h
916 09-12-2011 15:07:01 5.8 C 4.08 g/m*3 5.8 C 0 km/h
917 09-12-2011 15:19:02 5.7 C 4.13 g/m*3 5.7 C 0 km/h
918 09-12-2011 15:31:02 5.4 C 4.12 g/m*3 5.4 C 0 km/h
919 09-12-2011 15:43:02 5.2 C 4.13 g/m*3 5.2 C 0 km/h
920 09-12-2011 15:55:02 5.4 C 4.26 g/m*3 5.4 C 0 km/h
921 09-12-2011 16:07:03 4.5 C 4.27 g/m*3 4.5 C 0 km/h
922 09-12-2011 16:19:02 4.5 C 4.27 g/m*3 4.5 C 0 km/h
923 09-12-2011 16:31:02 4.5 C 4.34 g/m*3 4.5 C 0 km/h
924 09-12-2011 16:43:02 3.8 C 4.2 g/m*3 3.8 C 0 km/h
925 09-12-2011 16:55:01 3.5 C 4.37 g/m*3 3.5 C 0 km/h
Sensor: Nr:Datum:Temp:Abs-Feuchte:Windchill:Wind:
Aussen-T/F 926 09-12-2011 17:07:02 3 C 4.34 g/m*3 3 C 0 km/h
927 09-12-2011 17:19:01 3.2 C 4.46 g/m*3 3.2 C 0 km/h
928 09-12-2011 17:31:01 3 C 4.4 g/m*3 3 C 0 km/h
929 09-12-2011 17:43:01 3.4 C 4.52 g/m*3 3.4 C 0 km/h
930 09-12-2011 17:55:01 3.9 C 4.48 g/m*3 3.9 C 0 km/h
931 09-12-2011 18:07:01 2.5 C 4.2 g/m*3 2.5 C 0 km/h
932 09-12-2011 18:19:02 2.1 C 4.36 g/m*3 2.1 C 0 km/h
933 09-12-2011 18:31:01 2 C 4.5 g/m*3 2 C 0 km/h
934 09-12-2011 18:43:01 3.4 C 4.7 g/m*3 3.4 C 0 km/h
935 09-12-2011 18:55:02 3 C 4.28 g/m*3 3 C 0 km/h
936 09-12-2011 19:07:01 2.1 C 4.2 g/m*3 2.1 C 0 km/h
937 09-12-2011 19:19:01 2.4 C 4.4 g/m*3 2.4 C 0 km/h
938 09-12-2011 19:31:02 2.7 C 4.31 g/m*3 2.7 C 0 km/h
939 09-12-2011 19:43:02 2.2 C 4.17 g/m*3 2.2 C 0 km/h
940 09-12-2011 19:55:02 2.3 C 4.42 g/m*3 2.3 C 0 km/h
941 09-12-2011 20:07:01 2.4 C 4.45 g/m*3 2.4 C 0 km/h
942 09-12-2011 20:19:02 2.4 C 4.45 g/m*3 2.4 C 0 km/h
943 09-12-2011 20:31:02 2.9 C 4.78 g/m*3 2.9 C 0 km/h
944 09-12-2011 20:43:02 2.5 C 4.66 g/m*3 2.5 C 0 km/h
945 09-12-2011 20:55:01 2.5 C 4.71 g/m*3 2.5 C 0 km/h
946 09-12-2011 21:07:02 1.9 C 4.58 g/m*3 1.9 C 0 km/h
947 09-12-2011 21:19:01 2.7 C 4.89 g/m*3 2.7 C 0 km/h
948 09-12-2011 21:31:01 2.6 C 4.8 g/m*3 2.6 C 0 km/h
949 09-12-2011 21:43:01 2.6 C 4.86 g/m*3 2.6 C 0 km/h
950 09-12-2011 21:55:01 2.1 C 4.7 g/m*3 2.1 C 0 km/h
Sensor: Nr:Datum:Temp:Abs-Feuchte:Windchill:Wind:
Aussen-T/F 951 09-12-2011 22:07:02 2.6 C 4.98 g/m*3 2.6 C 0 km/h
952 09-12-2011 22:19:01 2.5 C 4.89 g/m*3 2.5 C 0 km/h
953 09-12-2011 22:31:01 3.1 C 5.09 g/m*3 3.1 C 0 km/h
954 09-12-2011 22:43:01 3.1 C 5.09 g/m*3 3.1 C 0 km/h
955 09-12-2011 22:55:01 2.7 C 4.95 g/m*3 2.7 C 0 km/h
956 09-12-2011 23:07:02 2.3 C 4.88 g/m*3 2.3 C 0 km/h
957 09-12-2011 23:19:02 2.3 C 4.93 g/m*3 2.3 C 0 km/h
958 09-12-2011 23:31:01 2.5 C 5 g/m*3 2.5 C 0 km/h
959 09-12-2011 23:43:01 2.3 C 4.99 g/m*3 2.3 C 0 km/h
960 09-12-2011 23:55:02 4.3 C 5.64 g/m*3 4.3 C 0 km/h
961 10-12-2011 00:07:01 4.5 C 5.39 g/m*3 4.5 C 0 km/h
962 10-12-2011 00:19:01 4.5 C 5.13 g/m*3 4.5 C 0 km/h
963 10-12-2011 00:31:02 4.4 C 5.03 g/m*3 4.4 C 0 km/h
964 10-12-2011 00:43:02 4.5 C 5 g/m*3 4.5 C 0 km/h
965 10-12-2011 00:55:02 4.6 C 4.96 g/m*3 4.6 C 0 km/h
966 10-12-2011 01:07:02 4.3 C 4.93 g/m*3 4.3 C 0 km/h
967 10-12-2011 01:19:01 4.6 C 5.1 g/m*3 4.6 C 0 km/h
968 10-12-2011 01:31:02 4.7 C 5.13 g/m*3 4.7 C 0 km/h
969 10-12-2011 01:43:02 4.8 C 5.16 g/m*3 4.8 C 0 km/h
970 10-12-2011 01:55:01 4.5 C 5.19 g/m*3 4.5 C 0 km/h
971 10-12-2011 02:07:02 4.6 C 5.1 g/m*3 4.6 C 0 km/h
972 10-12-2011 02:19:02 4.5 C 4.93 g/m*3 4.5 C 0 km/h
973 10-12-2011 02:31:01 4.5 C 4.86 g/m*3 4.5 C 0 km/h
974 10-12-2011 02:43:01 4 C 4.77 g/m*3 4 C 0 km/h
975 10-12-2011 02:56:03 3.7 C 4.74 g/m*3 3.7 C 0 km/h
Sensor: Nr:Datum:Temp:Abs-Feuchte:Windchill:Wind:
Aussen-T/F 976 10-12-2011 03:08:03 3.4 C 4.7 g/m*3 3.4 C 0 km/h
977 10-12-2011 03:20:03 3.1 C 4.73 g/m*3 3.1 C 0 km/h
978 10-12-2011 03:32:02 3.4 C 4.89 g/m*3 3.4 C 0 km/h
979 10-12-2011 03:44:02 2.6 C 4.69 g/m*3 2.6 C 0 km/h
980 10-12-2011 03:56:02 2.3 C 4.71 g/m*3 2.3 C 0 km/h
981 10-12-2011 04:08:02 2.6 C 4.86 g/m*3 2.6 C 0 km/h
982 10-12-2011 04:20:02 2.5 C 4.77 g/m*3 2.5 C 0 km/h
983 10-12-2011 04:32:02 2.1 C 4.64 g/m*3 2.1 C 0 km/h
984 10-12-2011 04:44:02 1.5 C 4.51 g/m*3 1.5 C 0 km/h
985 10-12-2011 04:56:02 2 C 4.72 g/m*3 2 C 0 km/h
986 10-12-2011 05:08:02 2.1 C 4.76 g/m*3 2.1 C 0 km/h
987 10-12-2011 05:20:02 2 C 4.72 g/m*3 2 C 0 km/h
988 10-12-2011 05:32:01 1.3 C 4.5 g/m*3 1.3 C 0 km/h
989 10-12-2011 05:44:01 1.6 C 4.7 g/m*3 1.6 C 0 km/h
990 10-12-2011 05:56:02 1.9 C 4.8 g/m*3 1.9 C 0 km/h
991 10-12-2011 06:08:01 1.5 C 4.62 g/m*3 1.5 C 0 km/h
992 10-12-2011 06:20:01 1.5 C 4.67 g/m*3 1.5 C 0 km/h
993 10-12-2011 06:32:02 1.5 C 4.67 g/m*3 1.5 C 0 km/h
994 10-12-2011 06:44:02 1.5 C 4.62 g/m*3 1.5 C 0 km/h
995 10-12-2011 06:56:02 0.4 C 4.28 g/m*3 0.4 C 0 km/h
996 10-12-2011 07:08:02 0.3 C 4.3 g/m*3 0.3 C 0 km/h
997 10-12-2011 07:20:02 0.6 C 4.44 g/m*3 0.6 C 0 km/h
998 10-12-2011 07:32:02 0.4 C 4.43 g/m*3 0.4 C 0 km/h
999 10-12-2011 07:44:02 0.5 C 4.46 g/m*3 0.5 C 0 km/h
1000 10-12-2011 07:56:02 0.5 C 4.46 g/m*3 0.5 C 0 km/h
Sensor: Nr:Datum:Temp:Abs-Feuchte:Windchill:Wind:
Aussen-T/F 1001 10-12-2011 08:08:02 0.6 C 4.49 g/m*3 0.6 C 0 km/h
1002 10-12-2011 08:20:02 0.3 C 4.35 g/m*3 0.3 C 0 km/h
1003 10-12-2011 08:32:02 0.2 C 4.32 g/m*3 0.2 C 0 km/h
1004 10-12-2011 08:44:02 0.3 C 4.4 g/m*3 0.3 C 0 km/h
1005 10-12-2011 08:56:02 0.3 C 4.35 g/m*3 0.3 C 0 km/h
1006 10-12-2011 09:08:02 0.6 C 4.49 g/m*3 0.6 C 0 km/h
1007 10-12-2011 09:20:02 1.7 C 4.79 g/m*3 1.7 C 0 km/h
1008 10-12-2011 09:32:02 1.8 C 4.6 g/m*3 1.8 C 0 km/h
1009 10-12-2011 09:44:02 1.4 C 4.43 g/m*3 1.4 C 0 km/h
1010 10-12-2011 09:56:02 1.4 C 4.43 g/m*3 1.4 C 0 km/h
1011 10-12-2011 10:08:02 2.3 C 4.54 g/m*3 2.3 C 0 km/h
1012 10-12-2011 10:20:02 2.4 C 4.4 g/m*3 2.4 C 0 km/h
1013 10-12-2011 10:32:01 2.4 C 4.34 g/m*3 2.4 C 0 km/h
1014 10-12-2011 10:44:01 2.3 C 4.31 g/m*3 2.3 C 0 km/h
1015 10-12-2011 10:56:02 2.4 C 4.23 g/m*3 2.4 C 0 km/h
1016 10-12-2011 11:08:01 2.2 C 4.17 g/m*3 2.2 C 0 km/h
1017 10-12-2011 11:20:01 2.9 C 4.19 g/m*3 2.9 C 0 km/h
1018 10-12-2011 11:32:02 2.7 C 4.14 g/m*3 2.7 C 0 km/h
1019 10-12-2011 11:44:02 3.1 C 4.19 g/m*3 3.1 C 0 km/h
1020 10-12-2011 11:56:02 3.2 C 4.16 g/m*3 3.2 C 0 km/h
1021 10-12-2011 12:08:02 3.4 C 4.03 g/m*3 3.4 C 0 km/h
1022 10-12-2011 12:20:02 3.5 C 4 g/m*3 3.5 C 0 km/h
1023 10-12-2011 12:32:02 3.5 C 4 g/m*3 3.5 C 0 km/h
1024 10-12-2011 12:44:03 3.5 C 3.94 g/m*3 3.5 C 0 km/h
1025 10-12-2011 12:56:02 3.6 C 3.96 g/m*3 3.6 C 0 km/h
Sensor: Nr:Datum:Temp:Abs-Feuchte:Windchill:Wind:
Aussen-T/F 1026 10-12-2011 13:08:02 3.5 C 3.94 g/m*3 3.5 C 0 km/h
1027 10-12-2011 13:20:02 3.5 C 4 g/m*3 3.5 C 0 km/h
1028 10-12-2011 13:32:02 3.9 C 3.98 g/m*3 3.9 C 0 km/h
1029 10-12-2011 13:44:02 3.7 C 3.68 g/m*3 3.7 C 0 km/h
1030 10-12-2011 13:56:02 3.8 C 3.58 g/m*3 3.8 C 0 km/h
1031 10-12-2011 14:08:02 3.6 C 3.84 g/m*3 3.6 C 0 km/h
1032 10-12-2011 14:20:03 3.9 C 3.79 g/m*3 3.9 C 0 km/h
1033 10-12-2011 14:32:02 4.3 C 3.5 g/m*3 4.3 C 0 km/h
1034 10-12-2011 14:44:02 4.2 C 3.48 g/m*3 4.2 C 0 km/h
1035 10-12-2011 14:56:03 4.4 C 3.66 g/m*3 4.4 C 0 km/h
1036 10-12-2011 15:08:02 5 C 3.47 g/m*3 5 C 0 km/h
1037 10-12-2011 15:20:02 5 C 3.47 g/m*3 5 C 0 km/h
1038 10-12-2011 15:32:02 5.1 C 3.42 g/m*3 5.1 C 0 km/h
1039 10-12-2011 15:44:02 5 C 3.4 g/m*3 5 C 0 km/h
1040 10-12-2011 15:56:02 4.9 C 3.38 g/m*3 4.9 C 0 km/h
1041 10-12-2011 16:08:02 4.3 C 3.31 g/m*3 4.3 C 0 km/h
1042 10-12-2011 16:20:02 3.5 C 3.44 g/m*3 3.5 C 0 km/h
1043 10-12-2011 16:32:02 3.2 C 3.5 g/m*3 3.2 C 0 km/h
1044 10-12-2011 16:44:02 3.4 C 3.48 g/m*3 3.4 C 0 km/h
1045 10-12-2011 16:56:02 2.3 C 3.46 g/m*3 2.3 C 0 km/h
1046 10-12-2011 17:08:02 2.2 C 3.66 g/m*3 2.2 C 0 km/h
1047 10-12-2011 17:20:01 1.6 C 3.73 g/m*3 1.6 C 0 km/h
1048 10-12-2011 17:32:02 0.9 C 3.81 g/m*3 0.9 C 0 km/h
1049 10-12-2011 17:44:02 0.6 C 3.84 g/m*3 0.6 C 0 km/h
1050 10-12-2011 17:56:02 0.4 C 3.88 g/m*3 0.4 C 0 km/h
Sensor: Nr:Datum:Temp:Abs-Feuchte:Windchill:Wind:
Aussen-T/F 1051 10-12-2011 18:08:02 0.3 C 3.91 g/m*3 0.3 C 0 km/h
1052 10-12-2011 18:20:01 0 C 3.88 g/m*3 0 C 0 km/h
1053 10-12-2011 18:32:02 -0.1 C 3.9 g/m*3 -0.1 C 0 km/h
1054 10-12-2011 18:44:02 0 C 3.97 g/m*3 0 C 0 km/h
1055 10-12-2011 18:56:02 -0.2 C 3.92 g/m*3 -0.2 C 0 km/h
1056 10-12-2011 19:08:02 0 C 3.97 g/m*3 0 C 0 km/h
1057 10-12-2011 19:20:02 0.1 C 4 g/m*3 0.1 C 0 km/h
1058 10-12-2011 19:32:02 0.2 C 3.98 g/m*3 0.2 C 0 km/h
1059 10-12-2011 19:44:02 0.3 C 3.91 g/m*3 0.3 C 0 km/h
1060 10-12-2011 19:56:01 -0.4 C 3.72 g/m*3 -0.4 C 0 km/h
1061 10-12-2011 20:08:02 -0.4 C 3.82 g/m*3 -0.4 C 0 km/h
1062 10-12-2011 20:20:02 -0.6 C 3.81 g/m*3 -0.6 C 0 km/h
1063 10-12-2011 20:32:02 -0.8 C 3.8 g/m*3 -0.8 C 0 km/h
1064 10-12-2011 20:44:02 -0.5 C 3.88 g/m*3 -0.5 C 0 km/h
1065 10-12-2011 20:56:02 -0.5 C 3.88 g/m*3 -0.5 C 0 km/h
1066 10-12-2011 21:08:01 -0.7 C 3.88 g/m*3 -0.7 C 0 km/h
1067 10-12-2011 21:20:02 -0.6 C 3.9 g/m*3 -0.6 C 0 km/h
1068 10-12-2011 21:32:02 -0.6 C 3.9 g/m*3 -0.6 C 0 km/h
1069 10-12-2011 21:44:02 -0.6 C 3.86 g/m*3 -0.6 C 0 km/h
1070 10-12-2011 21:56:01 -0.4 C 3.86 g/m*3 -0.4 C 0 km/h
1071 10-12-2011 22:08:02 -1 C 3.66 g/m*3 -1 C 0 km/h
1072 10-12-2011 22:20:01 -1.1 C 3.68 g/m*3 -1.1 C 0 km/h
1073 10-12-2011 22:32:02 -1.9 C 3.52 g/m*3 -1.9 C 0 km/h
1074 10-12-2011 22:44:02 -1.1 C 3.77 g/m*3 -1.1 C 0 km/h
1075 10-12-2011 22:56:02 -1.5 C 3.71 g/m*3 -1.5 C 0 km/h
Sensor: Nr:Datum:Temp:Abs-Feuchte:Windchill:Wind:
Aussen-T/F 1076 10-12-2011 23:08:02 -1.5 C 3.71 g/m*3 -1.5 C 0 km/h
1077 10-12-2011 23:20:01 -2 C 3.58 g/m*3 -2 C 0 km/h
1078 10-12-2011 23:32:02 -1.6 C 3.73 g/m*3 -1.6 C 0 km/h
1079 10-12-2011 23:44:02 -2.3 C 3.55 g/m*3 -2.3 C 0 km/h
1080 10-12-2011 23:56:02 -2.3 C 3.55 g/m*3 -2.3 C 0 km/h
1081 11-12-2011 00:08:02 -2.4 C 3.52 g/m*3 -2.4 C 0 km/h
1082 11-12-2011 00:20:02 -2.5 C 3.54 g/m*3 -2.5 C 0 km/h
1083 11-12-2011 00:32:02 -2 C 3.71 g/m*3 -2 C 0 km/h
1084 11-12-2011 00:44:02 -1.8 C 3.76 g/m*3 -1.8 C 0 km/h
1085 11-12-2011 00:56:02 -2.3 C 3.63 g/m*3 -2.3 C 0 km/h
1086 11-12-2011 01:08:02 -2.5 C 3.58 g/m*3 -2.5 C 0 km/h
1087 11-12-2011 01:20:02 -2.7 C 3.53 g/m*3 -2.7 C 0 km/h
1088 11-12-2011 01:32:02 -2.3 C 3.63 g/m*3 -2.3 C 0 km/h
1089 11-12-2011 01:44:02 -2.6 C 3.56 g/m*3 -2.6 C 0 km/h
1090 11-12-2011 01:56:01 -2.3 C 3.67 g/m*3 -2.3 C 0 km/h
1091 11-12-2011 02:08:01 -2.7 C 3.57 g/m*3 -2.7 C 0 km/h
1092 11-12-2011 02:20:02 -3.1 C 3.43 g/m*3 -3.1 C 0 km/h
1093 11-12-2011 02:32:01 -3.4 C 3.4 g/m*3 -3.4 C 0 km/h
1094 11-12-2011 02:44:01 -3.5 C 3.37 g/m*3 -3.5 C 0 km/h
1095 11-12-2011 02:56:01 -3.4 C 3.4 g/m*3 -3.4 C 0 km/h
1096 11-12-2011 03:08:01 -3.7 C 3.33 g/m*3 -3.7 C 0 km/h
1097 11-12-2011 03:20:01 -3.1 C 3.47 g/m*3 -3.1 C 0 km/h
1098 11-12-2011 03:32:01 -2.8 C 3.55 g/m*3 -2.8 C 0 km/h
1099 11-12-2011 03:44:01 -3 C 3.5 g/m*3 -3 C 0 km/h
1100 11-12-2011 03:56:01 -2.8 C 3.59 g/m*3 -2.8 C 0 km/h
Sensor: Nr:Datum:Temp:Abs-Feuchte:Windchill:Wind:
Aussen-T/F 1101 11-12-2011 04:08:01 -2.2 C 3.74 g/m*3 -2.2 C 0 km/h
1102 11-12-2011 04:20:01 -1.9 C 3.86 g/m*3 -1.9 C 0 km/h
1103 11-12-2011 04:32:01 -1.8 C 3.89 g/m*3 -1.8 C 0 km/h
1104 11-12-2011 04:44:01 -1.5 C 3.97 g/m*3 -1.5 C 0 km/h
1105 11-12-2011 04:56:01 -1.3 C 4.03 g/m*3 -1.3 C 0 km/h
1106 11-12-2011 05:08:01 -1 C 4.16 g/m*3 -1 C 0 km/h
1107 11-12-2011 05:20:02 -1 C 4.16 g/m*3 -1 C 0 km/h
1108 11-12-2011 05:32:01 -0.9 C 4.19 g/m*3 -0.9 C 0 km/h
1109 11-12-2011 05:44:01 -1 C 4.16 g/m*3 -1 C 0 km/h
1110 11-12-2011 05:56:02 -1.4 C 4 g/m*3 -1.4 C 0 km/h
1111 11-12-2011 06:08:01 -1.5 C 3.97 g/m*3 -1.5 C 0 km/h
1112 11-12-2011 06:20:01 -1.2 C 4.06 g/m*3 -1.2 C 0 km/h
1113 11-12-2011 06:32:02 -1.6 C 3.94 g/m*3 -1.6 C 0 km/h
1114 11-12-2011 06:44:02 -1.8 C 3.89 g/m*3 -1.8 C 0 km/h
1115 11-12-2011 06:56:01 -2.6 C 3.64 g/m*3 -2.6 C 0 km/h
1116 11-12-2011 07:08:01 -2.9 C 3.56 g/m*3 -2.9 C 0 km/h
1117 11-12-2011 07:20:01 -2.4 C 3.69 g/m*3 -2.4 C 0 km/h
1118 11-12-2011 07:32:02 -2.2 C 3.74 g/m*3 -2.2 C 0 km/h
1119 11-12-2011 07:44:02 -1.9 C 3.86 g/m*3 -1.9 C 0 km/h
1120 11-12-2011 07:56:01 -2.3 C 3.76 g/m*3 -2.3 C 0 km/h
1121 11-12-2011 08:08:02 -2.7 C 3.65 g/m*3 -2.7 C 0 km/h
1122 11-12-2011 08:20:01 -2.7 C 3.65 g/m*3 -2.7 C 0 km/h
1123 11-12-2011 08:32:01 -2.8 C 3.59 g/m*3 -2.8 C 0 km/h
1124 11-12-2011 08:44:01 -2.5 C 3.7 g/m*3 -2.5 C 0 km/h
1125 11-12-2011 08:56:01 -2.2 C 3.78 g/m*3 -2.2 C 0 km/h
Sensor: Nr:Datum:Temp:Abs-Feuchte:Windchill:Wind:
Aussen-T/F 1126 11-12-2011 09:08:01 -2.4 C 3.73 g/m*3 -2.4 C 0 km/h
1127 11-12-2011 09:20:01 -2.4 C 3.73 g/m*3 -2.4 C 0 km/h
1128 11-12-2011 09:32:01 -2.2 C 3.78 g/m*3 -2.2 C 0 km/h
1129 11-12-2011 09:44:01 -1.9 C 3.86 g/m*3 -1.9 C 0 km/h
1130 11-12-2011 09:56:01 -1.6 C 3.94 g/m*3 -1.6 C 0 km/h
1131 11-12-2011 10:08:01 -1.6 C 3.94 g/m*3 -1.6 C 0 km/h
1132 11-12-2011 10:20:02 -1.6 C 3.94 g/m*3 -1.6 C 0 km/h
1133 11-12-2011 10:32:01 -0.6 C 4.28 g/m*3 -0.6 C 0 km/h
1134 11-12-2011 10:44:01 -0.6 C 4.28 g/m*3 -0.6 C 0 km/h
1135 11-12-2011 10:56:02 0.3 C 4.55 g/m*3 0.3 C 0 km/h
1136 11-12-2011 11:08:01 0.3 C 4.55 g/m*3 0.3 C 0 km/h
1137 11-12-2011 11:20:01 0.5 C 4.56 g/m*3 0.5 C 0 km/h
1138 11-12-2011 11:32:01 0.8 C 4.66 g/m*3 0.8 C 0 km/h
1139 11-12-2011 11:44:01 1.7 C 4.95 g/m*3 1.7 C 0 km/h
1140 11-12-2011 11:56:02 2.2 C 5.01 g/m*3 2.2 C 0 km/h
1141 11-12-2011 12:08:01 2.3 C 4.93 g/m*3 2.3 C 0 km/h
1142 11-12-2011 12:20:01 2.6 C 4.8 g/m*3 2.6 C 0 km/h
1143 11-12-2011 12:32:02 2.8 C 4.63 g/m*3 2.8 C 0 km/h
1144 11-12-2011 12:44:02 3 C 4.46 g/m*3 3 C 0 km/h
1145 11-12-2011 12:56:01 3 C 4.4 g/m*3 3 C 0 km/h
1146 11-12-2011 13:08:01 2.9 C 4.43 g/m*3 2.9 C 0 km/h
1147 11-12-2011 13:20:01 3 C 4.52 g/m*3 3 C 0 km/h
1148 11-12-2011 13:32:02 3.3 C 4.61 g/m*3 3.3 C 0 km/h
1149 11-12-2011 13:44:02 3.6 C 4.64 g/m*3 3.6 C 0 km/h
1150 11-12-2011 13:56:01 3.6 C 4.58 g/m*3 3.6 C 0 km/h
Sensor: Nr:Datum:Temp:Abs-Feuchte:Windchill:Wind:
Aussen-T/F 1151 11-12-2011 14:08:02 3.6 C 4.64 g/m*3 3.6 C 0 km/h
1152 11-12-2011 14:20:01 3.5 C 4.55 g/m*3 3.5 C 0 km/h
1153 11-12-2011 14:32:01 3.4 C 4.46 g/m*3 3.4 C 0 km/h
1154 11-12-2011 14:44:01 3 C 4.52 g/m*3 3 C 0 km/h
1155 11-12-2011 14:56:01 2.7 C 4.54 g/m*3 2.7 C 0 km/h
1156 11-12-2011 15:08:02 2.5 C 4.54 g/m*3 2.5 C 0 km/h
1157 11-12-2011 15:20:01 2.3 C 4.54 g/m*3 2.3 C 0 km/h
1158 11-12-2011 15:32:01 2.2 C 4.56 g/m*3 2.2 C 0 km/h
1159 11-12-2011 15:44:01 2 C 4.5 g/m*3 2 C 0 km/h
1160 11-12-2011 15:56:01 1.6 C 4.43 g/m*3 1.6 C 0 km/h
1161 11-12-2011 16:08:01 1.1 C 4.34 g/m*3 1.1 C 0 km/h
1162 11-12-2011 16:20:02 0.6 C 4.24 g/m*3 0.6 C 0 km/h
1163 11-12-2011 16:32:01 0.5 C 4.26 g/m*3 0.5 C 0 km/h
1164 11-12-2011 16:44:01 0.5 C 4.26 g/m*3 0.5 C 0 km/h
1165 11-12-2011 16:56:02 0.7 C 4.37 g/m*3 0.7 C 0 km/h
1166 11-12-2011 17:08:01 1.4 C 4.64 g/m*3 1.4 C 0 km/h
1167 11-12-2011 17:20:01 1.7 C 4.74 g/m*3 1.7 C 0 km/h
1168 11-12-2011 17:32:01 1.8 C 4.71 g/m*3 1.8 C 0 km/h
1169 11-12-2011 17:44:01 2 C 4.67 g/m*3 2 C 0 km/h
1170 11-12-2011 17:56:01 2.5 C 4.48 g/m*3 2.5 C 0 km/h
1171 11-12-2011 18:08:01 3 C 4.22 g/m*3 3 C 0 km/h
1172 11-12-2011 18:20:01 3.1 C 4.01 g/m*3 3.1 C 0 km/h
1173 11-12-2011 18:32:02 2.5 C 3.97 g/m*3 2.5 C 0 km/h
1174 11-12-2011 18:44:02 3.1 C 3.95 g/m*3 3.1 C 0 km/h
1175 11-12-2011 18:56:01 2.5 C 3.97 g/m*3 2.5 C 0 km/h
Sensor: Nr:Datum:Temp:Abs-Feuchte:Windchill:Wind:
Aussen-T/F 1176 11-12-2011 19:08:02 2.6 C 4.11 g/m*3 2.6 C 0 km/h
1177 11-12-2011 19:20:01 3.2 C 4.04 g/m*3 3.2 C 0 km/h
1178 11-12-2011 19:32:01 3.2 C 4.04 g/m*3 3.2 C 0 km/h
1179 11-12-2011 19:44:01 3.2 C 3.98 g/m*3 3.2 C 0 km/h
1180 11-12-2011 19:56:01 3.2 C 4.1 g/m*3 3.2 C 0 km/h
1181 11-12-2011 20:08:01 3.3 C 4 g/m*3 3.3 C 0 km/h
1182 11-12-2011 20:20:01 3.4 C 4.03 g/m*3 3.4 C 0 km/h
1183 11-12-2011 20:32:01 3.3 C 4.06 g/m*3 3.3 C 0 km/h
1184 11-12-2011 20:44:01 3.1 C 4.19 g/m*3 3.1 C 0 km/h
1185 11-12-2011 20:56:01 3.5 C 4.18 g/m*3 3.5 C 0 km/h
1186 11-12-2011 21:08:01 3.5 C 4.12 g/m*3 3.5 C 0 km/h
1187 11-12-2011 21:20:02 3.1 C 4.01 g/m*3 3.1 C 0 km/h
1188 11-12-2011 21:32:01 2.4 C 4.05 g/m*3 2.4 C 0 km/h
1189 11-12-2011 21:44:01 3.2 C 4.22 g/m*3 3.2 C 0 km/h
1190 11-12-2011 21:56:02 3.3 C 4.25 g/m*3 3.3 C 0 km/h
1191 11-12-2011 22:08:02 3.3 C 4.31 g/m*3 3.3 C 0 km/h
1192 11-12-2011 22:20:01 3.1 C 4.37 g/m*3 3.1 C 0 km/h
1193 11-12-2011 22:32:01 3 C 4.58 g/m*3 3 C 0 km/h
1194 11-12-2011 22:44:01 2.9 C 4.72 g/m*3 2.9 C 0 km/h
1195 11-12-2011 22:56:01 3 C 4.76 g/m*3 3 C 0 km/h
1196 11-12-2011 23:08:01 3.1 C 4.85 g/m*3 3.1 C 0 km/h
1197 11-12-2011 23:20:01 3.2 C 5 g/m*3 3.2 C 0 km/h
1198 11-12-2011 23:32:01 3.4 C 5.07 g/m*3 3.4 C 0 km/h
1199 11-12-2011 23:44:01 3.6 C 5.2 g/m*3 3.6 C 0 km/h
1200 11-12-2011 23:56:01 3.7 C 5.23 g/m*3 3.7 C 0 km/h
Sensor: Nr:Datum:Temp:Abs-Feuchte:Windchill:Wind:
Aussen-T/F 1201 12-12-2011 00:08:01 4.1 C 5.38 g/m*3 4.1 C 0 km/h
1202 12-12-2011 00:20:02 4.3 C 5.45 g/m*3 4.3 C 0 km/h
1203 12-12-2011 00:32:01 4.6 C 5.43 g/m*3 4.6 C 0 km/h
1204 12-12-2011 00:44:01 4.6 C 5.36 g/m*3 4.6 C 0 km/h
1205 12-12-2011 00:56:02 4.8 C 5.36 g/m*3 4.8 C 0 km/h
1206 12-12-2011 01:08:01 4.7 C 5.33 g/m*3 4.7 C 0 km/h
1207 12-12-2011 01:20:01 4.7 C 5.4 g/m*3 4.7 C 0 km/h
1208 12-12-2011 01:44:01 4.9 C 5.54 g/m*3 4.9 C 0 km/h
1209 12-12-2011 01:44:01 4.8 C 5.57 g/m*3 4.8 C 0 km/h
1210 12-12-2011 01:44:01 4.9 C 5.54 g/m*3 4.9 C 0 km/h
1211 12-12-2011 01:44:01 4.8 C 5.57 g/m*3 4.8 C 0 km/h
1212 12-12-2011 01:56:01 4.9 C 5.6 g/m*3 4.9 C 0 km/h
1213 12-12-2011 02:08:01 5.2 C 5.65 g/m*3 5.2 C 0 km/h
1214 12-12-2011 02:20:01 5.2 C 5.65 g/m*3 5.2 C 0 km/h
1215 12-12-2011 02:32:02 5.6 C 5.73 g/m*3 5.6 C 0 km/h
1216 12-12-2011 02:44:02 5.9 C 5.77 g/m*3 5.9 C 0 km/h
1217 12-12-2011 02:57:02 6 C 5.73 g/m*3 6 C 0 km/h
1218 12-12-2011 03:09:02 5.8 C 5.73 g/m*3 5.8 C 0 km/h
1219 12-12-2011 03:21:03 6 C 5.81 g/m*3 6 C 0 km/h
1220 12-12-2011 03:33:02 5.9 C 5.84 g/m*3 5.9 C 0 km/h
1221 12-12-2011 03:45:03 5.9 C 5.84 g/m*3 5.9 C 0 km/h
1222 12-12-2011 03:57:03 5.8 C 5.8 g/m*3 5.8 C 0 km/h
1223 12-12-2011 04:09:02 5.7 C 5.84 g/m*3 5.7 C 0 km/h
1224 12-12-2011 04:21:02 5.6 C 5.87 g/m*3 5.6 C 0 km/h
1225 12-12-2011 04:33:02 5.7 C 5.98 g/m*3 5.7 C 0 km/h
Sensor: Nr:Datum:Temp:Abs-Feuchte:Windchill:Wind:
Aussen-T/F 1226 12-12-2011 04:45:01 6.2 C 6.18 g/m*3 6.2 C 0 km/h
1227 12-12-2011 04:57:01 6.9 C 6.47 g/m*3 6.9 C 0 km/h
1228 12-12-2011 05:09:02 7 C 6.28 g/m*3 7 C 0 km/h
1229 12-12-2011 05:21:01 7 C 6.28 g/m*3 7 C 0 km/h
1230 12-12-2011 05:33:01 7.3 C 6.32 g/m*3 7.3 C 0 km/h
1231 12-12-2011 05:45:01 7.5 C 6.32 g/m*3 7.5 C 0 km/h
1232 12-12-2011 05:57:01 7.4 C 6.28 g/m*3 7.4 C 0 km/h
1233 12-12-2011 06:09:02 7.1 C 6.16 g/m*3 7.1 C 0 km/h
1234 12-12-2011 06:21:01 7 C 6.2 g/m*3 7 C 0 km/h
1235 12-12-2011 06:33:01 6.6 C 6.11 g/m*3 6.6 C 0 km/h
1236 12-12-2011 06:45:01 6.4 C 6.18 g/m*3 6.4 C 0 km/h
1237 12-12-2011 06:57:01 6.2 C 6.18 g/m*3 6.2 C 0 km/h
1238 12-12-2011 07:09:02 6.5 C 6.45 g/m*3 6.5 C 0 km/h
1239 12-12-2011 07:21:01 6.8 C 6.58 g/m*3 6.8 C 0 km/h
1240 12-12-2011 07:33:01 6.8 C 6.58 g/m*3 6.8 C 0 km/h
1241 12-12-2011 07:45:01 7.1 C 6.63 g/m*3 7.1 C 0 km/h
1242 12-12-2011 07:57:01 7.2 C 6.67 g/m*3 7.2 C 0 km/h
1243 12-12-2011 08:09:01 7.3 C 6.79 g/m*3 7.3 C 0 km/h
1244 12-12-2011 08:21:02 7.3 C 6.79 g/m*3 7.3 C 0 km/h
1245 12-12-2011 08:33:01 7.2 C 6.75 g/m*3 7.2 C 0 km/h
1246 12-12-2011 08:45:03 7.1 C 6.71 g/m*3 7.1 C 0 km/h
1247 12-12-2011 08:57:03 7.1 C 6.79 g/m*3 7.1 C 0 km/h
1248 12-12-2011 09:09:02 7.1 C 6.79 g/m*3 7.1 C 0 km/h
1249 12-12-2011 09:21:02 7.5 C 7.04 g/m*3 7.5 C 0 km/h
1250 12-12-2011 09:33:03 7.8 C 6.86 g/m*3 7.8 C 0 km/h
Sensor: Nr:Datum:Temp:Abs-Feuchte:Windchill:Wind:
Aussen-T/F 1251 12-12-2011 09:45:02 7.5 C 6.64 g/m*3 7.5 C 0 km/h
1252 12-12-2011 09:57:03 7.5 C 6.72 g/m*3 7.5 C 0 km/h
1253 12-12-2011 10:09:01 7.2 C 6.59 g/m*3 7.2 C 0 km/h
1254 12-12-2011 10:21:02 7.3 C 6.72 g/m*3 7.3 C 0 km/h
1255 12-12-2011 10:33:02 7.5 C 6.8 g/m*3 7.5 C 0 km/h
1256 12-12-2011 10:45:02 7.6 C 6.77 g/m*3 7.6 C 0 km/h
1257 12-12-2011 10:57:02 7.7 C 6.81 g/m*3 7.7 C 0 km/h
1258 12-12-2011 11:09:02 7.9 C 6.74 g/m*3 7.9 C 0 km/h
1259 12-12-2011 11:21:02 7.9 C 6.57 g/m*3 7.9 C 0 km/h
1260 12-12-2011 11:33:02 7.9 C 6.57 g/m*3 7.9 C 0 km/h
1261 12-12-2011 11:45:01 7.7 C 6.49 g/m*3 7.7 C 0 km/h
1262 12-12-2011 11:57:01 7.8 C 6.61 g/m*3 7.8 C 0 km/h
1263 12-12-2011 12:09:01 7.8 C 6.45 g/m*3 7.8 C 0 km/h
1264 12-12-2011 12:21:01 7.2 C 5.97 g/m*3 7.2 C 0 km/h
1265 12-12-2011 12:33:01 7.1 C 5.69 g/m*3 7.1 C 0 km/h
1266 12-12-2011 12:45:02 7.2 C 5.73 g/m*3 7.2 C 0 km/h
1267 12-12-2011 12:57:02 7.5 C 5.6 g/m*3 7.5 C 0 km/h
1268 12-12-2011 13:09:02 7.9 C 5.5 g/m*3 7.9 C 0 km/h
1269 12-12-2011 13:21:03 8.3 C 5.48 g/m*3 8.3 C 0 km/h
1270 12-12-2011 13:33:02 7.7 C 5.35 g/m*3 7.7 C 0 km/h
1271 12-12-2011 13:45:02 7.8 C 5.55 g/m*3 7.8 C 0 km/h
1272 12-12-2011 13:57:02 8.1 C 5.49 g/m*3 8.1 C 0 km/h
1273 12-12-2011 14:09:02 8.2 C 5.28 g/m*3 8.2 C 0 km/h
1274 12-12-2011 14:21:02 8.1 C 5.24 g/m*3 8.1 C 0 km/h
1275 12-12-2011 14:33:02 7.9 C 5.17 g/m*3 7.9 C 0 km/h
Sensor: Nr:Datum:Temp:Abs-Feuchte:Windchill:Wind:
Aussen-T/F 1276 12-12-2011 14:45:02 8.4 C 4.92 g/m*3 8.4 C 0 km/h
1277 12-12-2011 14:57:02 7.7 C 4.62 g/m*3 7.7 C 0 km/h
1278 12-12-2011 15:09:01 7.3 C 4.74 g/m*3 7.3 C 0 km/h
1279 12-12-2011 15:21:02 6.9 C 4.7 g/m*3 6.9 C 0 km/h
1280 12-12-2011 15:33:02 6.6 C 4.68 g/m*3 6.6 C 0 km/h
1281 12-12-2011 15:45:02 6.3 C 4.59 g/m*3 6.3 C 0 km/h
1282 12-12-2011 15:57:02 6.3 C 4.59 g/m*3 6.3 C 0 km/h
1283 12-12-2011 16:09:02 6.2 C 4.56 g/m*3 6.2 C 0 km/h
1284 12-12-2011 16:21:02 5.7 C 4.55 g/m*3 5.7 C 0 km/h
1285 12-12-2011 16:33:02 5.5 C 4.35 g/m*3 5.5 C 0 km/h
1286 12-12-2011 16:45:01 5.4 C 4.4 g/m*3 5.4 C 0 km/h
1287 12-12-2011 16:57:01 4.5 C 4.34 g/m*3 4.5 C 0 km/h
1288 12-12-2011 17:09:02 4 C 4.51 g/m*3 4 C 0 km/h
1289 12-12-2011 17:21:01 3.8 C 4.52 g/m*3 3.8 C 0 km/h
1290 12-12-2011 17:33:01 3.1 C 4.55 g/m*3 3.1 C 0 km/h
1291 12-12-2011 17:45:01 2.5 C 4.48 g/m*3 2.5 C 0 km/h
1292 12-12-2011 17:57:01 2.1 C 4.53 g/m*3 2.1 C 0 km/h
1293 12-12-2011 18:09:01 2.3 C 4.71 g/m*3 2.3 C 0 km/h
1294 12-12-2011 18:21:25 2.2 C 4.73 g/m*3 2.2 C 0 km/h
1295 12-12-2011 18:33:25 3 C 4.93 g/m*3 3 C 0 km/h
1296 12-12-2011 18:45:25 3.3 C 4.91 g/m*3 3.3 C 0 km/h
1297 12-12-2011 18:57:25 3.1 C 4.79 g/m*3 3.1 C 0 km/h
1298 12-12-2011 19:09:25 3.9 C 4.93 g/m*3 3.9 C 0 km/h
1299 12-12-2011 19:21:25 5.1 C 4.86 g/m*3 5.1 C 0 km/h
1300 12-12-2011 19:33:25 5.2 C 4.89 g/m*3 5.2 C 0 km/h
Sensor: Nr:Datum:Temp:Abs-Feuchte:Windchill:Wind:
Aussen-T/F 1301 12-12-2011 19:45:25 4.8 C 4.83 g/m*3 4.8 C 0 km/h
1302 12-12-2011 19:57:25 4.7 C 4.93 g/m*3 4.7 C 0 km/h
1303 12-12-2011 20:09:25 4.5 C 4.93 g/m*3 4.5 C 0 km/h
1304 12-12-2011 20:21:25 3.8 C 4.83 g/m*3 3.8 C 0 km/h
1305 12-12-2011 20:33:25 3.3 C 4.79 g/m*3 3.3 C 0 km/h
1306 12-12-2011 20:45:25 2.7 C 4.78 g/m*3 2.7 C 0 km/h
1307 12-12-2011 20:57:25 4.1 C 5.25 g/m*3 4.1 C 0 km/h
1308 12-12-2011 21:09:02 4.5 C 5.32 g/m*3 4.5 C 0 km/h
1309 12-12-2011 21:21:02 4.9 C 5.2 g/m*3 4.9 C 0 km/h
1310 12-12-2011 21:33:02 4.6 C 5.03 g/m*3 4.6 C 0 km/h
1311 12-12-2011 21:45:01 4.6 C 5.1 g/m*3 4.6 C 0 km/h
1312 12-12-2011 21:57:01 4.7 C 5 g/m*3 4.7 C 0 km/h
1313 12-12-2011 22:09:02 5.5 C 4.99 g/m*3 5.5 C 0 km/h
1314 12-12-2011 22:21:02 5.8 C 4.87 g/m*3 5.8 C 0 km/h
1315 12-12-2011 22:33:01 5.1 C 4.79 g/m*3 5.1 C 0 km/h
1316 12-12-2011 22:45:02 5 C 4.96 g/m*3 5 C 0 km/h
1317 12-12-2011 22:57:02 4.8 C 4.9 g/m*3 4.8 C 0 km/h
1318 12-12-2011 23:09:01 5.3 C 4.99 g/m*3 5.3 C 0 km/h
1319 12-12-2011 23:21:02 5.6 C 4.95 g/m*3 5.6 C 0 km/h
1320 12-12-2011 23:33:01 6.1 C 4.75 g/m*3 6.1 C 0 km/h
1321 12-12-2011 23:45:02 6.2 C 4.71 g/m*3 6.2 C 0 km/h
1322 12-12-2011 23:57:03 6.5 C 4.65 g/m*3 6.5 C 0 km/h
1323 13-12-2011 00:09:02 6.1 C 4.68 g/m*3 6.1 C 0 km/h
1324 13-12-2011 00:21:02 6.3 C 4.59 g/m*3 6.3 C 0 km/h
1325 13-12-2011 00:33:02 6 C 4.57 g/m*3 6 C 0 km/h
Sensor: Nr:Datum:Temp:Abs-Feuchte:Windchill:Wind:
Aussen-T/F 1326 13-12-2011 00:45:01 5.4 C 4.54 g/m*3 5.4 C 0 km/h
1327 13-12-2011 00:57:01 5 C 4.55 g/m*3 5 C 0 km/h
1328 13-12-2011 01:09:02 4.3 C 4.61 g/m*3 4.3 C 0 km/h
1329 13-12-2011 01:21:01 4.7 C 4.73 g/m*3 4.7 C 0 km/h
1330 13-12-2011 01:33:01 5 C 4.62 g/m*3 5 C 0 km/h
1331 13-12-2011 01:45:01 4.9 C 4.59 g/m*3 4.9 C 0 km/h
1332 13-12-2011 01:57:01 4.6 C 4.63 g/m*3 4.6 C 0 km/h
1333 13-12-2011 02:09:01 5 C 4.48 g/m*3 5 C 0 km/h
1334 13-12-2011 02:21:02 5.1 C 4.38 g/m*3 5.1 C 0 km/h
1335 13-12-2011 02:33:01 4.9 C 4.39 g/m*3 4.9 C 0 km/h
1336 13-12-2011 02:45:02 5.1 C 4.31 g/m*3 5.1 C 0 km/h
1337 13-12-2011 02:57:02 5 C 4.28 g/m*3 5 C 0 km/h
1338 13-12-2011 03:09:02 5 C 4.28 g/m*3 5 C 0 km/h
1339 13-12-2011 03:21:01 5 C 4.28 g/m*3 5 C 0 km/h
1340 13-12-2011 03:33:01 5 C 4.28 g/m*3 5 C 0 km/h
1341 13-12-2011 03:45:01 4.9 C 4.32 g/m*3 4.9 C 0 km/h
1342 13-12-2011 03:57:01 4.9 C 4.25 g/m*3 4.9 C 0 km/h
1343 13-12-2011 04:09:01 4.6 C 4.23 g/m*3 4.6 C 0 km/h
1344 13-12-2011 04:21:02 4.9 C 4.32 g/m*3 4.9 C 0 km/h
1345 13-12-2011 04:33:01 5.1 C 4.24 g/m*3 5.1 C 0 km/h
1346 13-12-2011 04:45:02 5.2 C 4.27 g/m*3 5.2 C 0 km/h
1347 13-12-2011 04:57:02 5.6 C 4.24 g/m*3 5.6 C 0 km/h
1348 13-12-2011 05:09:01 5.4 C 4.33 g/m*3 5.4 C 0 km/h
1349 13-12-2011 05:21:02 4.9 C 4.52 g/m*3 4.9 C 0 km/h
1350 13-12-2011 05:33:01 4.2 C 4.7 g/m*3 4.2 C 0 km/h
Sensor: Nr:Datum:Temp:Abs-Feuchte:Windchill:Wind:
Aussen-T/F 1351 13-12-2011 05:45:02 4 C 4.77 g/m*3 4 C 0 km/h
1352 13-12-2011 05:57:02 4 C 4.9 g/m*3 4 C 0 km/h
1353 13-12-2011 06:09:01 3.9 C 4.99 g/m*3 3.9 C 0 km/h
1354 13-12-2011 06:21:01 4.3 C 5.06 g/m*3 4.3 C 0 km/h
1355 13-12-2011 06:33:02 4.1 C 4.93 g/m*3 4.1 C 0 km/h
1356 13-12-2011 06:45:01 4.2 C 5.09 g/m*3 4.2 C 0 km/h
1357 13-12-2011 06:57:01 4.4 C 5.09 g/m*3 4.4 C 0 km/h
1358 13-12-2011 07:09:02 4.3 C 4.99 g/m*3 4.3 C 0 km/h
1359 13-12-2011 07:21:01 4.3 C 5.06 g/m*3 4.3 C 0 km/h
1360 13-12-2011 07:33:02 4.6 C 5.1 g/m*3 4.6 C 0 km/h
1361 13-12-2011 07:45:01 5 C 5.03 g/m*3 5 C 0 km/h
1362 13-12-2011 07:57:01 5.2 C 5.03 g/m*3 5.2 C 0 km/h
1363 13-12-2011 08:09:02 5.2 C 5.03 g/m*3 5.2 C 0 km/h
1364 13-12-2011 08:21:01 5.2 C 5.1 g/m*3 5.2 C 0 km/h
1365 13-12-2011 08:33:01 5.3 C 5.13 g/m*3 5.3 C 0 km/h
1366 13-12-2011 08:45:01 5.4 C 5.16 g/m*3 5.4 C 0 km/h
1367 13-12-2011 08:57:01 5.7 C 5.12 g/m*3 5.7 C 0 km/h
1368 13-12-2011 09:09:01 5.9 C 5.19 g/m*3 5.9 C 0 km/h
1369 13-12-2011 09:21:02 5.8 C 5.3 g/m*3 5.8 C 0 km/h
1370 13-12-2011 09:33:01 5.9 C 5.41 g/m*3 5.9 C 0 km/h
1371 13-12-2011 09:45:02 6.2 C 5.37 g/m*3 6.2 C 0 km/h
1372 13-12-2011 09:57:02 6.5 C 5.4 g/m*3 6.5 C 0 km/h
1373 13-12-2011 10:09:01 6.8 C 5.43 g/m*3 6.8 C 0 km/h
1374 13-12-2011 10:21:02 7.1 C 5.38 g/m*3 7.1 C 0 km/h
1375 13-12-2011 10:33:01 7.2 C 5.42 g/m*3 7.2 C 0 km/h
Sensor: Nr:Datum:Temp:Abs-Feuchte:Windchill:Wind:
Aussen-T/F 1376 13-12-2011 10:45:02 7.5 C 5.44 g/m*3 7.5 C 0 km/h
1377 13-12-2011 10:57:02 8 C 5.54 g/m*3 8 C 0 km/h
1378 13-12-2011 11:09:01 9.1 C 5.77 g/m*3 9.1 C 0 km/h
1379 13-12-2011 11:21:01 10 C 5.54 g/m*3 10 C 0 km/h
1380 13-12-2011 11:33:02 10.2 C 5.52 g/m*3 10.2 C 0 km/h
1381 13-12-2011 11:45:01 10.7 C 5.5 g/m*3 10.7 C 0 km/h
1382 13-12-2011 11:57:01 10.8 C 5.63 g/m*3 10.8 C 0 km/h
1383 13-12-2011 12:09:02 10 C 5.45 g/m*3 10 C 0 km/h
1384 13-12-2011 12:21:01 10 C 5.45 g/m*3 10 C 0 km/h
1385 13-12-2011 12:33:02 9.6 C 5.59 g/m*3 9.6 C 0 km/h
1386 13-12-2011 12:45:01 9.7 C 5.62 g/m*3 9.7 C 0 km/h
1387 13-12-2011 12:57:01 9.7 C 5.72 g/m*3 9.7 C 0 km/h
1388 13-12-2011 13:09:02 9.6 C 5.77 g/m*3 9.6 C 0 km/h
1389 13-12-2011 13:21:01 9.5 C 5.83 g/m*3 9.5 C 0 km/h
1390 13-12-2011 13:33:01 9.8 C 6.03 g/m*3 9.8 C 0 km/h
1391 13-12-2011 13:45:01 10.2 C 6 g/m*3 10.2 C 0 km/h
1392 13-12-2011 13:57:01 10.1 C 5.96 g/m*3 10.1 C 0 km/h
1393 13-12-2011 14:09:01 10 C 5.92 g/m*3 10 C 0 km/h
1394 13-12-2011 14:21:02 9.9 C 6.07 g/m*3 9.9 C 0 km/h
1395 13-12-2011 14:33:01 10 C 6.01 g/m*3 10 C 0 km/h
1396 13-12-2011 14:45:02 9.8 C 6.12 g/m*3 9.8 C 0 km/h
1397 13-12-2011 14:57:02 9.7 C 6.27 g/m*3 9.7 C 0 km/h
1398 13-12-2011 15:09:01 9.4 C 6.33 g/m*3 9.4 C 0 km/h
1399 13-12-2011 15:21:02 8.8 C 6.53 g/m*3 8.8 C 0 km/h
1400 13-12-2011 15:33:01 8.7 C 6.75 g/m*3 8.7 C 0 km/h
Sensor: Nr:Datum:Temp:Abs-Feuchte:Windchill:Wind:
Aussen-T/F 1401 13-12-2011 15:45:02 8.9 C 6.75 g/m*3 8.9 C 0 km/h
1402 13-12-2011 15:57:02 8.9 C 6.48 g/m*3 8.9 C 0 km/h
1403 13-12-2011 16:09:01 9.2 C 5.98 g/m*3 9.2 C 0 km/h
1404 13-12-2011 16:21:01 9.2 C 5.89 g/m*3 9.2 C 0 km/h
1405 13-12-2011 16:33:02 9.2 C 5.98 g/m*3 9.2 C 0 km/h
1406 13-12-2011 16:45:01 8.9 C 6.04 g/m*3 8.9 C 0 km/h
1407 13-12-2011 16:57:01 9.1 C 5.94 g/m*3 9.1 C 0 km/h
1408 13-12-2011 17:09:02 8.5 C 5.98 g/m*3 8.5 C 0 km/h
1409 13-12-2011 17:21:01 8 C 6.45 g/m*3 8 C 0 km/h
1410 13-12-2011 17:33:02 6.9 C 5.93 g/m*3 6.9 C 0 km/h
1411 13-12-2011 17:45:01 6.7 C 6.08 g/m*3 6.7 C 0 km/h
1412 13-12-2011 17:57:01 6.5 C 6.07 g/m*3 6.5 C 0 km/h
1413 13-12-2011 18:09:02 5.9 C 6.06 g/m*3 5.9 C 0 km/h
1414 13-12-2011 18:21:01 5.4 C 5.93 g/m*3 5.4 C 0 km/h
1415 13-12-2011 18:33:01 5.6 C 6.08 g/m*3 5.6 C 0 km/h
1416 13-12-2011 18:45:01 6.6 C 6.49 g/m*3 6.6 C 0 km/h
1417 13-12-2011 18:57:01 7.4 C 6.12 g/m*3 7.4 C 0 km/h
1418 13-12-2011 19:09:01 7.8 C 5.63 g/m*3 7.8 C 0 km/h
1419 13-12-2011 19:21:01 7.6 C 5.48 g/m*3 7.6 C 0 km/h
1420 13-12-2011 19:33:01 7.8 C 5.47 g/m*3 7.8 C 0 km/h
1421 13-12-2011 19:45:01 7.8 C 5.47 g/m*3 7.8 C 0 km/h
1422 13-12-2011 19:57:01 7.8 C 5.47 g/m*3 7.8 C 0 km/h
1423 13-12-2011 20:09:01 7.7 C 5.35 g/m*3 7.7 C 0 km/h
1424 13-12-2011 20:21:02 7.2 C 5.34 g/m*3 7.2 C 0 km/h
1425 13-12-2011 20:33:02 7.4 C 5.25 g/m*3 7.4 C 0 km/h
Sensor: Nr:Datum:Temp:Abs-Feuchte:Windchill:Wind:
Aussen-T/F 1426 13-12-2011 20:45:01 6.9 C 5.23 g/m*3 6.9 C 0 km/h
1427 13-12-2011 20:57:01 7.3 C 5.14 g/m*3 7.3 C 0 km/h
1428 13-12-2011 21:09:01 6.8 C 5.12 g/m*3 6.8 C 0 km/h
1429 13-12-2011 21:21:02 6.9 C 5.16 g/m*3 6.9 C 0 km/h
1430 13-12-2011 21:33:01 6.9 C 5.08 g/m*3 6.9 C 0 km/h
1431 13-12-2011 21:45:02 6.4 C 5.14 g/m*3 6.4 C 0 km/h
1432 13-12-2011 21:57:02 6.4 C 5.07 g/m*3 6.4 C 0 km/h
1433 13-12-2011 22:09:01 5.9 C 5.12 g/m*3 5.9 C 0 km/h
1434 13-12-2011 22:21:02 6.3 C 5.33 g/m*3 6.3 C 0 km/h
1435 13-12-2011 22:33:01 6.7 C 5.32 g/m*3 6.7 C 0 km/h
1436 13-12-2011 22:45:02 7.2 C 5.34 g/m*3 7.2 C 0 km/h
1437 13-12-2011 22:57:02 7 C 5.35 g/m*3 7 C 0 km/h
1438 13-12-2011 23:09:01 7.1 C 5.3 g/m*3 7.1 C 0 km/h
1439 13-12-2011 23:21:02 7.4 C 5.41 g/m*3 7.4 C 0 km/h
1440 13-12-2011 23:33:01 7.5 C 5.28 g/m*3 7.5 C 0 km/h
1441 13-12-2011 23:45:02 7.7 C 5.27 g/m*3 7.7 C 0 km/h
1442 13-12-2011 23:57:02 7.9 C 5.09 g/m*3 7.9 C 0 km/h
1443 14-12-2011 00:09:01 7.9 C 5.01 g/m*3 7.9 C 0 km/h
1444 14-12-2011 00:21:01 7.9 C 4.93 g/m*3 7.9 C 0 km/h
1445 14-12-2011 00:33:01 7.5 C 4.8 g/m*3 7.5 C 0 km/h
1446 14-12-2011 00:45:01 7.3 C 4.74 g/m*3 7.3 C 0 km/h
1447 14-12-2011 00:57:01 7 C 4.73 g/m*3 7 C 0 km/h
1448 14-12-2011 02:25:00 7.4 C 5.81 g/m*3 5.28 C 11.3 km/h
1449 14-12-2011 02:30:00 7.4 C 5.88 g/m*3 5.58 C 9.7 km/h
1450 14-12-2011 02:35:00 7.2 C 5.81 g/m*3 5.69 C 8.1 km/h
Sensor: Nr:Datum:Temp:Abs-Feuchte:Windchill:Wind:
Aussen-T/F 1451 14-12-2011 02:40:00 7.2 C 5.81 g/m*3 5.69 C 8.1 km/h
1452 14-12-2011 02:45:00 7.1 C 5.77 g/m*3 6.02 C 6.4 km/h
1453 14-12-2011 02:50:00 6.8 C 5.74 g/m*3 5.22 C 8.1 km/h
1454 14-12-2011 02:55:00 6.8 C 5.74 g/m*3 5.22 C 8.1 km/h
1455 14-12-2011 03:00:00 6.5 C 5.7 g/m*3 6.5 C 4.8 km/h
1456 14-12-2011 03:05:00 6.2 C 5.74 g/m*3 6.2 C 3.2 km/h
1457 14-12-2011 03:10:00 6 C 5.73 g/m*3 6 C 3.2 km/h
1458 14-12-2011 03:15:00 5.7 C 5.69 g/m*3 5.7 C 4.8 km/h
1459 14-12-2011 03:20:00 5.6 C 5.66 g/m*3 5.6 C 3.2 km/h
1460 14-12-2011 03:25:00 5.6 C 5.73 g/m*3 3.81 C 8.1 km/h
1461 14-12-2011 03:30:00 5.7 C 5.84 g/m*3 5.7 C 3.2 km/h
1462 14-12-2011 03:35:00 6.1 C 5.84 g/m*3 3.43 C 12.9 km/h
1463 14-12-2011 03:40:00 6.5 C 5.92 g/m*3 4.87 C 8.1 km/h
1464 14-12-2011 03:45:00 6.6 C 5.81 g/m*3 5.44 C 6.4 km/h
1465 14-12-2011 03:50:00 6.7 C 5.85 g/m*3 5.11 C 8.1 km/h
1466 14-12-2011 03:55:00 6.8 C 5.89 g/m*3 5.67 C 6.4 km/h
1467 14-12-2011 04:00:00 6.9 C 5.85 g/m*3 6.9 C 4.8 km/h
1468 14-12-2011 04:05:00 6.8 C 5.89 g/m*3 6.8 C 4.8 km/h
1469 14-12-2011 04:10:00 6.7 C 5.85 g/m*3 6.7 C 4.8 km/h
1470 14-12-2011 04:15:00 6.5 C 5.85 g/m*3 6.5 C 4.8 km/h
1471 14-12-2011 04:20:00 6.4 C 5.89 g/m*3 5.21 C 6.4 km/h
1472 14-12-2011 04:25:00 6.4 C 5.89 g/m*3 3.55 C 14.5 km/h
1473 14-12-2011 04:30:00 6.4 C 5.89 g/m*3 6.4 C 3.2 km/h
1474 14-12-2011 04:35:00 6.3 C 5.85 g/m*3 6.3 C 3.2 km/h
1475 14-12-2011 04:40:00 6.1 C 5.84 g/m*3 6.1 C 3.2 km/h
Sensor: Nr:Datum:Temp:Abs-Feuchte:Windchill:Wind:
Aussen-T/F 1476 14-12-2011 04:45:00 6 C 5.81 g/m*3 6 C 4.8 km/h
1477 14-12-2011 04:50:00 5.9 C 5.84 g/m*3 5.9 C 4.8 km/h
1478 14-12-2011 04:55:00 6.1 C 5.92 g/m*3 4.86 C 6.4 km/h
1479 14-12-2011 05:00:00 6.1 C 5.92 g/m*3 6.1 C 4.8 km/h
1480 14-12-2011 05:05:00 6 C 5.95 g/m*3 6 C 3.2 km/h
1481 14-12-2011 05:10:00 5.8 C 5.95 g/m*3 5.8 C 3.2 km/h
1482 14-12-2011 05:15:00 5.9 C 5.91 g/m*3 5.9 C 3.2 km/h
1483 14-12-2011 05:20:00 6.1 C 5.92 g/m*3 6.1 C 4.8 km/h
1484 14-12-2011 05:25:00 6 C 5.95 g/m*3 6 C 3.2 km/h
1485 14-12-2011 05:30:00 5.8 C 5.95 g/m*3 5.8 C 3.2 km/h
1486 14-12-2011 05:35:00 5.6 C 5.87 g/m*3 5.6 C 3.2 km/h
1487 14-12-2011 05:40:00 5.5 C 5.97 g/m*3 5.5 C 4.8 km/h
1488 14-12-2011 05:45:00 5.3 C 5.89 g/m*3 5.3 C 3.2 km/h
1489 14-12-2011 05:50:00 5.2 C 5.92 g/m*3 5.2 C 3.2 km/h
1490 14-12-2011 05:55:00 5.2 C 5.85 g/m*3 5.2 C 4.8 km/h
1491 14-12-2011 06:00:00 5.3 C 5.89 g/m*3 5.3 C 1.6 km/h
1492 14-12-2011 06:05:00 5.2 C 5.85 g/m*3 5.2 C 3.2 km/h
1493 14-12-2011 06:10:00 5.1 C 5.88 g/m*3 5.1 C 4.8 km/h
1494 14-12-2011 06:15:00 5 C 5.91 g/m*3 5 C 3.2 km/h
1495 14-12-2011 06:20:00 4.9 C 5.87 g/m*3 4.9 C 3.2 km/h
1496 14-12-2011 06:25:00 4.9 C 5.87 g/m*3 4.9 C 3.2 km/h
1497 14-12-2011 06:30:00 5.1 C 5.88 g/m*3 5.1 C 3.2 km/h
1498 14-12-2011 06:35:00 5.2 C 5.92 g/m*3 5.2 C 4.8 km/h
1499 14-12-2011 06:40:00 5.2 C 5.92 g/m*3 5.2 C 4.8 km/h
1500 14-12-2011 06:45:00 5.1 C 5.88 g/m*3 5.1 C 4.8 km/h
Sensor: Nr:Datum:Temp:Abs-Feuchte:Windchill:Wind:
Aussen-T/F 1501 14-12-2011 06:50:00 5 C 5.91 g/m*3 5 C 3.2 km/h
1502 14-12-2011 06:55:00 5 C 5.91 g/m*3 5 C 3.2 km/h
1503 14-12-2011 07:00:00 5.1 C 6.02 g/m*3 5.1 C 3.2 km/h
1504 14-12-2011 07:05:00 5.3 C 6.1 g/m*3 5.3 C 3.2 km/h
1505 14-12-2011 07:10:00 5.4 C 6.21 g/m*3 5.4 C 4.8 km/h
1506 14-12-2011 07:15:00 5.8 C 6.23 g/m*3 2.81 C 14.5 km/h
1507 14-12-2011 07:20:00 6 C 6.39 g/m*3 6 C 3.2 km/h
1508 14-12-2011 07:25:00 6 C 6.46 g/m*3 6 C 3.2 km/h
1509 14-12-2011 07:30:00 5.9 C 6.49 g/m*3 5.9 C 4.8 km/h
1510 14-12-2011 07:35:00 5.9 C 6.49 g/m*3 5.9 C 3.2 km/h
1511 14-12-2011 07:40:00 5.8 C 6.52 g/m*3 5.8 C 3.2 km/h
1512 14-12-2011 07:45:00 5.8 C 6.52 g/m*3 5.8 C 4.8 km/h
1513 14-12-2011 07:50:00 5.8 C 6.59 g/m*3 4.52 C 6.4 km/h
1514 14-12-2011 07:55:00 5.9 C 6.63 g/m*3 5.9 C 3.2 km/h
1515 14-12-2011 08:00:00 6.2 C 6.69 g/m*3 6.2 C 3.2 km/h
1516 14-12-2011 08:05:00 6.4 C 6.78 g/m*3 6.4 C 1.6 km/h
1517 14-12-2011 08:10:00 6.6 C 6.79 g/m*3 4.63 C 9.7 km/h
1518 14-12-2011 08:15:00 6.9 C 6.77 g/m*3 5.79 C 6.4 km/h
1519 14-12-2011 08:20:00 7.2 C 6.91 g/m*3 5.35 C 9.7 km/h
1520 14-12-2011 08:25:00 7.6 C 6.85 g/m*3 6.16 C 8.1 km/h
1521 14-12-2011 08:30:00 7.7 C 6.89 g/m*3 7.7 C 4.8 km/h
1522 14-12-2011 08:35:00 7.8 C 6.94 g/m*3 5.77 C 11.3 km/h
1523 14-12-2011 08:40:00 8.1 C 7.07 g/m*3 5.64 C 14.5 km/h
1524 14-12-2011 08:45:00 8.1 C 7.07 g/m*3 6.75 C 8.1 km/h
1525 14-12-2011 08:50:00 8.2 C 7.12 g/m*3 5.76 C 14.5 km/h
Sensor: Nr:Datum:Temp:Abs-Feuchte:Windchill:Wind:
Aussen-T/F 1526 14-12-2011 08:55:00 8.2 C 7.12 g/m*3 6.87 C 8.1 km/h
1527 14-12-2011 09:00:00 8.2 C 7.12 g/m*3 5.18 C 19.3 km/h
1528 14-12-2011 09:05:00 8.3 C 7.16 g/m*3 5.68 C 16.1 km/h
1529 14-12-2011 09:10:00 8.4 C 7.13 g/m*3 6.01 C 14.5 km/h
1530 14-12-2011 09:15:00 8.6 C 7.13 g/m*3 6.73 C 11.3 km/h
1531 14-12-2011 09:20:00 8.7 C 7.09 g/m*3 6.85 C 11.3 km/h
1532 14-12-2011 09:25:00 8.8 C 7.14 g/m*3 6.72 C 12.9 km/h
1533 14-12-2011 09:30:00 8.8 C 7.05 g/m*3 6.3 C 16.1 km/h
1534 14-12-2011 09:35:00 9 C 7.05 g/m*3 6.75 C 14.5 km/h
1535 14-12-2011 09:40:00 9.1 C 7.19 g/m*3 7.33 C 11.3 km/h
1536 14-12-2011 09:45:00 9 C 7.14 g/m*3 7.49 C 9.7 km/h
1537 14-12-2011 09:50:00 9 C 7.14 g/m*3 7.49 C 9.7 km/h
1538 14-12-2011 09:55:00 9.1 C 7.1 g/m*3 6.48 C 17.7 km/h
1539 14-12-2011 10:00:00 9.2 C 7.14 g/m*3 7.21 C 12.9 km/h
1540 14-12-2011 10:05:00 9.3 C 7.19 g/m*3 6.12 C 24.1 km/h
1541 14-12-2011 10:10:00 9.4 C 7.05 g/m*3 6.86 C 17.7 km/h
1542 14-12-2011 10:15:00 9.4 C 7.05 g/m*3 7.04 C 16.1 km/h
1543 14-12-2011 10:20:00 9.4 C 7.15 g/m*3 7.97 C 9.7 km/h
1544 14-12-2011 10:25:00 9.5 C 7.01 g/m*3 7.58 C 12.9 km/h
1545 14-12-2011 10:30:00 9.6 C 7.05 g/m*3 7.7 C 12.9 km/h
1546 14-12-2011 10:35:00 9.7 C 6.91 g/m*3 7.23 C 17.7 km/h
1547 14-12-2011 10:40:00 9.6 C 7.05 g/m*3 7.94 C 11.3 km/h
1548 14-12-2011 10:45:00 9.5 C 7.01 g/m*3 7.16 C 16.1 km/h
1549 14-12-2011 10:50:00 9.5 C 7.01 g/m*3 7.36 C 14.5 km/h
1550 14-12-2011 10:55:00 9.6 C 6.96 g/m*3 7.29 C 16.1 km/h
Sensor: Nr:Datum:Temp:Abs-Feuchte:Windchill:Wind:
Aussen-T/F 1551 14-12-2011 11:00:00 9.6 C 7.05 g/m*3 7.48 C 14.5 km/h
1552 14-12-2011 11:05:00 9.6 C 6.96 g/m*3 7.94 C 11.3 km/h
1553 14-12-2011 11:10:00 9.6 C 6.96 g/m*3 7.7 C 12.9 km/h
1554 14-12-2011 11:15:00 9.6 C 6.96 g/m*3 7.7 C 12.9 km/h
1555 14-12-2011 11:20:00 9.7 C 6.82 g/m*3 8.06 C 11.3 km/h
1556 14-12-2011 11:25:00 9.8 C 6.77 g/m*3 7.94 C 12.9 km/h
1557 14-12-2011 11:30:00 9.8 C 6.77 g/m*3 8.18 C 11.3 km/h
1558 14-12-2011 11:35:00 9.8 C 6.68 g/m*3 7.04 C 20.9 km/h
1559 14-12-2011 11:40:00 9.9 C 6.63 g/m*3 7.66 C 16.1 km/h
1560 14-12-2011 11:45:00 9.8 C 6.49 g/m*3 7.36 C 17.7 km/h
1561 14-12-2011 11:50:00 9.8 C 6.49 g/m*3 6.63 C 25.7 km/h
1562 14-12-2011 11:55:00 9.7 C 6.45 g/m*3 7.23 C 17.7 km/h
1563 14-12-2011 12:00:00 9.6 C 6.41 g/m*3 6.5 C 24.1 km/h
1564 14-12-2011 12:05:00 9.6 C 6.5 g/m*3 6.64 C 22.5 km/h
1565 14-12-2011 12:10:00 9.4 C 6.42 g/m*3 7.04 C 16.1 km/h
1566 14-12-2011 12:15:00 9.4 C 6.42 g/m*3 6.53 C 20.9 km/h
1567 14-12-2011 12:20:00 9.3 C 6.47 g/m*3 6.26 C 22.5 km/h
1568 14-12-2011 12:25:00 9.2 C 6.61 g/m*3 6.79 C 16.1 km/h
1569 14-12-2011 12:30:00 9.1 C 6.48 g/m*3 6.87 C 14.5 km/h
1570 14-12-2011 12:35:00 9 C 6.35 g/m*3 6.75 C 14.5 km/h
1571 14-12-2011 12:40:00 8.9 C 6.39 g/m*3 6.23 C 17.7 km/h
1572 14-12-2011 12:45:00 8.9 C 6.48 g/m*3 6.62 C 14.5 km/h
1573 14-12-2011 12:50:00 8.9 C 6.48 g/m*3 6.62 C 14.5 km/h
1574 14-12-2011 12:55:00 8.8 C 6.44 g/m*3 6.72 C 12.9 km/h
1575 14-12-2011 13:00:00 8.8 C 6.35 g/m*3 5.93 C 19.3 km/h
Sensor: Nr:Datum:Temp:Abs-Feuchte:Windchill:Wind:
Aussen-T/F 1576 14-12-2011 13:05:00 8.8 C 6.35 g/m*3 6.11 C 17.7 km/h
1577 14-12-2011 13:10:00 8.6 C 6.36 g/m*3 6.05 C 16.1 km/h
1578 14-12-2011 13:15:00 8.4 C 6.36 g/m*3 4.96 C 24.1 km/h
1579 14-12-2011 13:20:00 8.3 C 6.32 g/m*3 5.48 C 17.7 km/h
1580 14-12-2011 13:25:00 8.2 C 6.28 g/m*3 4.71 C 24.1 km/h
1581 14-12-2011 13:30:00 8.2 C 6.2 g/m*3 5.36 C 17.7 km/h
1582 14-12-2011 13:35:00 8.2 C 6.2 g/m*3 5.01 C 20.9 km/h
1583 14-12-2011 13:40:00 8.2 C 6.2 g/m*3 5.55 C 16.1 km/h
1584 14-12-2011 13:45:00 8.1 C 6.24 g/m*3 5.43 C 16.1 km/h
1585 14-12-2011 13:50:00 8.1 C 6.24 g/m*3 6.13 C 11.3 km/h
1586 14-12-2011 13:55:00 8.1 C 6.24 g/m*3 6.13 C 11.3 km/h
1587 14-12-2011 14:00:00 8.2 C 6.28 g/m*3 5.36 C 17.7 km/h
1588 14-12-2011 14:05:00 8.2 C 6.28 g/m*3 5.99 C 12.9 km/h
1589 14-12-2011 14:10:00 8.1 C 6.24 g/m*3 5.23 C 17.7 km/h
1590 14-12-2011 14:15:00 8.1 C 6.24 g/m*3 5.05 C 19.3 km/h
1591 14-12-2011 14:20:00 8.1 C 6.24 g/m*3 4.89 C 20.9 km/h
1592 14-12-2011 14:25:00 8.1 C 6.24 g/m*3 4.44 C 25.7 km/h
1593 14-12-2011 14:30:00 8.1 C 6.24 g/m*3 5.43 C 16.1 km/h
1594 14-12-2011 14:35:00 8.1 C 6.24 g/m*3 5.23 C 17.7 km/h
1595 14-12-2011 14:40:00 8 C 6.2 g/m*3 5.11 C 17.7 km/h
1596 14-12-2011 14:45:00 8 C 6.12 g/m*3 4.45 C 24.1 km/h
1597 14-12-2011 14:50:00 8.1 C 6.16 g/m*3 5.43 C 16.1 km/h
1598 14-12-2011 14:55:00 8.1 C 6.16 g/m*3 5.87 C 12.9 km/h
1599 14-12-2011 15:00:00 8 C 6.12 g/m*3 6.01 C 11.3 km/h
1600 14-12-2011 15:05:00 8 C 6.2 g/m*3 4.93 C 19.3 km/h
Sensor: Nr:Datum:Temp:Abs-Feuchte:Windchill:Wind:
Aussen-T/F 1601 14-12-2011 15:10:00 7.9 C 6.16 g/m*3 5.39 C 14.5 km/h
1602 14-12-2011 15:15:00 7.9 C 6.24 g/m*3 4.8 C 19.3 km/h
1603 14-12-2011 15:20:00 7.7 C 6.32 g/m*3 4.55 C 19.3 km/h
1604 14-12-2011 15:25:00 7.5 C 6.32 g/m*3 3.96 C 22.5 km/h
1605 14-12-2011 15:30:00 7.4 C 6.36 g/m*3 4.17 C 19.3 km/h
1606 14-12-2011 15:35:00 7.3 C 6.4 g/m*3 3.87 C 20.9 km/h
1607 14-12-2011 15:40:00 7.2 C 6.36 g/m*3 4.31 C 16.1 km/h
1608 14-12-2011 15:45:00 7.2 C 6.36 g/m*3 4.11 C 17.7 km/h
1609 14-12-2011 15:50:00 7.2 C 6.36 g/m*3 4.53 C 14.5 km/h
1610 14-12-2011 15:55:00 7.2 C 6.36 g/m*3 4.77 C 12.9 km/h
1611 14-12-2011 16:00:00 7.2 C 6.36 g/m*3 4.77 C 12.9 km/h
1612 14-12-2011 16:05:00 7.2 C 6.36 g/m*3 4.77 C 12.9 km/h
1613 14-12-2011 16:10:00 6.9 C 6.24 g/m*3 4.16 C 14.5 km/h
1614 14-12-2011 16:15:00 6.7 C 6.31 g/m*3 3.69 C 16.1 km/h
1615 14-12-2011 16:20:00 6.4 C 6.26 g/m*3 3.11 C 17.7 km/h
1616 14-12-2011 16:25:00 6.2 C 6.32 g/m*3 4.15 C 9.7 km/h
1617 14-12-2011 16:30:00 6.1 C 6.28 g/m*3 3.72 C 11.3 km/h
1618 14-12-2011 16:35:00 6.1 C 6.36 g/m*3 6.1 C 4.8 km/h
1619 14-12-2011 16:40:00 6.1 C 6.43 g/m*3 4.04 C 9.7 km/h
1620 14-12-2011 16:45:00 6.3 C 6.22 g/m*3 3.2 C 16.1 km/h
1621 14-12-2011 16:50:00 6.6 C 6.19 g/m*3 4.04 C 12.9 km/h
1622 14-12-2011 16:55:00 6.7 C 6.15 g/m*3 4.44 C 11.3 km/h
1623 14-12-2011 17:00:00 6.7 C 6.15 g/m*3 3.92 C 14.5 km/h
1624 14-12-2011 17:05:00 6.9 C 6.08 g/m*3 4.41 C 12.9 km/h
1625 14-12-2011 17:10:00 7.1 C 6.08 g/m*3 4.65 C 12.9 km/h
Sensor: Nr:Datum:Temp:Abs-Feuchte:Windchill:Wind:
Aussen-T/F 1626 14-12-2011 17:15:00 7.3 C 6.08 g/m*3 4.23 C 17.7 km/h
1627 14-12-2011 17:20:00 7.3 C 6.08 g/m*3 5.47 C 9.7 km/h
1628 14-12-2011 17:25:00 7.2 C 6.04 g/m*3 5.04 C 11.3 km/h
1629 14-12-2011 17:30:00 7.2 C 5.97 g/m*3 3.13 C 27.4 km/h
1630 14-12-2011 17:35:00 6.2 C 5.74 g/m*3 1.32 C 33.8 km/h
1631 14-12-2011 17:40:00 4.8 C 5.5 g/m*3 1.58 C 14.5 km/h
1632 14-12-2011 17:45:00 4.2 C 5.41 g/m*3 -0.24 C 22.5 km/h
1633 14-12-2011 17:50:00 4.2 C 5.54 g/m*3 0.36 C 17.7 km/h
1634 14-12-2011 17:55:00 4.1 C 5.5 g/m*3 -0.55 C 24.1 km/h
1635 14-12-2011 18:00:00 4.1 C 5.5 g/m*3 -0.71 C 25.7 km/h
1636 14-12-2011 18:05:00 4.1 C 5.5 g/m*3 0.24 C 17.7 km/h
1637 14-12-2011 18:10:00 4.2 C 5.54 g/m*3 0.59 C 16.1 km/h
1638 14-12-2011 18:15:00 4.2 C 5.48 g/m*3 0.36 C 17.7 km/h
1639 14-12-2011 18:20:00 4.3 C 5.51 g/m*3 0.97 C 14.5 km/h
1640 14-12-2011 18:25:00 4.7 C 5.6 g/m*3 0.58 C 20.9 km/h
1641 14-12-2011 18:30:00 5.2 C 5.71 g/m*3 1.61 C 17.7 km/h
1642 14-12-2011 18:35:00 5.2 C 5.71 g/m*3 2.07 C 14.5 km/h
1643 14-12-2011 18:40:00 5.2 C 5.71 g/m*3 2.63 C 11.3 km/h
1644 14-12-2011 18:45:00 5.1 C 5.68 g/m*3 2.51 C 11.3 km/h
1645 14-12-2011 18:50:00 5 C 5.78 g/m*3 3.11 C 8.1 km/h
1646 14-12-2011 18:55:00 4.7 C 5.66 g/m*3 2.03 C 11.3 km/h
1647 14-12-2011 19:00:00 4.7 C 5.8 g/m*3 2.37 C 9.7 km/h
1648 14-12-2011 19:05:00 4.5 C 5.72 g/m*3 0.96 C 16.1 km/h
1649 14-12-2011 19:10:00 4.7 C 5.86 g/m*3 0.58 C 20.9 km/h
1650 14-12-2011 19:15:00 4.6 C 5.82 g/m*3 1.34 C 14.5 km/h
Sensor: Nr:Datum:Temp:Abs-Feuchte:Windchill:Wind:
Aussen-T/F 1651 14-12-2011 19:20:00 4.7 C 5.8 g/m*3 0.4 C 22.5 km/h
1652 14-12-2011 19:25:00 4.8 C 5.77 g/m*3 1.34 C 16.1 km/h
1653 14-12-2011 19:30:00 4.9 C 5.67 g/m*3 0.65 C 22.5 km/h
1654 14-12-2011 19:35:00 4.9 C 5.67 g/m*3 1.46 C 16.1 km/h
1655 14-12-2011 19:40:00 5 C 5.64 g/m*3 1.15 C 19.3 km/h
1656 14-12-2011 19:45:00 4.9 C 5.6 g/m*3 1.46 C 16.1 km/h
1657 14-12-2011 19:50:00 4.8 C 5.57 g/m*3 1.34 C 16.1 km/h
1658 14-12-2011 19:55:00 4.8 C 5.57 g/m*3 2.15 C 11.3 km/h
1659 14-12-2011 20:00:00 4.8 C 5.5 g/m*3 1.85 C 12.9 km/h
1660 14-12-2011 20:05:00 4.8 C 5.5 g/m*3 1.58 C 14.5 km/h
1661 14-12-2011 20:10:00 4.9 C 5.54 g/m*3 1.97 C 12.9 km/h
1662 14-12-2011 20:15:00 4.9 C 5.6 g/m*3 0.83 C 20.9 km/h
1663 14-12-2011 20:20:00 4.9 C 5.6 g/m*3 1.97 C 12.9 km/h
1664 14-12-2011 20:25:00 4.9 C 5.54 g/m*3 1.46 C 16.1 km/h
1665 14-12-2011 20:30:00 4.9 C 5.54 g/m*3 2.61 C 9.7 km/h
1666 14-12-2011 20:35:00 4.8 C 5.57 g/m*3 2.15 C 11.3 km/h
1667 14-12-2011 20:40:00 4.8 C 5.63 g/m*3 2.49 C 9.7 km/h
1668 14-12-2011 20:45:00 4.6 C 5.56 g/m*3 3.13 C 6.4 km/h
1669 14-12-2011 20:50:00 4.5 C 5.52 g/m*3 2.52 C 8.1 km/h
1670 14-12-2011 20:55:00 4.4 C 5.55 g/m*3 4.4 C 4.8 km/h
1671 14-12-2011 21:00:00 4.4 C 5.55 g/m*3 1.67 C 11.3 km/h
1672 14-12-2011 21:05:00 4.4 C 5.48 g/m*3 2.01 C 9.7 km/h
1673 14-12-2011 21:10:00 4.4 C 5.48 g/m*3 2.9 C 6.4 km/h
1674 14-12-2011 21:15:00 4.4 C 5.55 g/m*3 2.4 C 8.1 km/h
1675 14-12-2011 21:20:00 4.2 C 5.61 g/m*3 4.2 C 4.8 km/h
Sensor: Nr:Datum:Temp:Abs-Feuchte:Windchill:Wind:
Aussen-T/F 1676 14-12-2011 21:25:00 3.9 C 5.49 g/m*3 2.32 C 6.4 km/h
1677 14-12-2011 21:30:00 3.9 C 5.49 g/m*3 1.06 C 11.3 km/h
1678 14-12-2011 21:35:00 4.3 C 5.58 g/m*3 1.89 C 9.7 km/h
1679 14-12-2011 21:40:00 4.6 C 5.69 g/m*3 2.64 C 8.1 km/h
1680 14-12-2011 21:45:00 4.6 C 5.76 g/m*3 4.6 C 3.2 km/h
1681 14-12-2011 21:50:00 4.4 C 5.68 g/m*3 4.4 C 4.8 km/h
1682 14-12-2011 21:55:00 4.3 C 5.64 g/m*3 4.3 C 4.8 km/h
1683 14-12-2011 22:00:00 4.5 C 5.65 g/m*3 3.02 C 6.4 km/h
1684 14-12-2011 22:05:00 4.7 C 5.8 g/m*3 4.7 C 4.8 km/h
1685 14-12-2011 22:10:00 4.8 C 5.7 g/m*3 4.8 C 4.8 km/h
1686 14-12-2011 22:15:00 5.1 C 5.68 g/m*3 2.51 C 11.3 km/h
1687 14-12-2011 22:20:00 5.2 C 5.78 g/m*3 5.2 C 3.2 km/h
1688 14-12-2011 22:25:00 5.3 C 5.68 g/m*3 1.74 C 17.7 km/h
1689 14-12-2011 22:30:00 5.4 C 5.72 g/m*3 5.4 C 4.8 km/h
1690 14-12-2011 22:35:00 5.3 C 5.68 g/m*3 5.3 C 4.8 km/h
1691 14-12-2011 22:40:00 5.4 C 5.65 g/m*3 4.06 C 6.4 km/h
1692 14-12-2011 22:45:00 5.6 C 5.73 g/m*3 2.57 C 14.5 km/h
1693 14-12-2011 22:50:00 5.7 C 5.62 g/m*3 3.93 C 8.1 km/h
1694 14-12-2011 22:55:00 5.7 C 5.62 g/m*3 3.56 C 9.7 km/h
1695 14-12-2011 23:00:00 5.8 C 5.59 g/m*3 3.36 C 11.3 km/h
1696 14-12-2011 23:05:00 5.9 C 5.55 g/m*3 3.48 C 11.3 km/h
1697 14-12-2011 23:10:00 5.9 C 5.62 g/m*3 5.9 C 4.8 km/h
1698 14-12-2011 23:15:00 5.8 C 5.59 g/m*3 3.68 C 9.7 km/h
1699 14-12-2011 23:20:00 5.8 C 5.59 g/m*3 4.05 C 8.1 km/h
1700 14-12-2011 23:25:00 5.7 C 5.55 g/m*3 2.69 C 14.5 km/h
Sensor: Nr:Datum:Temp:Abs-Feuchte:Windchill:Wind:
Aussen-T/F 1701 14-12-2011 23:30:00 5.6 C 5.59 g/m*3 3.81 C 8.1 km/h
1702 14-12-2011 23:35:00 5.7 C 5.55 g/m*3 3.93 C 8.1 km/h
1703 14-12-2011 23:40:00 5.7 C 5.62 g/m*3 5.7 C 4.8 km/h
1704 14-12-2011 23:45:00 5.7 C 5.48 g/m*3 3.23 C 11.3 km/h
1705 14-12-2011 23:50:00 5.8 C 5.44 g/m*3 3.07 C 12.9 km/h
1706 14-12-2011 23:55:00 6 C 5.52 g/m*3 3.31 C 12.9 km/h
1707 15-12-2011 00:00:00 6.1 C 5.63 g/m*3 3.72 C 11.3 km/h
1708 15-12-2011 00:05:00 6.1 C 5.55 g/m*3 3.72 C 11.3 km/h
1709 15-12-2011 00:10:00 6.2 C 5.44 g/m*3 3.56 C 12.9 km/h
1710 15-12-2011 00:15:00 6.4 C 5.44 g/m*3 3.32 C 16.1 km/h
1711 15-12-2011 00:20:00 6.4 C 5.36 g/m*3 3.55 C 14.5 km/h
1712 15-12-2011 00:25:00 6.4 C 5.36 g/m*3 3.32 C 16.1 km/h
1713 15-12-2011 00:30:00 6.4 C 5.29 g/m*3 3.11 C 17.7 km/h
1714 15-12-2011 00:35:00 6.4 C 5.29 g/m*3 3.11 C 17.7 km/h
1715 15-12-2011 00:40:00 6.4 C 5.29 g/m*3 3.55 C 14.5 km/h
1716 15-12-2011 00:45:00 6.4 C 5.29 g/m*3 3.11 C 17.7 km/h
1717 15-12-2011 00:50:00 6.3 C 5.33 g/m*3 4.27 C 9.7 km/h
1718 15-12-2011 00:55:00 6.2 C 5.29 g/m*3 3.07 C 16.1 km/h
1719 15-12-2011 01:00:00 6.2 C 5.37 g/m*3 4.52 C 8.1 km/h
1720 15-12-2011 01:05:00 6.1 C 5.33 g/m*3 3.72 C 11.3 km/h
1721 15-12-2011 01:10:00 6 C 5.37 g/m*3 4.75 C 6.4 km/h
1722 15-12-2011 01:15:00 6 C 5.37 g/m*3 3.6 C 11.3 km/h
1723 15-12-2011 01:20:00 5.8 C 5.37 g/m*3 5.8 C 4.8 km/h
1724 15-12-2011 01:25:00 5.7 C 5.41 g/m*3 4.4 C 6.4 km/h
1725 15-12-2011 01:30:00 5.6 C 5.51 g/m*3 5.6 C 4.8 km/h
Sensor: Nr:Datum:Temp:Abs-Feuchte:Windchill:Wind:
Aussen-T/F 1726 15-12-2011 01:35:00 5.6 C 5.44 g/m*3 3.11 C 11.3 km/h
1727 15-12-2011 01:40:00 5.6 C 5.44 g/m*3 5.6 C 3.2 km/h
1728 15-12-2011 01:45:00 5.7 C 5.48 g/m*3 2.45 C 16.1 km/h
1729 15-12-2011 01:50:00 5.9 C 5.41 g/m*3 2.93 C 14.5 km/h
1730 15-12-2011 01:55:00 6.1 C 5.48 g/m*3 3.18 C 14.5 km/h
1731 15-12-2011 02:00:00 6.2 C 5.44 g/m*3 3.3 C 14.5 km/h
1732 15-12-2011 02:05:00 6.2 C 5.44 g/m*3 3.56 C 12.9 km/h
1733 15-12-2011 02:10:00 6.3 C 5.48 g/m*3 4.64 C 8.1 km/h
1734 15-12-2011 02:15:00 6.1 C 5.48 g/m*3 4.86 C 6.4 km/h
1735 15-12-2011 02:20:00 5.9 C 5.48 g/m*3 5.9 C 4.8 km/h
1736 15-12-2011 02:25:00 5.8 C 5.37 g/m*3 3.36 C 11.3 km/h
1737 15-12-2011 02:30:00 5.8 C 5.37 g/m*3 5.8 C 4.8 km/h
1738 15-12-2011 02:35:00 5.8 C 5.37 g/m*3 5.8 C 4.8 km/h
1739 15-12-2011 02:40:00 5.9 C 5.62 g/m*3 5.9 C 4.8 km/h
1740 15-12-2011 02:45:00 5.8 C 5.59 g/m*3 5.8 C 4.8 km/h
1741 15-12-2011 02:50:00 5.9 C 5.41 g/m*3 2.93 C 14.5 km/h
1742 15-12-2011 02:55:00 5.9 C 5.41 g/m*3 4.63 C 6.4 km/h
1743 15-12-2011 03:00:00 5.9 C 5.41 g/m*3 4.63 C 6.4 km/h
1744 15-12-2011 03:05:00 5.8 C 5.52 g/m*3 5.8 C 4.8 km/h
1745 15-12-2011 03:10:00 5.7 C 5.41 g/m*3 3.93 C 8.1 km/h
1746 15-12-2011 03:15:00 5.9 C 5.48 g/m*3 3.8 C 9.7 km/h
1747 15-12-2011 03:20:00 5.9 C 5.55 g/m*3 5.9 C 4.8 km/h
1748 15-12-2011 03:25:00 5.8 C 5.59 g/m*3 4.52 C 6.4 km/h
1749 15-12-2011 03:30:00 5.7 C 5.62 g/m*3 5.7 C 3.2 km/h
1750 15-12-2011 03:35:00 5.6 C 5.59 g/m*3 4.29 C 6.4 km/h
Sensor: Nr:Datum:Temp:Abs-Feuchte:Windchill:Wind:
Aussen-T/F 1751 15-12-2011 03:40:00 5.7 C 5.62 g/m*3 4.4 C 6.4 km/h
1752 15-12-2011 03:45:00 5.8 C 5.73 g/m*3 4.05 C 8.1 km/h
1753 15-12-2011 03:50:00 5.9 C 5.77 g/m*3 2.93 C 14.5 km/h
1754 15-12-2011 03:55:00 5.8 C 5.8 g/m*3 5.8 C 4.8 km/h
1755 15-12-2011 04:00:00 5.6 C 5.87 g/m*3 4.29 C 6.4 km/h
1756 15-12-2011 04:05:00 5.4 C 5.79 g/m*3 2.58 C 12.9 km/h
1757 15-12-2011 04:10:00 5.1 C 5.81 g/m*3 5.1 C 4.8 km/h
1758 15-12-2011 04:15:00 4.9 C 5.74 g/m*3 4.9 C 3.2 km/h
1759 15-12-2011 04:20:00 4.7 C 5.73 g/m*3 3.25 C 6.4 km/h
1760 15-12-2011 04:25:00 4.6 C 5.69 g/m*3 3.13 C 6.4 km/h
1761 15-12-2011 04:30:00 4.4 C 5.62 g/m*3 4.4 C 4.8 km/h
1762 15-12-2011 04:35:00 4.3 C 5.64 g/m*3 2.29 C 8.1 km/h
1763 15-12-2011 04:40:00 4.1 C 5.63 g/m*3 4.1 C 3.2 km/h
1764 15-12-2011 04:45:00 4 C 5.66 g/m*3 4 C 4.8 km/h
1765 15-12-2011 04:50:00 4 C 5.66 g/m*3 4 C 4.8 km/h
1766 15-12-2011 04:55:00 4.1 C 5.7 g/m*3 4.1 C 3.2 km/h
1767 15-12-2011 05:00:00 4.1 C 5.7 g/m*3 4.1 C 4.8 km/h
1768 15-12-2011 05:05:00 4.2 C 5.73 g/m*3 4.2 C 4.8 km/h
1769 15-12-2011 05:10:00 4.1 C 5.7 g/m*3 4.1 C 4.8 km/h
1770 15-12-2011 05:15:00 4.3 C 5.71 g/m*3 2.29 C 8.1 km/h
1771 15-12-2011 05:20:00 4.6 C 5.76 g/m*3 3.13 C 6.4 km/h
1772 15-12-2011 05:25:00 4.6 C 5.76 g/m*3 4.6 C 3.2 km/h
1773 15-12-2011 05:30:00 4.5 C 5.72 g/m*3 2.52 C 8.1 km/h
1774 15-12-2011 05:35:00 4.5 C 5.72 g/m*3 2.52 C 8.1 km/h
1775 15-12-2011 05:40:00 4.5 C 5.65 g/m*3 4.5 C 4.8 km/h
Sensor: Nr:Datum:Temp:Abs-Feuchte:Windchill:Wind:
Aussen-T/F 1776 15-12-2011 05:45:00 4.5 C 5.65 g/m*3 2.52 C 8.1 km/h
1777 15-12-2011 05:50:00 4.7 C 5.73 g/m*3 2.37 C 9.7 km/h
1778 15-12-2011 05:55:00 4.8 C 5.77 g/m*3 1.85 C 12.9 km/h
1779 15-12-2011 06:00:00 4.9 C 5.74 g/m*3 2.27 C 11.3 km/h
1780 15-12-2011 06:05:00 4.9 C 5.67 g/m*3 2.99 C 8.1 km/h
1781 15-12-2011 06:10:00 5.1 C 5.75 g/m*3 3.71 C 6.4 km/h
1782 15-12-2011 06:15:00 5.1 C 5.81 g/m*3 1.71 C 16.1 km/h
1783 15-12-2011 06:20:00 5.1 C 5.75 g/m*3 2.84 C 9.7 km/h
1784 15-12-2011 06:25:00 5.1 C 5.75 g/m*3 1.49 C 17.7 km/h
1785 15-12-2011 06:30:00 5 C 5.71 g/m*3 3.11 C 8.1 km/h
1786 15-12-2011 06:35:00 4.9 C 5.67 g/m*3 2.61 C 9.7 km/h
1787 15-12-2011 06:40:00 4.8 C 5.63 g/m*3 2.49 C 9.7 km/h
1788 15-12-2011 06:45:00 4.9 C 5.67 g/m*3 2.27 C 11.3 km/h
1789 15-12-2011 06:50:00 4.9 C 5.67 g/m*3 1.97 C 12.9 km/h
1790 15-12-2011 06:55:00 5 C 5.64 g/m*3 2.39 C 11.3 km/h
1791 15-12-2011 07:00:00 4.9 C 5.67 g/m*3 2.99 C 8.1 km/h
1792 15-12-2011 07:05:00 4.9 C 5.74 g/m*3 4.9 C 4.8 km/h
1793 15-12-2011 07:10:00 4.8 C 5.83 g/m*3 4.8 C 4.8 km/h
1794 15-12-2011 07:15:00 4.7 C 5.8 g/m*3 3.25 C 6.4 km/h
1795 15-12-2011 07:20:00 4.6 C 5.76 g/m*3 4.6 C 4.8 km/h
1796 15-12-2011 07:25:00 4.5 C 5.78 g/m*3 4.5 C 4.8 km/h
1797 15-12-2011 07:30:00 4.4 C 5.75 g/m*3 4.4 C 4.8 km/h
1798 15-12-2011 07:35:00 4.3 C 5.64 g/m*3 1.55 C 11.3 km/h
1799 15-12-2011 07:40:00 4.6 C 5.69 g/m*3 2.64 C 8.1 km/h
1800 15-12-2011 07:45:00 4.8 C 5.7 g/m*3 3.36 C 6.4 km/h
Sensor: Nr:Datum:Temp:Abs-Feuchte:Windchill:Wind:
Aussen-T/F 1801 15-12-2011 07:50:00 4.8 C 5.63 g/m*3 4.8 C 4.8 km/h
1802 15-12-2011 07:55:00 4.8 C 5.63 g/m*3 4.8 C 3.2 km/h
1803 15-12-2011 08:00:00 4.9 C 5.6 g/m*3 4.9 C 4.8 km/h
1804 15-12-2011 08:05:00 4.9 C 5.6 g/m*3 2.99 C 8.1 km/h
1805 15-12-2011 08:10:00 5.1 C 5.61 g/m*3 2.51 C 11.3 km/h
1806 15-12-2011 08:15:00 5.3 C 5.61 g/m*3 2.75 C 11.3 km/h
1807 15-12-2011 08:20:00 5.3 C 5.54 g/m*3 3.94 C 6.4 km/h
1808 15-12-2011 08:25:00 5.3 C 5.61 g/m*3 5.3 C 4.8 km/h
1809 15-12-2011 08:30:00 5.2 C 5.65 g/m*3 5.2 C 4.8 km/h
1810 15-12-2011 08:35:00 5.2 C 5.71 g/m*3 5.2 C 4.8 km/h
1811 15-12-2011 08:40:00 5.1 C 5.75 g/m*3 5.1 C 3.2 km/h
1812 15-12-2011 08:45:00 5.1 C 5.68 g/m*3 2.22 C 12.9 km/h
1813 15-12-2011 08:50:00 5.1 C 5.75 g/m*3 5.1 C 4.8 km/h
1814 15-12-2011 08:55:00 5.1 C 5.68 g/m*3 3.71 C 6.4 km/h
1815 15-12-2011 09:00:00 5.2 C 5.71 g/m*3 2.96 C 9.7 km/h
1816 15-12-2011 09:05:00 5.3 C 5.68 g/m*3 3.94 C 6.4 km/h
1817 15-12-2011 09:10:00 5.4 C 5.65 g/m*3 2.87 C 11.3 km/h
1818 15-12-2011 09:15:00 5.6 C 5.66 g/m*3 3.81 C 8.1 km/h
1819 15-12-2011 09:20:00 5.6 C 5.73 g/m*3 5.6 C 4.8 km/h
1820 15-12-2011 09:25:00 5.8 C 5.66 g/m*3 2.58 C 16.1 km/h
1821 15-12-2011 09:30:00 5.9 C 5.7 g/m*3 4.63 C 6.4 km/h
1822 15-12-2011 09:35:00 5.9 C 5.77 g/m*3 4.17 C 8.1 km/h
1823 15-12-2011 09:40:00 6 C 5.73 g/m*3 4.75 C 6.4 km/h
1824 15-12-2011 09:45:00 6.1 C 5.7 g/m*3 4.86 C 6.4 km/h
1825 15-12-2011 09:50:00 6.3 C 5.7 g/m*3 3.68 C 12.9 km/h
Sensor: Nr:Datum:Temp:Abs-Feuchte:Windchill:Wind:
Aussen-T/F 1826 15-12-2011 09:55:00 6.3 C 5.63 g/m*3 4.27 C 9.7 km/h
1827 15-12-2011 10:00:00 6.4 C 5.66 g/m*3 5.21 C 6.4 km/h
1828 15-12-2011 10:05:00 6.4 C 5.74 g/m*3 6.4 C 4.8 km/h
1829 15-12-2011 10:10:00 6.4 C 5.74 g/m*3 5.21 C 6.4 km/h
1830 15-12-2011 10:15:00 6.4 C 5.66 g/m*3 6.4 C 4.8 km/h
1831 15-12-2011 10:20:00 6.4 C 5.74 g/m*3 4.08 C 11.3 km/h
1832 15-12-2011 10:25:00 6.5 C 5.7 g/m*3 4.87 C 8.1 km/h
1833 15-12-2011 10:30:00 6.6 C 5.66 g/m*3 4.63 C 9.7 km/h
1834 15-12-2011 10:35:00 6.6 C 5.59 g/m*3 3.57 C 16.1 km/h
1835 15-12-2011 10:40:00 6.7 C 5.62 g/m*3 3.48 C 17.7 km/h
1836 15-12-2011 10:45:00 6.7 C 5.7 g/m*3 5.56 C 6.4 km/h
1837 15-12-2011 10:50:00 6.7 C 5.62 g/m*3 3.92 C 14.5 km/h
1838 15-12-2011 10:55:00 6.7 C 5.62 g/m*3 4.75 C 9.7 km/h
1839 15-12-2011 11:00:00 6.7 C 5.55 g/m*3 5.11 C 8.1 km/h
1840 15-12-2011 11:05:00 6.7 C 5.55 g/m*3 4.44 C 11.3 km/h
1841 15-12-2011 11:10:00 6.8 C 5.58 g/m*3 5.67 C 6.4 km/h
1842 15-12-2011 11:15:00 6.9 C 5.54 g/m*3 5.34 C 8.1 km/h
1843 15-12-2011 11:20:00 6.9 C 5.54 g/m*3 5.79 C 6.4 km/h
1844 15-12-2011 11:25:00 7.1 C 5.54 g/m*3 5.58 C 8.1 km/h
1845 15-12-2011 11:30:00 7.1 C 5.54 g/m*3 5.23 C 9.7 km/h
1846 15-12-2011 11:35:00 7.1 C 5.62 g/m*3 7.1 C 4.8 km/h
1847 15-12-2011 11:40:00 7.1 C 5.62 g/m*3 5.23 C 9.7 km/h
1848 15-12-2011 11:45:00 7 C 5.73 g/m*3 5.46 C 8.1 km/h
1849 15-12-2011 11:50:00 6.9 C 5.7 g/m*3 6.9 C 4.8 km/h
1850 15-12-2011 11:55:00 6.9 C 5.77 g/m*3 6.9 C 3.2 km/h
Sensor: Nr:Datum:Temp:Abs-Feuchte:Windchill:Wind:
Aussen-T/F 1851 15-12-2011 12:00:00 6.9 C 5.7 g/m*3 5.79 C 6.4 km/h
1852 15-12-2011 12:05:00 7 C 5.58 g/m*3 5.46 C 8.1 km/h
1853 15-12-2011 12:10:00 7.1 C 5.69 g/m*3 5.58 C 8.1 km/h
1854 15-12-2011 12:15:00 7.1 C 5.62 g/m*3 4.92 C 11.3 km/h
1855 15-12-2011 12:20:00 7.1 C 5.62 g/m*3 5.58 C 8.1 km/h
1856 15-12-2011 12:25:00 7.2 C 5.73 g/m*3 5.69 C 8.1 km/h
1857 15-12-2011 12:30:00 7.2 C 5.73 g/m*3 7.2 C 4.8 km/h
1858 15-12-2011 12:35:00 7.3 C 5.61 g/m*3 5.81 C 8.1 km/h
1859 15-12-2011 12:40:00 7.4 C 5.65 g/m*3 4.78 C 14.5 km/h
1860 15-12-2011 12:45:00 7.4 C 5.65 g/m*3 5.58 C 9.7 km/h
1861 15-12-2011 12:50:00 7.4 C 5.73 g/m*3 5.93 C 8.1 km/h
1862 15-12-2011 12:55:00 7.4 C 5.73 g/m*3 5.02 C 12.9 km/h
1863 15-12-2011 13:00:00 7.4 C 5.73 g/m*3 5.58 C 9.7 km/h
1864 15-12-2011 13:05:00 7.4 C 5.73 g/m*3 5.58 C 9.7 km/h
1865 15-12-2011 13:10:00 7.4 C 5.73 g/m*3 5.58 C 9.7 km/h
1866 15-12-2011 13:15:00 7.4 C 5.65 g/m*3 4.78 C 14.5 km/h
1867 15-12-2011 13:20:00 7.4 C 5.73 g/m*3 4.56 C 16.1 km/h
1868 15-12-2011 13:25:00 7.3 C 5.61 g/m*3 4.9 C 12.9 km/h
1869 15-12-2011 13:30:00 7.3 C 5.69 g/m*3 4.66 C 14.5 km/h
1870 15-12-2011 13:35:00 7.3 C 5.69 g/m*3 5.47 C 9.7 km/h
1871 15-12-2011 13:40:00 7.3 C 5.69 g/m*3 4.23 C 17.7 km/h
1872 15-12-2011 13:45:00 7.3 C 5.77 g/m*3 5.47 C 9.7 km/h
1873 15-12-2011 13:50:00 7.3 C 5.85 g/m*3 4.66 C 14.5 km/h
1874 15-12-2011 13:55:00 7.3 C 5.93 g/m*3 5.16 C 11.3 km/h
1875 15-12-2011 14:00:00 7.2 C 5.89 g/m*3 5.04 C 11.3 km/h
Sensor: Nr:Datum:Temp:Abs-Feuchte:Windchill:Wind:
Aussen-T/F 1876 15-12-2011 14:05:00 7.2 C 5.89 g/m*3 4.77 C 12.9 km/h
1877 15-12-2011 14:10:00 7.3 C 5.77 g/m*3 4.44 C 16.1 km/h
1878 15-12-2011 14:15:00 7.3 C 5.69 g/m*3 4.23 C 17.7 km/h
1879 15-12-2011 14:20:00 7.3 C 5.61 g/m*3 4.44 C 16.1 km/h
1880 15-12-2011 14:25:00 7.4 C 5.73 g/m*3 5.58 C 9.7 km/h
1881 15-12-2011 14:30:00 7.4 C 5.65 g/m*3 5.02 C 12.9 km/h
1882 15-12-2011 14:35:00 7.4 C 5.65 g/m*3 4.78 C 14.5 km/h
1883 15-12-2011 14:40:00 7.4 C 5.57 g/m*3 5.28 C 11.3 km/h
1884 15-12-2011 14:45:00 7.4 C 5.57 g/m*3 5.02 C 12.9 km/h
1885 15-12-2011 14:50:00 7.4 C 5.73 g/m*3 4.56 C 16.1 km/h
1886 15-12-2011 14:55:00 7.3 C 5.61 g/m*3 4.44 C 16.1 km/h
1887 15-12-2011 15:00:00 7.3 C 5.69 g/m*3 4.44 C 16.1 km/h
1888 15-12-2011 15:05:00 7.3 C 5.69 g/m*3 5.16 C 11.3 km/h
1889 15-12-2011 15:10:00 7.3 C 5.77 g/m*3 4.9 C 12.9 km/h
1890 15-12-2011 15:15:00 7.3 C 5.77 g/m*3 5.47 C 9.7 km/h
1891 15-12-2011 15:20:00 7.2 C 5.73 g/m*3 4.11 C 17.7 km/h
1892 15-12-2011 15:25:00 7.2 C 5.73 g/m*3 4.53 C 14.5 km/h
1893 15-12-2011 15:30:00 7.1 C 5.77 g/m*3 4.92 C 11.3 km/h
1894 15-12-2011 15:35:00 6.9 C 5.77 g/m*3 4.16 C 14.5 km/h
1895 15-12-2011 15:40:00 6.8 C 5.74 g/m*3 3.07 C 22.5 km/h
1896 15-12-2011 15:45:00 6.7 C 5.85 g/m*3 4.17 C 12.9 km/h
1897 15-12-2011 15:50:00 6.6 C 5.81 g/m*3 3.79 C 14.5 km/h
1898 15-12-2011 15:55:00 6.5 C 5.77 g/m*3 3.67 C 14.5 km/h
1899 15-12-2011 16:00:00 6.4 C 5.81 g/m*3 3.8 C 12.9 km/h
1900 15-12-2011 16:05:00 6.5 C 5.77 g/m*3 3.92 C 12.9 km/h
Sensor: Nr:Datum:Temp:Abs-Feuchte:Windchill:Wind:
Aussen-T/F 1901 15-12-2011 16:10:00 6.5 C 5.77 g/m*3 4.2 C 11.3 km/h
1902 15-12-2011 16:15:00 6.5 C 5.7 g/m*3 3.44 C 16.1 km/h
1903 15-12-2011 16:20:00 6.5 C 5.7 g/m*3 4.2 C 11.3 km/h
1904 15-12-2011 16:25:00 6.5 C 5.77 g/m*3 4.2 C 11.3 km/h
1905 15-12-2011 16:30:00 6.5 C 5.77 g/m*3 4.2 C 11.3 km/h
1906 15-12-2011 16:35:00 6.5 C 5.77 g/m*3 4.51 C 9.7 km/h
1907 15-12-2011 16:40:00 6.4 C 5.74 g/m*3 4.75 C 8.1 km/h
1908 15-12-2011 16:45:00 6.4 C 5.74 g/m*3 4.75 C 8.1 km/h
1909 15-12-2011 16:50:00 6.4 C 5.74 g/m*3 4.39 C 9.7 km/h
1910 15-12-2011 16:55:00 6.5 C 5.77 g/m*3 3.23 C 17.7 km/h
1911 15-12-2011 17:00:00 6.6 C 5.81 g/m*3 4.32 C 11.3 km/h
1912 15-12-2011 17:05:00 6.5 C 5.77 g/m*3 4.2 C 11.3 km/h
1913 15-12-2011 17:10:00 6.6 C 5.81 g/m*3 4.63 C 9.7 km/h
1914 15-12-2011 17:15:00 6.6 C 5.81 g/m*3 3.79 C 14.5 km/h
1915 15-12-2011 17:20:00 6.6 C 5.74 g/m*3 4.04 C 12.9 km/h
1916 15-12-2011 17:25:00 6.6 C 5.74 g/m*3 4.32 C 11.3 km/h
1917 15-12-2011 17:30:00 6.6 C 5.74 g/m*3 4.32 C 11.3 km/h
1918 15-12-2011 17:35:00 6.5 C 5.7 g/m*3 4.51 C 9.7 km/h
1919 15-12-2011 17:40:00 6.5 C 5.7 g/m*3 4.2 C 11.3 km/h
1920 15-12-2011 17:45:00 6.5 C 5.7 g/m*3 3.04 C 19.3 km/h
1921 15-12-2011 17:50:00 6.6 C 5.66 g/m*3 3.17 C 19.3 km/h
1922 15-12-2011 17:55:00 6.6 C 5.74 g/m*3 3.79 C 14.5 km/h
1923 15-12-2011 18:00:00 6.5 C 5.62 g/m*3 3.92 C 12.9 km/h
1924 15-12-2011 18:05:00 6.5 C 5.62 g/m*3 4.2 C 11.3 km/h
1925 15-12-2011 18:10:00 6.5 C 5.62 g/m*3 3.92 C 12.9 km/h
Sensor: Nr:Datum:Temp:Abs-Feuchte:Windchill:Wind:
Aussen-T/F 1926 15-12-2011 18:15:00 6.6 C 5.66 g/m*3 3.57 C 16.1 km/h
1927 15-12-2011 18:20:00 6.6 C 5.74 g/m*3 3.79 C 14.5 km/h
1928 15-12-2011 18:25:00 6.6 C 5.66 g/m*3 4.04 C 12.9 km/h
1929 15-12-2011 18:30:00 6.6 C 5.74 g/m*3 3.79 C 14.5 km/h
1930 15-12-2011 18:35:00 6.6 C 5.74 g/m*3 4.04 C 12.9 km/h
1931 15-12-2011 18:40:00 6.6 C 5.74 g/m*3 4.32 C 11.3 km/h
1932 15-12-2011 18:45:00 6.5 C 5.77 g/m*3 3.67 C 14.5 km/h
1933 15-12-2011 18:50:00 6.5 C 5.77 g/m*3 3.04 C 19.3 km/h
1934 15-12-2011 18:55:00 6.5 C 5.85 g/m*3 3.67 C 14.5 km/h
1935 15-12-2011 19:00:00 6.4 C 5.81 g/m*3 4.08 C 11.3 km/h
1936 15-12-2011 19:05:00 6.3 C 5.85 g/m*3 3.43 C 14.5 km/h
1937 15-12-2011 19:10:00 6.3 C 5.85 g/m*3 3.68 C 12.9 km/h
1938 15-12-2011 19:15:00 6.3 C 5.85 g/m*3 2.98 C 17.7 km/h
1939 15-12-2011 19:20:00 6.4 C 5.89 g/m*3 3.8 C 12.9 km/h
1940 15-12-2011 19:25:00 6.4 C 5.89 g/m*3 4.08 C 11.3 km/h
1941 15-12-2011 19:30:00 6.4 C 5.89 g/m*3 5.21 C 6.4 km/h
1942 15-12-2011 19:35:00 6.4 C 5.89 g/m*3 3.32 C 16.1 km/h
1943 15-12-2011 19:40:00 6.4 C 5.89 g/m*3 3.11 C 17.7 km/h
1944 15-12-2011 19:45:00 6.5 C 5.92 g/m*3 3.67 C 14.5 km/h
1945 15-12-2011 19:50:00 6.4 C 5.89 g/m*3 5.21 C 6.4 km/h
1946 15-12-2011 19:55:00 6.5 C 5.92 g/m*3 3.44 C 16.1 km/h
1947 15-12-2011 20:00:00 6.5 C 5.92 g/m*3 3.23 C 17.7 km/h
1948 15-12-2011 20:05:00 6.5 C 5.92 g/m*3 3.67 C 14.5 km/h
1949 15-12-2011 20:10:00 6.5 C 5.85 g/m*3 3.67 C 14.5 km/h
1950 15-12-2011 20:15:00 6.5 C 5.85 g/m*3 4.2 C 11.3 km/h
Sensor: Nr:Datum:Temp:Abs-Feuchte:Windchill:Wind:
Aussen-T/F 1951 15-12-2011 20:20:00 6.6 C 5.89 g/m*3 3.17 C 19.3 km/h
1952 15-12-2011 20:25:00 6.6 C 5.89 g/m*3 4.04 C 12.9 km/h
1953 15-12-2011 20:30:00 6.5 C 5.85 g/m*3 3.92 C 12.9 km/h
1954 15-12-2011 20:35:00 6.5 C 5.85 g/m*3 3.67 C 14.5 km/h
1955 15-12-2011 20:40:00 6.4 C 5.81 g/m*3 3.55 C 14.5 km/h
1956 15-12-2011 20:45:00 6.4 C 5.81 g/m*3 2.91 C 19.3 km/h
1957 15-12-2011 20:50:00 6.4 C 5.89 g/m*3 3.8 C 12.9 km/h
1958 15-12-2011 20:55:00 6.3 C 5.85 g/m*3 3.43 C 14.5 km/h
1959 15-12-2011 21:00:00 6.3 C 5.85 g/m*3 3.68 C 12.9 km/h
1960 15-12-2011 21:05:00 6.3 C 5.85 g/m*3 2.98 C 17.7 km/h
1961 15-12-2011 21:10:00 6.2 C 5.81 g/m*3 4.15 C 9.7 km/h
1962 15-12-2011 21:15:00 6.2 C 5.81 g/m*3 3.3 C 14.5 km/h
1963 15-12-2011 21:20:00 6.2 C 5.81 g/m*3 2.48 C 20.9 km/h
1964 15-12-2011 21:25:00 6.2 C 5.74 g/m*3 3.56 C 12.9 km/h
1965 15-12-2011 21:30:00 6.3 C 5.77 g/m*3 3.68 C 12.9 km/h
1966 15-12-2011 21:35:00 6.3 C 5.77 g/m*3 2.27 C 24.1 km/h
1967 15-12-2011 21:40:00 6.3 C 5.77 g/m*3 3.96 C 11.3 km/h
1968 15-12-2011 21:45:00 6.3 C 5.77 g/m*3 3.96 C 11.3 km/h
1969 15-12-2011 21:50:00 6.2 C 5.81 g/m*3 3.84 C 11.3 km/h
1970 15-12-2011 21:55:00 6.2 C 5.81 g/m*3 4.52 C 8.1 km/h
1971 15-12-2011 22:00:00 6.2 C 5.81 g/m*3 2.86 C 17.7 km/h
1972 15-12-2011 22:05:00 6.2 C 5.74 g/m*3 3.3 C 14.5 km/h
1973 15-12-2011 22:10:00 6.2 C 5.74 g/m*3 3.3 C 14.5 km/h
1974 15-12-2011 22:15:00 6.3 C 5.77 g/m*3 3.2 C 16.1 km/h
1975 15-12-2011 22:20:00 6.3 C 5.77 g/m*3 4.64 C 8.1 km/h
Sensor: Nr:Datum:Temp:Abs-Feuchte:Windchill:Wind:
Aussen-T/F 1976 15-12-2011 22:25:00 6.3 C 5.77 g/m*3 3.96 C 11.3 km/h
1977 15-12-2011 22:30:00 6.3 C 5.77 g/m*3 3.96 C 11.3 km/h
1978 15-12-2011 22:35:00 6.3 C 5.77 g/m*3 3.68 C 12.9 km/h
1979 15-12-2011 22:40:00 6.3 C 5.77 g/m*3 3.96 C 11.3 km/h
1980 15-12-2011 22:45:00 6.3 C 5.77 g/m*3 4.64 C 8.1 km/h
1981 15-12-2011 22:50:00 6.3 C 5.77 g/m*3 4.27 C 9.7 km/h
1982 15-12-2011 22:55:00 6.3 C 5.77 g/m*3 3.96 C 11.3 km/h
1983 15-12-2011 23:00:00 6.4 C 5.74 g/m*3 4.08 C 11.3 km/h
1984 15-12-2011 23:05:00 6.4 C 5.81 g/m*3 4.39 C 9.7 km/h
1985 15-12-2011 23:10:00 6.4 C 5.81 g/m*3 4.39 C 9.7 km/h
1986 15-12-2011 23:15:00 6.4 C 5.74 g/m*3 4.75 C 8.1 km/h
1987 15-12-2011 23:20:00 6.4 C 5.81 g/m*3 4.39 C 9.7 km/h
1988 15-12-2011 23:25:00 6.4 C 5.81 g/m*3 4.75 C 8.1 km/h
1989 15-12-2011 23:30:00 6.3 C 5.77 g/m*3 4.27 C 9.7 km/h
1990 15-12-2011 23:35:00 6.3 C 5.77 g/m*3 4.64 C 8.1 km/h
1991 15-12-2011 23:40:00 6.4 C 5.81 g/m*3 4.75 C 8.1 km/h
1992 15-12-2011 23:45:00 6.4 C 5.81 g/m*3 4.75 C 8.1 km/h
1993 15-12-2011 23:50:00 6.4 C 5.81 g/m*3 6.4 C 4.8 km/h
1994 15-12-2011 23:55:00 6.4 C 5.81 g/m*3 4.75 C 8.1 km/h
1995 16-12-2011 00:00:00 6.4 C 5.81 g/m*3 4.39 C 9.7 km/h
1996 16-12-2011 00:05:00 6.5 C 5.85 g/m*3 4.87 C 8.1 km/h
1997 16-12-2011 00:10:00 6.5 C 5.85 g/m*3 4.51 C 9.7 km/h
1998 16-12-2011 00:15:00 6.4 C 5.81 g/m*3 5.21 C 6.4 km/h
1999 16-12-2011 00:20:00 6.5 C 5.85 g/m*3 6.5 C 4.8 km/h
2000 16-12-2011 00:25:00 6.5 C 5.92 g/m*3 6.5 C 4.8 km/h
Sensor: Nr:Datum:Temp:Abs-Feuchte:Windchill:Wind:
Aussen-T/F 2001 16-12-2011 00:30:00 6.5 C 5.85 g/m*3 6.5 C 4.8 km/h
2002 16-12-2011 00:35:00 6.6 C 5.89 g/m*3 4.63 C 9.7 km/h
2003 16-12-2011 00:40:00 6.6 C 5.96 g/m*3 4.99 C 8.1 km/h
2004 16-12-2011 00:45:00 6.5 C 5.92 g/m*3 6.5 C 4.8 km/h
2005 16-12-2011 00:50:00 6.4 C 5.89 g/m*3 6.4 C 3.2 km/h
2006 16-12-2011 00:55:00 6.4 C 5.81 g/m*3 6.4 C 3.2 km/h
2007 16-12-2011 01:00:00 6.4 C 5.96 g/m*3 6.4 C 4.8 km/h
2008 16-12-2011 01:05:00 6.4 C 5.89 g/m*3 6.4 C 1.6 km/h
2009 16-12-2011 01:10:00 6.4 C 5.89 g/m*3 6.4 C 4.8 km/h
2010 16-12-2011 01:15:00 6.4 C 5.89 g/m*3 6.4 C 4.8 km/h
2011 16-12-2011 01:20:00 6.4 C 5.96 g/m*3 6.4 C 3.2 km/h
2012 16-12-2011 01:25:00 6.3 C 5.92 g/m*3 6.3 C 1.6 km/h
2013 16-12-2011 01:30:00 6.2 C 5.81 g/m*3 6.2 C 4.8 km/h
2014 16-12-2011 01:35:00 6.2 C 5.74 g/m*3 6.2 C 3.2 km/h
2015 16-12-2011 01:40:00 6.3 C 5.85 g/m*3 6.3 C 3.2 km/h
2016 16-12-2011 01:45:00 6.2 C 5.81 g/m*3 6.2 C 1.6 km/h
2017 16-12-2011 01:50:00 6.1 C 5.77 g/m*3 6.1 C 4.8 km/h
2018 16-12-2011 01:55:00 6 C 5.95 g/m*3 6 C 1.6 km/h
2019 16-12-2011 02:00:00 5.8 C 5.8 g/m*3 3.68 C 9.7 km/h
2020 16-12-2011 02:05:00 5.8 C 5.8 g/m*3 4.52 C 6.4 km/h
2021 16-12-2011 02:10:00 5.8 C 5.73 g/m*3 5.8 C 4.8 km/h
2022 16-12-2011 02:15:00 6 C 5.81 g/m*3 6 C 3.2 km/h
2023 16-12-2011 02:20:00 6 C 5.88 g/m*3 6 C 3.2 km/h
2024 16-12-2011 02:25:00 6 C 5.81 g/m*3 6 C 4.8 km/h
2025 16-12-2011 02:30:00 6 C 5.81 g/m*3 6 C 3.2 km/h
Sensor: Nr:Datum:Temp:Abs-Feuchte:Windchill:Wind:
Aussen-T/F 2026 16-12-2011 02:35:00 6 C 5.95 g/m*3 6 C 4.8 km/h
2027 16-12-2011 02:40:00 5.9 C 5.98 g/m*3 4.17 C 8.1 km/h
2028 16-12-2011 02:45:00 5.8 C 5.87 g/m*3 5.8 C 4.8 km/h
2029 16-12-2011 02:50:00 5.7 C 6.05 g/m*3 5.7 C 3.2 km/h
2030 16-12-2011 02:55:00 5.6 C 5.94 g/m*3 4.29 C 6.4 km/h
2031 16-12-2011 03:00:00 5.6 C 6.01 g/m*3 5.6 C 4.8 km/h
2032 16-12-2011 03:05:00 5.5 C 5.9 g/m*3 5.5 C 3.2 km/h
2033 16-12-2011 03:10:00 5.4 C 5.93 g/m*3 5.4 C 4.8 km/h
2034 16-12-2011 03:15:00 5.4 C 6 g/m*3 5.4 C 3.2 km/h
2035 16-12-2011 03:20:00 5.2 C 5.99 g/m*3 5.2 C 3.2 km/h
2036 16-12-2011 03:25:00 5.2 C 6.06 g/m*3 5.2 C 3.2 km/h
2037 16-12-2011 03:30:00 5.1 C 6.09 g/m*3 5.1 C 3.2 km/h
2038 16-12-2011 03:35:00 4.9 C 6.01 g/m*3 4.9 C 1.6 km/h
2039 16-12-2011 03:40:00 4.9 C 5.94 g/m*3 4.9 C 3.2 km/h
2040 16-12-2011 03:45:00 4.8 C 5.9 g/m*3 4.8 C 4.8 km/h
2041 16-12-2011 03:50:00 4.7 C 6 g/m*3 4.7 C 4.8 km/h
2042 16-12-2011 03:55:00 4.7 C 5.86 g/m*3 4.7 C 4.8 km/h
2043 16-12-2011 04:00:00 4.7 C 5.93 g/m*3 4.7 C 4.8 km/h
2044 16-12-2011 04:05:00 4.6 C 5.89 g/m*3 4.6 C 4.8 km/h
2045 16-12-2011 04:10:00 4.6 C 5.96 g/m*3 3.13 C 6.4 km/h
2046 16-12-2011 04:15:00 4.5 C 5.85 g/m*3 4.5 C 3.2 km/h
2047 16-12-2011 04:20:00 4.5 C 5.78 g/m*3 2.52 C 8.1 km/h
2048 16-12-2011 04:25:00 4.4 C 5.81 g/m*3 2.9 C 6.4 km/h
2049 16-12-2011 04:30:00 4.4 C 5.81 g/m*3 4.4 C 4.8 km/h
2050 16-12-2011 04:35:00 4.3 C 5.77 g/m*3 4.3 C 4.8 km/h
Sensor: Nr:Datum:Temp:Abs-Feuchte:Windchill:Wind:
Aussen-T/F 2051 16-12-2011 04:40:00 4.3 C 5.77 g/m*3 1.55 C 11.3 km/h
2052 16-12-2011 04:45:00 4.2 C 5.67 g/m*3 1.43 C 11.3 km/h
2053 16-12-2011 04:50:00 4.1 C 5.63 g/m*3 2.05 C 8.1 km/h
2054 16-12-2011 04:55:00 4.1 C 5.7 g/m*3 2.05 C 8.1 km/h
2055 16-12-2011 05:00:00 4.1 C 5.63 g/m*3 1.65 C 9.7 km/h
2056 16-12-2011 05:05:00 3.9 C 5.56 g/m*3 1.82 C 8.1 km/h
2057 16-12-2011 05:10:00 3.9 C 5.62 g/m*3 1.41 C 9.7 km/h
2058 16-12-2011 05:15:00 3.9 C 5.68 g/m*3 1.41 C 9.7 km/h
2059 16-12-2011 05:20:00 3.8 C 5.58 g/m*3 1.7 C 8.1 km/h
2060 16-12-2011 05:25:00 3.7 C 5.55 g/m*3 1.18 C 9.7 km/h
2061 16-12-2011 05:30:00 3.7 C 5.55 g/m*3 3.7 C 4.8 km/h
2062 16-12-2011 05:35:00 3.7 C 5.55 g/m*3 1.58 C 8.1 km/h
2063 16-12-2011 05:40:00 3.7 C 5.61 g/m*3 1.58 C 8.1 km/h
2064 16-12-2011 05:45:00 3.7 C 5.61 g/m*3 1.58 C 8.1 km/h
2065 16-12-2011 05:50:00 3.6 C 5.57 g/m*3 3.6 C 3.2 km/h
2066 16-12-2011 05:55:00 3.6 C 5.57 g/m*3 3.6 C 4.8 km/h
2067 16-12-2011 06:00:00 3.5 C 5.53 g/m*3 1.86 C 6.4 km/h
2068 16-12-2011 06:05:00 3.4 C 5.56 g/m*3 3.4 C 3.2 km/h
2069 16-12-2011 06:10:00 3.4 C 5.56 g/m*3 3.4 C 3.2 km/h
2070 16-12-2011 06:15:00 3.4 C 5.56 g/m*3 3.4 C 4.8 km/h
2071 16-12-2011 06:20:00 3.4 C 5.56 g/m*3 0.82 C 9.7 km/h
2072 16-12-2011 06:25:00 3.3 C 5.52 g/m*3 3.3 C 3.2 km/h
2073 16-12-2011 06:30:00 3.3 C 5.52 g/m*3 1.11 C 8.1 km/h
2074 16-12-2011 06:35:00 3.3 C 5.52 g/m*3 3.3 C 3.2 km/h
2075 16-12-2011 06:40:00 3.3 C 5.52 g/m*3 3.3 C 3.2 km/h
Sensor: Nr:Datum:Temp:Abs-Feuchte:Windchill:Wind:
Aussen-T/F 2076 16-12-2011 06:45:00 3.3 C 5.52 g/m*3 3.3 C 4.8 km/h
2077 16-12-2011 06:50:00 3.3 C 5.52 g/m*3 1.63 C 6.4 km/h
2078 16-12-2011 06:55:00 3.4 C 5.62 g/m*3 3.4 C 4.8 km/h
2079 16-12-2011 07:00:00 3.4 C 5.62 g/m*3 3.4 C 3.2 km/h
2080 16-12-2011 07:05:00 3.5 C 5.66 g/m*3 3.5 C 3.2 km/h
2081 16-12-2011 07:10:00 3.7 C 5.73 g/m*3 2.09 C 6.4 km/h
2082 16-12-2011 07:15:00 3.8 C 5.83 g/m*3 3.8 C 3.2 km/h
2083 16-12-2011 07:20:00 3.8 C 5.83 g/m*3 3.8 C 3.2 km/h
2084 16-12-2011 07:25:00 3.8 C 5.83 g/m*3 3.8 C 0 km/h
2085 16-12-2011 07:30:00 3.8 C 5.83 g/m*3 3.8 C 3.2 km/h
2086 16-12-2011 07:35:00 3.8 C 5.9 g/m*3 3.8 C 1.6 km/h
2087 16-12-2011 07:40:00 3.9 C 5.94 g/m*3 3.9 C 1.6 km/h
2088 16-12-2011 07:45:00 3.9 C 5.94 g/m*3 3.9 C 3.2 km/h
2089 16-12-2011 07:50:00 4 C 6.04 g/m*3 4 C 3.2 km/h
2090 16-12-2011 07:55:00 4.1 C 6.08 g/m*3 4.1 C 3.2 km/h
2091 16-12-2011 08:00:00 4.2 C 6.12 g/m*3 4.2 C 3.2 km/h
2092 16-12-2011 08:05:00 4.2 C 6.12 g/m*3 4.2 C 1.6 km/h
2093 16-12-2011 08:10:00 4.4 C 6.2 g/m*3 4.4 C 1.6 km/h
2094 16-12-2011 08:15:00 4.6 C 6.29 g/m*3 4.6 C 3.2 km/h
2095 16-12-2011 08:20:00 4.8 C 6.37 g/m*3 4.8 C 3.2 km/h
2096 16-12-2011 08:25:00 4.9 C 6.48 g/m*3 4.9 C 1.6 km/h
2097 16-12-2011 08:30:00 5.1 C 6.57 g/m*3 5.1 C 4.8 km/h
2098 16-12-2011 08:35:00 5.4 C 6.7 g/m*3 5.4 C 4.8 km/h
2099 16-12-2011 08:40:00 5.7 C 6.83 g/m*3 4.4 C 6.4 km/h
2100 16-12-2011 08:45:00 6.3 C 7.11 g/m*3 5.1 C 6.4 km/h
Sensor: Nr:Datum:Temp:Abs-Feuchte:Windchill:Wind:
Aussen-T/F 2101 16-12-2011 08:50:00 6.9 C 7.39 g/m*3 5.34 C 8.1 km/h
2102 16-12-2011 08:55:00 7.3 C 7.58 g/m*3 7.3 C 4.8 km/h
2103 16-12-2011 09:00:00 7.7 C 7.78 g/m*3 7.7 C 4.8 km/h
2104 16-12-2011 09:05:00 7.9 C 7.89 g/m*3 7.9 C 4.8 km/h
2105 16-12-2011 09:10:00 8.2 C 8.04 g/m*3 8.2 C 4.8 km/h
2106 16-12-2011 09:15:00 8.4 C 8.06 g/m*3 7.52 C 6.4 km/h
2107 16-12-2011 09:20:00 8.6 C 8.08 g/m*3 7.01 C 9.7 km/h
2108 16-12-2011 09:25:00 8.8 C 8.01 g/m*3 7.58 C 8.1 km/h
2109 16-12-2011 09:30:00 9.1 C 8.07 g/m*3 7.61 C 9.7 km/h
2110 16-12-2011 09:35:00 9.2 C 8.13 g/m*3 8.05 C 8.1 km/h
2111 16-12-2011 09:40:00 9.3 C 8.18 g/m*3 7.58 C 11.3 km/h
2112 16-12-2011 09:45:00 9.2 C 8.13 g/m*3 8.05 C 8.1 km/h
2113 16-12-2011 09:50:00 9.2 C 8.13 g/m*3 7.46 C 11.3 km/h
2114 16-12-2011 09:55:00 9.4 C 8.14 g/m*3 7.97 C 9.7 km/h
2115 16-12-2011 10:00:00 9.6 C 8.24 g/m*3 6.64 C 22.5 km/h
2116 16-12-2011 10:05:00 9.8 C 8.26 g/m*3 8.18 C 11.3 km/h
2117 16-12-2011 10:10:00 9.9 C 8.31 g/m*3 7.85 C 14.5 km/h
2118 16-12-2011 10:15:00 9.9 C 8.31 g/m*3 9.25 C 6.4 km/h
2119 16-12-2011 10:20:00 10 C 8.36 g/m*3 8.19 C 12.9 km/h
2120 16-12-2011 10:25:00 10.1 C 8.42 g/m*3 8.31 C 12.9 km/h
2121 16-12-2011 10:30:00 10.2 C 8.37 g/m*3 7.54 C 20.9 km/h
2122 16-12-2011 10:35:00 10.3 C 8.43 g/m*3 7.98 C 17.7 km/h
2123 16-12-2011 10:40:00 10.3 C 8.43 g/m*3 8.16 C 16.1 km/h
2124 16-12-2011 10:45:00 10.4 C 8.38 g/m*3 8.28 C 16.1 km/h
2125 16-12-2011 10:50:00 10.6 C 8.39 g/m*3 7.91 C 22.5 km/h
Sensor: Nr:Datum:Temp:Abs-Feuchte:Windchill:Wind:
Aussen-T/F 2126 16-12-2011 10:55:00 10.7 C 8.35 g/m*3 8.48 C 17.7 km/h
2127 16-12-2011 11:00:00 10.8 C 8.4 g/m*3 8.78 C 16.1 km/h
2128 16-12-2011 11:05:00 10.8 C 8.3 g/m*3 8.17 C 22.5 km/h
2129 16-12-2011 11:10:00 10.8 C 8.2 g/m*3 8.45 C 19.3 km/h
2130 16-12-2011 11:15:00 10.9 C 8.16 g/m*3 8.43 C 20.9 km/h
2131 16-12-2011 11:20:00 10.9 C 8.06 g/m*3 8.3 C 22.5 km/h
2132 16-12-2011 11:25:00 10.9 C 8.06 g/m*3 8.3 C 22.5 km/h
2133 16-12-2011 11:30:00 10.9 C 7.96 g/m*3 8.17 C 24.1 km/h
2134 16-12-2011 11:35:00 11 C 7.91 g/m*3 8.05 C 27.4 km/h
2135 16-12-2011 11:40:00 11.1 C 7.96 g/m*3 11.1 C 27.4 km/h
2136 16-12-2011 11:45:00 11 C 7.91 g/m*3 8.42 C 22.5 km/h
2137 16-12-2011 11:50:00 10.9 C 7.86 g/m*3 8.05 C 25.7 km/h
2138 16-12-2011 11:55:00 10.9 C 7.86 g/m*3 8.05 C 25.7 km/h
2139 16-12-2011 12:00:00 10.9 C 7.86 g/m*3 8.73 C 17.7 km/h
2140 16-12-2011 12:05:00 10.9 C 7.86 g/m*3 8.3 C 22.5 km/h
2141 16-12-2011 12:10:00 10.8 C 7.81 g/m*3 8.3 C 20.9 km/h
2142 16-12-2011 12:15:00 10.8 C 7.81 g/m*3 8.61 C 17.7 km/h
2143 16-12-2011 12:20:00 10.9 C 7.86 g/m*3 7.81 C 29 km/h
2144 16-12-2011 12:25:00 10.8 C 7.81 g/m*3 8.96 C 14.5 km/h
2145 16-12-2011 12:30:00 10.8 C 7.81 g/m*3 8.17 C 22.5 km/h
2146 16-12-2011 12:35:00 10.7 C 7.76 g/m*3 8.65 C 16.1 km/h
2147 16-12-2011 12:40:00 10.7 C 7.66 g/m*3 8.32 C 19.3 km/h
2148 16-12-2011 12:45:00 10.7 C 7.37 g/m*3 8.04 C 22.5 km/h
2149 16-12-2011 12:50:00 10.7 C 7.27 g/m*3 7.45 C 30.6 km/h
2150 16-12-2011 12:55:00 10.7 C 7.07 g/m*3 7.66 C 27.4 km/h
Sensor: Nr:Datum:Temp:Abs-Feuchte:Windchill:Wind:
Aussen-T/F 2151 16-12-2011 13:00:00 10.7 C 7.07 g/m*3 7.91 C 24.1 km/h
2152 16-12-2011 13:05:00 10.6 C 7.12 g/m*3 9.14 C 11.3 km/h
2153 16-12-2011 13:10:00 10.5 C 7.27 g/m*3 8.07 C 19.3 km/h
2154 16-12-2011 13:15:00 10.4 C 7.32 g/m*3 7.95 C 19.3 km/h
2155 16-12-2011 13:20:00 10.3 C 7.09 g/m*3 7.27 C 25.7 km/h
2156 16-12-2011 13:25:00 10.2 C 6.95 g/m*3 7.4 C 22.5 km/h
2157 16-12-2011 13:30:00 10.2 C 6.95 g/m*3 7.7 C 19.3 km/h
2158 16-12-2011 13:35:00 10.1 C 6.9 g/m*3 7.42 C 20.9 km/h
2159 16-12-2011 13:40:00 10 C 6.95 g/m*3 7.44 C 19.3 km/h
2160 16-12-2011 13:45:00 9.9 C 7 g/m*3 7.85 C 14.5 km/h
2161 16-12-2011 13:50:00 9.7 C 6.91 g/m*3 6.91 C 20.9 km/h
2162 16-12-2011 13:55:00 9.6 C 6.87 g/m*3 6.94 C 19.3 km/h
2163 16-12-2011 14:00:00 9.5 C 6.92 g/m*3 7.36 C 14.5 km/h
2164 16-12-2011 14:05:00 9.4 C 6.78 g/m*3 7.04 C 16.1 km/h
2165 16-12-2011 14:10:00 9.3 C 6.56 g/m*3 7.12 C 14.5 km/h
2166 16-12-2011 14:15:00 9.2 C 6.52 g/m*3 6.61 C 17.7 km/h
2167 16-12-2011 14:20:00 9.1 C 6.48 g/m*3 6.15 C 20.9 km/h
2168 16-12-2011 14:25:00 8.9 C 6.04 g/m*3 5.47 C 25.7 km/h
2169 16-12-2011 14:30:00 8.8 C 6.09 g/m*3 6.11 C 17.7 km/h
2170 16-12-2011 14:35:00 8.6 C 5.93 g/m*3 5.22 C 24.1 km/h
2171 16-12-2011 14:40:00 8.4 C 5.77 g/m*3 5.11 C 22.5 km/h
2172 16-12-2011 14:45:00 8.2 C 5.69 g/m*3 4.07 C 32.2 km/h
2173 16-12-2011 14:50:00 8.1 C 5.66 g/m*3 3.94 C 32.2 km/h
2174 16-12-2011 14:55:00 8 C 5.79 g/m*3 4.76 C 20.9 km/h
2175 16-12-2011 15:00:00 7.9 C 5.83 g/m*3 4.98 C 17.7 km/h
Sensor: Nr:Datum:Temp:Abs-Feuchte:Windchill:Wind:
Aussen-T/F 2176 16-12-2011 15:05:00 7.6 C 6.04 g/m*3 4.61 C 17.7 km/h
2177 16-12-2011 15:10:00 7.2 C 5.89 g/m*3 4.53 C 14.5 km/h
2178 16-12-2011 15:15:00 7.1 C 5.69 g/m*3 4.19 C 16.1 km/h
2179 16-12-2011 15:20:00 7.1 C 5.54 g/m*3 3.98 C 17.7 km/h
2180 16-12-2011 15:25:00 7 C 5.5 g/m*3 3.86 C 17.7 km/h
2181 16-12-2011 15:30:00 6.9 C 5.39 g/m*3 3.2 C 22.5 km/h
2182 16-12-2011 15:35:00 6.8 C 5.28 g/m*3 3.07 C 22.5 km/h
2183 16-12-2011 15:40:00 6.7 C 5.32 g/m*3 3.92 C 14.5 km/h
2184 16-12-2011 15:45:00 6.6 C 5.28 g/m*3 2.66 C 24.1 km/h
2185 16-12-2011 15:50:00 6.5 C 5.32 g/m*3 3.23 C 17.7 km/h
2186 16-12-2011 15:55:00 6.4 C 5.29 g/m*3 3.32 C 16.1 km/h
2187 16-12-2011 16:00:00 6.2 C 5.37 g/m*3 2.86 C 17.7 km/h
2188 16-12-2011 16:05:00 6.1 C 5.26 g/m*3 2.73 C 17.7 km/h
2189 16-12-2011 16:10:00 6.1 C 5.26 g/m*3 2.73 C 17.7 km/h
2190 16-12-2011 16:15:00 6.1 C 5.33 g/m*3 3.43 C 12.9 km/h
2191 16-12-2011 16:20:00 6 C 5.23 g/m*3 3.06 C 14.5 km/h
2192 16-12-2011 16:25:00 5.9 C 5.19 g/m*3 2.93 C 14.5 km/h
2193 16-12-2011 16:30:00 5.9 C 5.19 g/m*3 2.93 C 14.5 km/h
2194 16-12-2011 16:35:00 5.9 C 5.12 g/m*3 2.93 C 14.5 km/h
2195 16-12-2011 16:40:00 5.9 C 5.12 g/m*3 1.45 C 27.4 km/h
2196 16-12-2011 16:45:00 5.8 C 5.09 g/m*3 2.16 C 19.3 km/h
2197 16-12-2011 16:50:00 5.8 C 5.09 g/m*3 2.16 C 19.3 km/h
2198 16-12-2011 16:55:00 5.7 C 5.05 g/m*3 2.69 C 14.5 km/h
2199 16-12-2011 17:00:00 5.7 C 5.12 g/m*3 2.45 C 16.1 km/h
2200 16-12-2011 17:05:00 5.6 C 5.16 g/m*3 2.11 C 17.7 km/h
Sensor: Nr:Datum:Temp:Abs-Feuchte:Windchill:Wind:
Aussen-T/F 2201 16-12-2011 17:10:00 5.6 C 5.16 g/m*3 2.33 C 16.1 km/h
2202 16-12-2011 17:15:00 5.5 C 5.2 g/m*3 2.44 C 14.5 km/h
2203 16-12-2011 17:20:00 5.4 C 5.23 g/m*3 2.58 C 12.9 km/h
2204 16-12-2011 17:25:00 5.4 C 5.16 g/m*3 2.58 C 12.9 km/h
2205 16-12-2011 17:30:00 5.4 C 5.16 g/m*3 2.08 C 16.1 km/h
2206 16-12-2011 17:35:00 5.4 C 5.3 g/m*3 3.2 C 9.7 km/h
2207 16-12-2011 17:40:00 5.3 C 5.27 g/m*3 2.2 C 14.5 km/h
2208 16-12-2011 17:45:00 5.3 C 5.34 g/m*3 2.46 C 12.9 km/h
2209 16-12-2011 17:50:00 5.2 C 5.3 g/m*3 2.07 C 14.5 km/h
2210 16-12-2011 17:55:00 5.2 C 5.3 g/m*3 1.61 C 17.7 km/h
2211 16-12-2011 18:00:00 5.2 C 5.37 g/m*3 2.34 C 12.9 km/h
2212 16-12-2011 18:05:00 5.2 C 5.37 g/m*3 2.07 C 14.5 km/h
2213 16-12-2011 18:10:00 5.2 C 5.37 g/m*3 1.83 C 16.1 km/h
2214 16-12-2011 18:15:00 5.2 C 5.37 g/m*3 2.34 C 12.9 km/h
2215 16-12-2011 18:20:00 5.3 C 5.41 g/m*3 2.75 C 11.3 km/h
2216 16-12-2011 18:25:00 5.3 C 5.41 g/m*3 2.2 C 14.5 km/h
2217 16-12-2011 18:30:00 5.3 C 5.41 g/m*3 1.74 C 17.7 km/h
2218 16-12-2011 18:35:00 5.2 C 5.44 g/m*3 2.63 C 11.3 km/h
2219 16-12-2011 18:40:00 5.1 C 5.47 g/m*3 2.22 C 12.9 km/h
2220 16-12-2011 18:45:00 5.1 C 5.47 g/m*3 1.95 C 14.5 km/h
2221 16-12-2011 18:50:00 4.9 C 5.54 g/m*3 2.27 C 11.3 km/h
2222 16-12-2011 18:55:00 4.8 C 5.5 g/m*3 2.15 C 11.3 km/h
2223 16-12-2011 19:00:00 4.7 C 5.53 g/m*3 1.21 C 16.1 km/h
2224 16-12-2011 19:05:00 4.6 C 5.56 g/m*3 1.09 C 16.1 km/h
2225 16-12-2011 19:10:00 4.5 C 5.59 g/m*3 1.21 C 14.5 km/h
Sensor: Nr:Datum:Temp:Abs-Feuchte:Windchill:Wind:
Aussen-T/F 2226 16-12-2011 19:15:00 4.4 C 5.55 g/m*3 1.09 C 14.5 km/h
2227 16-12-2011 19:20:00 4.4 C 5.62 g/m*3 1.67 C 11.3 km/h
2228 16-12-2011 19:25:00 4.4 C 5.62 g/m*3 1.67 C 11.3 km/h
2229 16-12-2011 19:30:00 4.3 C 5.58 g/m*3 0.97 C 14.5 km/h
2230 16-12-2011 19:35:00 4.3 C 5.58 g/m*3 1.24 C 12.9 km/h
2231 16-12-2011 19:40:00 4.3 C 5.58 g/m*3 0.72 C 16.1 km/h
2232 16-12-2011 19:45:00 4.3 C 5.58 g/m*3 0.72 C 16.1 km/h
2233 16-12-2011 19:50:00 4.2 C 5.54 g/m*3 1.12 C 12.9 km/h
2234 16-12-2011 19:55:00 4.3 C 5.51 g/m*3 0.49 C 17.7 km/h
2235 16-12-2011 20:00:00 4.2 C 5.48 g/m*3 1.12 C 12.9 km/h
2236 16-12-2011 20:05:00 4.1 C 5.44 g/m*3 0.72 C 14.5 km/h
2237 16-12-2011 20:10:00 4.1 C 5.44 g/m*3 0.24 C 17.7 km/h
2238 16-12-2011 20:15:00 3.9 C 5.43 g/m*3 0.47 C 14.5 km/h
2239 16-12-2011 20:20:00 3.9 C 5.49 g/m*3 0.47 C 14.5 km/h
2240 16-12-2011 20:25:00 3.8 C 5.4 g/m*3 -0.14 C 17.7 km/h
2241 16-12-2011 20:30:00 3.7 C 5.3 g/m*3 -0.03 C 16.1 km/h
2242 16-12-2011 20:35:00 3.6 C 5.32 g/m*3 -0.39 C 17.7 km/h
2243 16-12-2011 20:40:00 3.6 C 5.26 g/m*3 0.11 C 14.5 km/h
2244 16-12-2011 20:45:00 3.6 C 5.26 g/m*3 -0.81 C 20.9 km/h
2245 16-12-2011 20:50:00 3.6 C 5.26 g/m*3 -1.01 C 22.5 km/h
2246 16-12-2011 20:55:00 3.6 C 5.26 g/m*3 -0.15 C 16.1 km/h
2247 16-12-2011 21:00:00 3.5 C 5.23 g/m*3 -0.02 C 14.5 km/h
2248 16-12-2011 21:05:00 3.6 C 5.26 g/m*3 -0.15 C 16.1 km/h
2249 16-12-2011 21:10:00 3.6 C 5.2 g/m*3 0.11 C 14.5 km/h
2250 16-12-2011 21:15:00 3.6 C 5.2 g/m*3 0.11 C 14.5 km/h
Sensor: Nr:Datum:Temp:Abs-Feuchte:Windchill:Wind:
Aussen-T/F 2251 16-12-2011 21:20:00 3.6 C 5.2 g/m*3 0.39 C 12.9 km/h
2252 16-12-2011 21:25:00 3.6 C 5.14 g/m*3 0.39 C 12.9 km/h
2253 16-12-2011 21:30:00 3.6 C 5.2 g/m*3 -0.15 C 16.1 km/h
2254 16-12-2011 21:35:00 3.7 C 5.23 g/m*3 -0.69 C 20.9 km/h
2255 16-12-2011 21:40:00 3.7 C 5.17 g/m*3 -0.48 C 19.3 km/h
2256 16-12-2011 21:45:00 3.6 C 5.2 g/m*3 0.7 C 11.3 km/h
2257 16-12-2011 21:50:00 3.6 C 5.2 g/m*3 -0.15 C 16.1 km/h
2258 16-12-2011 21:55:00 3.5 C 5.23 g/m*3 -1.31 C 24.1 km/h
2259 16-12-2011 22:00:00 3.4 C 5.19 g/m*3 -1.07 C 20.9 km/h
2260 16-12-2011 22:05:00 3.3 C 5.16 g/m*3 -0.52 C 16.1 km/h
2261 16-12-2011 22:10:00 3.3 C 5.16 g/m*3 -0.26 C 14.5 km/h
2262 16-12-2011 22:15:00 3.3 C 5.22 g/m*3 0.02 C 12.9 km/h
2263 16-12-2011 22:20:00 3.3 C 5.22 g/m*3 -0.26 C 14.5 km/h
2264 16-12-2011 22:25:00 3.2 C 5.18 g/m*3 -0.1 C 12.9 km/h
2265 16-12-2011 22:30:00 3.2 C 5.18 g/m*3 -0.65 C 16.1 km/h
2266 16-12-2011 22:35:00 3.2 C 5.18 g/m*3 0.99 C 8.1 km/h
2267 16-12-2011 22:40:00 3.2 C 5.18 g/m*3 0.99 C 8.1 km/h
2268 16-12-2011 22:45:00 3.2 C 5.18 g/m*3 0.58 C 9.7 km/h
2269 16-12-2011 22:50:00 3.2 C 5.18 g/m*3 0.22 C 11.3 km/h
2270 16-12-2011 22:55:00 3.2 C 5.18 g/m*3 -0.1 C 12.9 km/h
2271 16-12-2011 23:00:00 3.3 C 5.16 g/m*3 0.34 C 11.3 km/h
2272 16-12-2011 23:05:00 3.3 C 5.16 g/m*3 0.02 C 12.9 km/h
2273 16-12-2011 23:10:00 3.3 C 5.22 g/m*3 0.02 C 12.9 km/h
2274 16-12-2011 23:15:00 3.3 C 5.16 g/m*3 1.63 C 6.4 km/h
2275 16-12-2011 23:20:00 3.3 C 5.16 g/m*3 0.34 C 11.3 km/h
Sensor: Nr:Datum:Temp:Abs-Feuchte:Windchill:Wind:
Aussen-T/F 2276 16-12-2011 23:25:00 3.3 C 5.16 g/m*3 0.34 C 11.3 km/h
2277 16-12-2011 23:30:00 3.3 C 5.22 g/m*3 0.34 C 11.3 km/h
2278 16-12-2011 23:35:00 3.3 C 5.28 g/m*3 0.7 C 9.7 km/h
2279 16-12-2011 23:40:00 3.2 C 5.24 g/m*3 0.22 C 11.3 km/h
2280 16-12-2011 23:45:00 3.1 C 5.21 g/m*3 0.1 C 11.3 km/h
2281 16-12-2011 23:50:00 3.1 C 5.27 g/m*3 0.46 C 9.7 km/h
2282 16-12-2011 23:55:00 3.1 C 5.27 g/m*3 0.1 C 11.3 km/h
2283 17-12-2011 00:00:00 3.1 C 5.21 g/m*3 -0.22 C 12.9 km/h
2284 17-12-2011 00:05:00 3.1 C 5.21 g/m*3 0.46 C 9.7 km/h
2285 17-12-2011 00:10:00 3.1 C 5.21 g/m*3 0.46 C 9.7 km/h
2286 17-12-2011 00:15:00 3.1 C 5.21 g/m*3 -0.22 C 12.9 km/h
2287 17-12-2011 00:20:00 3.1 C 5.21 g/m*3 -0.22 C 12.9 km/h
2288 17-12-2011 00:25:00 3.1 C 5.15 g/m*3 -0.22 C 12.9 km/h
2289 17-12-2011 00:30:00 3.1 C 5.15 g/m*3 -0.22 C 12.9 km/h
2290 17-12-2011 00:35:00 3 C 5.11 g/m*3 -0.63 C 14.5 km/h
2291 17-12-2011 00:40:00 3.1 C 5.15 g/m*3 0.1 C 11.3 km/h
2292 17-12-2011 00:45:00 3.1 C 5.15 g/m*3 0.1 C 11.3 km/h
2293 17-12-2011 00:50:00 3.1 C 5.15 g/m*3 0.46 C 9.7 km/h
2294 17-12-2011 00:55:00 3.2 C 5.18 g/m*3 0.22 C 11.3 km/h
2295 17-12-2011 01:00:00 3.2 C 5.12 g/m*3 0.22 C 11.3 km/h
2296 17-12-2011 01:05:00 3.4 C 5.07 g/m*3 -0.4 C 16.1 km/h
2297 17-12-2011 01:10:00 3.5 C 5.1 g/m*3 -0.28 C 16.1 km/h
2298 17-12-2011 01:15:00 3.6 C 5.08 g/m*3 0.7 C 11.3 km/h
2299 17-12-2011 01:20:00 3.6 C 5.14 g/m*3 1.06 C 9.7 km/h
2300 17-12-2011 01:25:00 3.5 C 5.1 g/m*3 0.94 C 9.7 km/h
Sensor: Nr:Datum:Temp:Abs-Feuchte:Windchill:Wind:
Aussen-T/F 2301 17-12-2011 01:30:00 3.5 C 5.04 g/m*3 1.34 C 8.1 km/h
2302 17-12-2011 01:35:00 3.5 C 5.1 g/m*3 1.34 C 8.1 km/h
2303 17-12-2011 01:40:00 3.5 C 5.16 g/m*3 0.94 C 9.7 km/h
2304 17-12-2011 01:45:00 3.4 C 5.25 g/m*3 3.4 C 4.8 km/h
2305 17-12-2011 01:50:00 3.2 C 5.24 g/m*3 0.22 C 11.3 km/h
2306 17-12-2011 01:55:00 3.1 C 5.21 g/m*3 1.4 C 6.4 km/h
2307 17-12-2011 02:00:00 3 C 5.17 g/m*3 0.76 C 8.1 km/h
2308 17-12-2011 02:05:00 2.9 C 5.2 g/m*3 0.22 C 9.7 km/h
2309 17-12-2011 02:10:00 2.9 C 5.2 g/m*3 0.22 C 9.7 km/h
2310 17-12-2011 02:15:00 2.9 C 5.2 g/m*3 0.64 C 8.1 km/h
2311 17-12-2011 02:20:00 2.8 C 5.16 g/m*3 0.52 C 8.1 km/h
2312 17-12-2011 02:25:00 2.8 C 5.16 g/m*3 0.52 C 8.1 km/h
2313 17-12-2011 02:30:00 2.8 C 5.22 g/m*3 0.52 C 8.1 km/h
2314 17-12-2011 02:35:00 2.9 C 5.2 g/m*3 0.22 C 9.7 km/h
2315 17-12-2011 02:40:00 2.9 C 5.2 g/m*3 0.22 C 9.7 km/h
2316 17-12-2011 02:45:00 2.9 C 5.2 g/m*3 -0.14 C 11.3 km/h
2317 17-12-2011 02:50:00 2.8 C 5.16 g/m*3 -0.26 C 11.3 km/h
2318 17-12-2011 02:55:00 2.8 C 5.22 g/m*3 0.1 C 9.7 km/h
2319 17-12-2011 03:00:00 2.7 C 5.19 g/m*3 -0.02 C 9.7 km/h
2320 17-12-2011 03:05:00 2.7 C 5.19 g/m*3 -0.02 C 9.7 km/h
2321 17-12-2011 03:10:00 2.6 C 5.15 g/m*3 -0.83 C 12.9 km/h
2322 17-12-2011 03:15:00 2.4 C 5.08 g/m*3 -0.74 C 11.3 km/h
2323 17-12-2011 03:20:00 2.2 C 5.07 g/m*3 -0.18 C 8.1 km/h
2324 17-12-2011 03:25:00 2.1 C 5.09 g/m*3 -0.3 C 8.1 km/h
2325 17-12-2011 03:30:00 2.1 C 5.09 g/m*3 -0.73 C 9.7 km/h
Sensor: Nr:Datum:Temp:Abs-Feuchte:Windchill:Wind:
Aussen-T/F 2326 17-12-2011 03:35:00 2.2 C 5.18 g/m*3 2.2 C 4.8 km/h
2327 17-12-2011 03:40:00 2.3 C 5.22 g/m*3 0.47 C 6.4 km/h
2328 17-12-2011 03:45:00 2.4 C 5.25 g/m*3 2.4 C 3.2 km/h
2329 17-12-2011 03:50:00 2.5 C 5.23 g/m*3 2.5 C 4.8 km/h
2330 17-12-2011 03:55:00 2.6 C 5.27 g/m*3 0.29 C 8.1 km/h
2331 17-12-2011 04:00:00 2.7 C 5.3 g/m*3 0.4 C 8.1 km/h
2332 17-12-2011 04:05:00 2.7 C 5.3 g/m*3 0.94 C 6.4 km/h
2333 17-12-2011 04:10:00 2.8 C 5.34 g/m*3 2.8 C 3.2 km/h
2334 17-12-2011 04:15:00 2.8 C 5.34 g/m*3 1.05 C 6.4 km/h
2335 17-12-2011 04:20:00 2.8 C 5.34 g/m*3 2.8 C 4.8 km/h
2336 17-12-2011 04:25:00 2.8 C 5.28 g/m*3 2.8 C 4.8 km/h
2337 17-12-2011 04:30:00 2.9 C 5.37 g/m*3 2.9 C 4.8 km/h
2338 17-12-2011 04:35:00 2.8 C 5.34 g/m*3 2.8 C 4.8 km/h
2339 17-12-2011 04:40:00 2.8 C 5.34 g/m*3 2.8 C 3.2 km/h
2340 17-12-2011 04:45:00 2.8 C 5.34 g/m*3 2.8 C 3.2 km/h
2341 17-12-2011 04:50:00 2.8 C 5.4 g/m*3 2.8 C 4.8 km/h
2342 17-12-2011 04:55:00 2.7 C 5.36 g/m*3 2.7 C 4.8 km/h
2343 17-12-2011 05:00:00 2.8 C 5.4 g/m*3 2.8 C 4.8 km/h
2344 17-12-2011 05:05:00 2.8 C 5.46 g/m*3 2.8 C 3.2 km/h
2345 17-12-2011 05:10:00 2.8 C 5.46 g/m*3 2.8 C 3.2 km/h
2346 17-12-2011 05:15:00 2.9 C 5.49 g/m*3 2.9 C 3.2 km/h
2347 17-12-2011 05:20:00 2.9 C 5.49 g/m*3 2.9 C 1.6 km/h
2348 17-12-2011 05:25:00 2.9 C 5.49 g/m*3 0.64 C 8.1 km/h
2349 17-12-2011 05:30:00 3.1 C 5.51 g/m*3 3.1 C 3.2 km/h
2350 17-12-2011 05:35:00 3.2 C 5.54 g/m*3 3.2 C 4.8 km/h
Sensor: Nr:Datum:Temp:Abs-Feuchte:Windchill:Wind:
Aussen-T/F 2351 17-12-2011 05:40:00 3.3 C 5.52 g/m*3 1.63 C 6.4 km/h
2352 17-12-2011 05:45:00 3.4 C 5.56 g/m*3 3.4 C 4.8 km/h
2353 17-12-2011 05:50:00 3.4 C 5.56 g/m*3 3.4 C 4.8 km/h
2354 17-12-2011 05:55:00 3.4 C 5.56 g/m*3 3.4 C 3.2 km/h
2355 17-12-2011 06:00:00 3.5 C 5.53 g/m*3 3.5 C 4.8 km/h
2356 17-12-2011 06:05:00 3.6 C 5.57 g/m*3 3.6 C 4.8 km/h
2357 17-12-2011 06:10:00 3.6 C 5.57 g/m*3 3.6 C 4.8 km/h
2358 17-12-2011 06:15:00 3.7 C 5.61 g/m*3 2.09 C 6.4 km/h
2359 17-12-2011 06:20:00 3.7 C 5.61 g/m*3 3.7 C 3.2 km/h
2360 17-12-2011 06:25:00 3.8 C 5.52 g/m*3 1.29 C 9.7 km/h
2361 17-12-2011 06:30:00 3.9 C 5.62 g/m*3 3.9 C 4.8 km/h
2362 17-12-2011 06:35:00 3.9 C 5.56 g/m*3 3.9 C 4.8 km/h
2363 17-12-2011 06:40:00 3.9 C 5.62 g/m*3 3.9 C 4.8 km/h
2364 17-12-2011 06:45:00 3.9 C 5.56 g/m*3 1.41 C 9.7 km/h
2365 17-12-2011 06:50:00 3.9 C 5.56 g/m*3 1.82 C 8.1 km/h
2366 17-12-2011 06:55:00 3.9 C 5.62 g/m*3 3.9 C 4.8 km/h
2367 17-12-2011 07:00:00 3.9 C 5.62 g/m*3 3.9 C 4.8 km/h
2368 17-12-2011 07:05:00 3.8 C 5.58 g/m*3 2.21 C 6.4 km/h
2369 17-12-2011 07:10:00 3.9 C 5.62 g/m*3 3.9 C 4.8 km/h
2370 17-12-2011 07:15:00 3.9 C 5.56 g/m*3 2.32 C 6.4 km/h
2371 17-12-2011 07:20:00 3.9 C 5.56 g/m*3 3.9 C 4.8 km/h
2372 17-12-2011 07:25:00 3.9 C 5.56 g/m*3 2.32 C 6.4 km/h
2373 17-12-2011 07:30:00 3.9 C 5.62 g/m*3 3.9 C 4.8 km/h
2374 17-12-2011 07:35:00 3.9 C 5.56 g/m*3 3.9 C 4.8 km/h
2375 17-12-2011 07:40:00 3.9 C 5.56 g/m*3 3.9 C 4.8 km/h
Sensor: Nr:Datum:Temp:Abs-Feuchte:Windchill:Wind:
Aussen-T/F 2376 17-12-2011 07:45:00 3.9 C 5.56 g/m*3 1.82 C 8.1 km/h
2377 17-12-2011 07:50:00 3.9 C 5.56 g/m*3 1.82 C 8.1 km/h
2378 17-12-2011 07:55:00 3.9 C 5.62 g/m*3 3.9 C 4.8 km/h
2379 17-12-2011 08:00:00 3.9 C 5.56 g/m*3 3.9 C 4.8 km/h
2380 17-12-2011 08:05:00 3.9 C 5.49 g/m*3 1.82 C 8.1 km/h
2381 17-12-2011 08:10:00 3.9 C 5.49 g/m*3 3.9 C 3.2 km/h
2382 17-12-2011 08:15:00 3.9 C 5.49 g/m*3 1.82 C 8.1 km/h
2383 17-12-2011 08:20:00 3.9 C 5.49 g/m*3 2.32 C 6.4 km/h
2384 17-12-2011 08:25:00 3.9 C 5.49 g/m*3 2.32 C 6.4 km/h
2385 17-12-2011 08:30:00 3.9 C 5.49 g/m*3 1.41 C 9.7 km/h
2386 17-12-2011 08:35:00 3.9 C 5.43 g/m*3 2.32 C 6.4 km/h
2387 17-12-2011 08:40:00 3.9 C 5.43 g/m*3 2.32 C 6.4 km/h
2388 17-12-2011 08:45:00 4 C 5.4 g/m*3 1.93 C 8.1 km/h
2389 17-12-2011 08:50:00 4 C 5.47 g/m*3 2.44 C 6.4 km/h
2390 17-12-2011 08:55:00 3.9 C 5.43 g/m*3 2.32 C 6.4 km/h
2391 17-12-2011 09:00:00 4 C 5.47 g/m*3 1.18 C 11.3 km/h
2392 17-12-2011 09:05:00 4 C 5.47 g/m*3 4 C 4.8 km/h
2393 17-12-2011 09:10:00 4.1 C 5.44 g/m*3 1.65 C 9.7 km/h
2394 17-12-2011 09:15:00 4.1 C 5.44 g/m*3 1.31 C 11.3 km/h
2395 17-12-2011 09:20:00 4.1 C 5.44 g/m*3 2.55 C 6.4 km/h
2396 17-12-2011 09:25:00 4.1 C 5.44 g/m*3 2.55 C 6.4 km/h
2397 17-12-2011 09:30:00 4.1 C 5.44 g/m*3 2.55 C 6.4 km/h
2398 17-12-2011 09:35:00 4 C 5.4 g/m*3 4 C 4.8 km/h
2399 17-12-2011 09:40:00 4 C 5.4 g/m*3 4 C 3.2 km/h
2400 17-12-2011 09:45:00 3.9 C 5.43 g/m*3 3.9 C 4.8 km/h
Sensor: Nr:Datum:Temp:Abs-Feuchte:Windchill:Wind:
Aussen-T/F 2401 17-12-2011 09:50:00 3.9 C 5.43 g/m*3 3.9 C 3.2 km/h
2402 17-12-2011 09:55:00 3.8 C 5.4 g/m*3 3.8 C 4.8 km/h
2403 17-12-2011 10:00:00 3.7 C 5.36 g/m*3 3.7 C 4.8 km/h
2404 17-12-2011 10:05:00 3.7 C 5.3 g/m*3 3.7 C 4.8 km/h
2405 17-12-2011 10:10:00 3.8 C 5.33 g/m*3 2.21 C 6.4 km/h
2406 17-12-2011 10:15:00 3.9 C 5.31 g/m*3 1.82 C 8.1 km/h
2407 17-12-2011 10:20:00 4.1 C 5.38 g/m*3 2.55 C 6.4 km/h
2408 17-12-2011 10:25:00 4.1 C 5.31 g/m*3 2.05 C 8.1 km/h
2409 17-12-2011 10:30:00 4.2 C 5.41 g/m*3 4.2 C 4.8 km/h
2410 17-12-2011 10:35:00 4.2 C 5.48 g/m*3 4.2 C 4.8 km/h
2411 17-12-2011 10:40:00 4.2 C 5.35 g/m*3 4.2 C 4.8 km/h
2412 17-12-2011 10:45:00 4.2 C 5.35 g/m*3 4.2 C 1.6 km/h
2413 17-12-2011 10:50:00 4.2 C 5.35 g/m*3 4.2 C 4.8 km/h
2414 17-12-2011 10:55:00 4.2 C 5.41 g/m*3 4.2 C 4.8 km/h
2415 17-12-2011 11:00:00 4.3 C 5.38 g/m*3 1.89 C 9.7 km/h
2416 17-12-2011 11:05:00 4.4 C 5.35 g/m*3 2.4 C 8.1 km/h
2417 17-12-2011 11:10:00 4.6 C 5.36 g/m*3 3.13 C 6.4 km/h
2418 17-12-2011 11:15:00 4.7 C 5.4 g/m*3 2.37 C 9.7 km/h
2419 17-12-2011 11:20:00 4.7 C 5.53 g/m*3 2.37 C 9.7 km/h
2420 17-12-2011 11:25:00 4.7 C 5.46 g/m*3 3.25 C 6.4 km/h
2421 17-12-2011 11:30:00 4.7 C 5.33 g/m*3 2.76 C 8.1 km/h
2422 17-12-2011 11:35:00 4.9 C 5.4 g/m*3 3.48 C 6.4 km/h
2423 17-12-2011 11:40:00 5 C 5.37 g/m*3 5 C 4.8 km/h
2424 17-12-2011 11:45:00 5.1 C 5.47 g/m*3 5.1 C 4.8 km/h
2425 17-12-2011 11:50:00 5.2 C 5.44 g/m*3 3.34 C 8.1 km/h
Sensor: Nr:Datum:Temp:Abs-Feuchte:Windchill:Wind:
Aussen-T/F 2426 17-12-2011 11:55:00 5.3 C 5.48 g/m*3 5.3 C 4.8 km/h
2427 17-12-2011 12:00:00 5.3 C 5.48 g/m*3 3.94 C 6.4 km/h
2428 17-12-2011 12:05:00 5.3 C 5.41 g/m*3 3.94 C 6.4 km/h
2429 17-12-2011 12:10:00 5.4 C 5.44 g/m*3 5.4 C 4.8 km/h
2430 17-12-2011 12:15:00 5.4 C 5.37 g/m*3 3.58 C 8.1 km/h
2431 17-12-2011 12:20:00 5.4 C 5.44 g/m*3 3.2 C 9.7 km/h
2432 17-12-2011 12:25:00 5.4 C 5.37 g/m*3 2.58 C 12.9 km/h
2433 17-12-2011 12:30:00 5.4 C 5.44 g/m*3 4.06 C 6.4 km/h
2434 17-12-2011 12:35:00 5.4 C 5.44 g/m*3 3.2 C 9.7 km/h
2435 17-12-2011 12:40:00 5.4 C 5.44 g/m*3 2.87 C 11.3 km/h
2436 17-12-2011 12:45:00 5.4 C 5.44 g/m*3 4.06 C 6.4 km/h
2437 17-12-2011 12:50:00 5.4 C 5.51 g/m*3 3.58 C 8.1 km/h
2438 17-12-2011 12:55:00 5.4 C 5.51 g/m*3 3.2 C 9.7 km/h
2439 17-12-2011 13:00:00 5.3 C 5.48 g/m*3 3.46 C 8.1 km/h
2440 17-12-2011 13:05:00 5.3 C 5.54 g/m*3 3.08 C 9.7 km/h
2441 17-12-2011 13:10:00 5.1 C 5.54 g/m*3 3.71 C 6.4 km/h
2442 17-12-2011 13:15:00 5 C 5.57 g/m*3 2.72 C 9.7 km/h
2443 17-12-2011 13:20:00 5 C 5.5 g/m*3 2.39 C 11.3 km/h
2444 17-12-2011 13:25:00 5.1 C 5.54 g/m*3 2.84 C 9.7 km/h
2445 17-12-2011 13:30:00 5.2 C 5.58 g/m*3 2.07 C 14.5 km/h
2446 17-12-2011 13:35:00 5.3 C 5.54 g/m*3 2.75 C 11.3 km/h
2447 17-12-2011 13:40:00 5.4 C 5.51 g/m*3 2.32 C 14.5 km/h
2448 17-12-2011 13:45:00 5.3 C 5.48 g/m*3 2.46 C 12.9 km/h
2449 17-12-2011 13:50:00 5.3 C 5.48 g/m*3 3.46 C 8.1 km/h
2450 17-12-2011 13:55:00 5.4 C 5.51 g/m*3 3.58 C 8.1 km/h
Sensor: Nr:Datum:Temp:Abs-Feuchte:Windchill:Wind:
Aussen-T/F 2451 17-12-2011 14:00:00 5.4 C 5.51 g/m*3 2.32 C 14.5 km/h
2452 17-12-2011 14:05:00 5.3 C 5.61 g/m*3 3.46 C 8.1 km/h
2453 17-12-2011 14:10:00 5.3 C 5.61 g/m*3 5.3 C 4.8 km/h
2454 17-12-2011 14:15:00 5.3 C 5.61 g/m*3 3.94 C 6.4 km/h
2455 17-12-2011 14:20:00 5.3 C 5.54 g/m*3 3.46 C 8.1 km/h
2456 17-12-2011 14:25:00 5.3 C 5.54 g/m*3 5.3 C 4.8 km/h
2457 17-12-2011 14:30:00 5.3 C 5.54 g/m*3 3.94 C 6.4 km/h
2458 17-12-2011 14:35:00 5.5 C 5.55 g/m*3 2.2 C 16.1 km/h
2459 17-12-2011 14:40:00 5.6 C 5.59 g/m*3 2.83 C 12.9 km/h
2460 17-12-2011 14:45:00 5.6 C 5.59 g/m*3 2.33 C 16.1 km/h
2461 17-12-2011 14:50:00 5.6 C 5.51 g/m*3 2.83 C 12.9 km/h
2462 17-12-2011 14:55:00 5.4 C 5.51 g/m*3 4.06 C 6.4 km/h
2463 17-12-2011 15:00:00 5.3 C 5.48 g/m*3 3.46 C 8.1 km/h
2464 17-12-2011 15:05:00 5.3 C 5.48 g/m*3 3.46 C 8.1 km/h
2465 17-12-2011 15:10:00 5.3 C 5.48 g/m*3 3.94 C 6.4 km/h
2466 17-12-2011 15:15:00 5.2 C 5.44 g/m*3 3.82 C 6.4 km/h
2467 17-12-2011 15:20:00 5.1 C 5.4 g/m*3 2.84 C 9.7 km/h
2468 17-12-2011 15:25:00 4.9 C 5.4 g/m*3 2.61 C 9.7 km/h
2469 17-12-2011 15:30:00 4.8 C 5.43 g/m*3 2.15 C 11.3 km/h
2470 17-12-2011 15:35:00 4.7 C 5.4 g/m*3 1.46 C 14.5 km/h
2471 17-12-2011 15:40:00 4.7 C 5.4 g/m*3 2.37 C 9.7 km/h
2472 17-12-2011 15:45:00 4.6 C 5.43 g/m*3 2.25 C 9.7 km/h
2473 17-12-2011 15:50:00 4.6 C 5.43 g/m*3 1.91 C 11.3 km/h
2474 17-12-2011 15:55:00 4.5 C 5.46 g/m*3 1.79 C 11.3 km/h
2475 17-12-2011 16:00:00 4.4 C 5.42 g/m*3 0.61 C 17.7 km/h
Sensor: Nr:Datum:Temp:Abs-Feuchte:Windchill:Wind:
Aussen-T/F 2476 17-12-2011 16:05:00 4.2 C 5.35 g/m*3 0.36 C 17.7 km/h
2477 17-12-2011 16:10:00 4.1 C 5.31 g/m*3 2.05 C 8.1 km/h
2478 17-12-2011 16:15:00 3.9 C 5.31 g/m*3 2.32 C 6.4 km/h
2479 17-12-2011 16:20:00 3.8 C 5.27 g/m*3 1.7 C 8.1 km/h
2480 17-12-2011 16:25:00 3.8 C 5.33 g/m*3 1.7 C 8.1 km/h
2481 17-12-2011 16:30:00 3.8 C 5.33 g/m*3 0.94 C 11.3 km/h
2482 17-12-2011 16:35:00 3.8 C 5.27 g/m*3 1.7 C 8.1 km/h
2483 17-12-2011 16:40:00 3.9 C 5.31 g/m*3 0.75 C 12.9 km/h
2484 17-12-2011 16:45:00 3.9 C 5.31 g/m*3 1.41 C 9.7 km/h
2485 17-12-2011 16:50:00 3.8 C 5.27 g/m*3 1.29 C 9.7 km/h
2486 17-12-2011 16:55:00 3.7 C 5.23 g/m*3 1.18 C 9.7 km/h
2487 17-12-2011 17:00:00 3.7 C 5.23 g/m*3 0.82 C 11.3 km/h
2488 17-12-2011 17:05:00 3.6 C 5.2 g/m*3 1.06 C 9.7 km/h
2489 17-12-2011 17:10:00 3.5 C 5.16 g/m*3 1.34 C 8.1 km/h
2490 17-12-2011 17:15:00 3.4 C 5.13 g/m*3 1.75 C 6.4 km/h
2491 17-12-2011 17:20:00 3.4 C 5.13 g/m*3 0.82 C 9.7 km/h
2492 17-12-2011 17:25:00 3.2 C 5.12 g/m*3 -0.1 C 12.9 km/h
2493 17-12-2011 17:30:00 3.2 C 5.12 g/m*3 0.99 C 8.1 km/h
2494 17-12-2011 17:35:00 3 C 5.05 g/m*3 -0.02 C 11.3 km/h
2495 17-12-2011 17:40:00 2.9 C 5.02 g/m*3 -0.14 C 11.3 km/h
2496 17-12-2011 17:45:00 3.1 C 4.97 g/m*3 0.46 C 9.7 km/h
2497 17-12-2011 17:50:00 3.2 C 5 g/m*3 0.99 C 8.1 km/h
2498 17-12-2011 17:55:00 3.1 C 4.97 g/m*3 0.87 C 8.1 km/h
2499 17-12-2011 18:00:00 3 C 4.93 g/m*3 0.34 C 9.7 km/h
2500 17-12-2011 18:05:00 2.8 C 4.93 g/m*3 1.05 C 6.4 km/h
Sensor: Nr:Datum:Temp:Abs-Feuchte:Windchill:Wind:
Aussen-T/F 2501 17-12-2011 18:10:00 2.6 C 4.86 g/m*3 -0.14 C 9.7 km/h
2502 17-12-2011 18:15:00 2.4 C 4.91 g/m*3 0.05 C 8.1 km/h
2503 17-12-2011 18:20:00 2.4 C 4.85 g/m*3 0.05 C 8.1 km/h
2504 17-12-2011 18:25:00 2.6 C 4.92 g/m*3 -0.5 C 11.3 km/h
2505 17-12-2011 18:30:00 2.6 C 4.92 g/m*3 -0.14 C 9.7 km/h
2506 17-12-2011 18:35:00 2.7 C 4.95 g/m*3 -0.38 C 11.3 km/h
2507 17-12-2011 18:40:00 2.8 C 4.93 g/m*3 0.1 C 9.7 km/h
2508 17-12-2011 18:45:00 2.9 C 4.9 g/m*3 1.17 C 6.4 km/h
2509 17-12-2011 18:50:00 2.8 C 4.93 g/m*3 0.52 C 8.1 km/h
2510 17-12-2011 18:55:00 2.8 C 4.93 g/m*3 0.52 C 8.1 km/h
2511 17-12-2011 19:00:00 2.7 C 4.89 g/m*3 2.7 C 4.8 km/h
2512 17-12-2011 19:05:00 2.6 C 4.92 g/m*3 0.82 C 6.4 km/h
2513 17-12-2011 19:10:00 2.4 C 4.85 g/m*3 -1.07 C 12.9 km/h
2514 17-12-2011 19:15:00 2.5 C 4.89 g/m*3 -0.26 C 9.7 km/h
2515 17-12-2011 19:20:00 2.5 C 4.89 g/m*3 -0.26 C 9.7 km/h
2516 17-12-2011 19:25:00 2.4 C 4.85 g/m*3 -0.37 C 9.7 km/h
2517 17-12-2011 19:30:00 2.3 C 4.88 g/m*3 2.3 C 4.8 km/h
2518 17-12-2011 19:35:00 2.2 C 4.84 g/m*3 0.36 C 6.4 km/h
2519 17-12-2011 19:40:00 2.2 C 4.84 g/m*3 -0.18 C 8.1 km/h
2520 17-12-2011 19:45:00 2.2 C 4.9 g/m*3 0.36 C 6.4 km/h
2521 17-12-2011 19:50:00 2.2 C 4.84 g/m*3 2.2 C 4.8 km/h
2522 17-12-2011 19:55:00 2.1 C 4.87 g/m*3 2.1 C 3.2 km/h
2523 17-12-2011 20:00:00 1.9 C 4.8 g/m*3 1.9 C 3.2 km/h
2524 17-12-2011 20:05:00 1.8 C 4.82 g/m*3 1.8 C 3.2 km/h
2525 17-12-2011 20:10:00 1.7 C 4.79 g/m*3 1.7 C 3.2 km/h
Sensor: Nr:Datum:Temp:Abs-Feuchte:Windchill:Wind:
Aussen-T/F 2526 17-12-2011 20:15:00 1.7 C 4.79 g/m*3 1.7 C 4.8 km/h
2527 17-12-2011 20:20:00 1.7 C 4.79 g/m*3 -0.22 C 6.4 km/h
2528 17-12-2011 20:25:00 1.9 C 4.8 g/m*3 1.9 C 4.8 km/h
2529 17-12-2011 20:30:00 2.2 C 4.84 g/m*3 -0.61 C 9.7 km/h
2530 17-12-2011 20:35:00 2.3 C 4.76 g/m*3 -0.87 C 11.3 km/h
2531 17-12-2011 20:40:00 2.8 C 4.81 g/m*3 -0.59 C 12.9 km/h
2532 17-12-2011 20:45:00 3.3 C 4.85 g/m*3 -0.26 C 14.5 km/h
2533 17-12-2011 20:50:00 3.4 C 4.89 g/m*3 -0.14 C 14.5 km/h
2534 17-12-2011 20:55:00 3.3 C 4.79 g/m*3 -0.26 C 14.5 km/h
2535 17-12-2011 21:00:00 3.4 C 4.83 g/m*3 -0.14 C 14.5 km/h
2536 17-12-2011 21:05:00 3.5 C 4.8 g/m*3 -0.02 C 14.5 km/h
2537 17-12-2011 21:10:00 3.5 C 4.8 g/m*3 0.58 C 11.3 km/h
2538 17-12-2011 21:15:00 3.4 C 4.76 g/m*3 0.14 C 12.9 km/h
2539 17-12-2011 21:20:00 3.6 C 4.83 g/m*3 -0.15 C 16.1 km/h
2540 17-12-2011 21:25:00 3.6 C 4.89 g/m*3 1.06 C 9.7 km/h
2541 17-12-2011 21:30:00 3.3 C 4.85 g/m*3 1.63 C 6.4 km/h
2542 17-12-2011 21:35:00 3.1 C 4.91 g/m*3 3.1 C 4.8 km/h
2543 17-12-2011 21:40:00 2.9 C 4.96 g/m*3 1.17 C 6.4 km/h
2544 17-12-2011 21:45:00 2.8 C 4.93 g/m*3 2.8 C 4.8 km/h
2545 17-12-2011 21:50:00 2.8 C 4.93 g/m*3 2.8 C 1.6 km/h
2546 17-12-2011 21:55:00 2.8 C 4.93 g/m*3 0.52 C 8.1 km/h
2547 17-12-2011 22:00:00 2.8 C 4.93 g/m*3 2.8 C 4.8 km/h
2548 17-12-2011 22:05:00 2.7 C 4.84 g/m*3 2.7 C 4.8 km/h
2549 17-12-2011 22:10:00 2.7 C 4.89 g/m*3 0.94 C 6.4 km/h
2550 17-12-2011 22:15:00 2.8 C 4.87 g/m*3 0.1 C 9.7 km/h
Sensor: Nr:Datum:Temp:Abs-Feuchte:Windchill:Wind:
Aussen-T/F 2551 17-12-2011 22:20:00 2.9 C 4.9 g/m*3 -0.46 C 12.9 km/h
2552 17-12-2011 22:25:00 3.1 C 4.97 g/m*3 0.87 C 8.1 km/h
2553 17-12-2011 22:30:00 3.1 C 4.97 g/m*3 0.46 C 9.7 km/h
2554 17-12-2011 22:35:00 3.1 C 4.97 g/m*3 0.87 C 8.1 km/h
2555 17-12-2011 22:40:00 3.2 C 5 g/m*3 0.99 C 8.1 km/h
2556 17-12-2011 22:45:00 3.2 C 5 g/m*3 -0.39 C 14.5 km/h
2557 17-12-2011 22:50:00 3.3 C 5.04 g/m*3 0.7 C 9.7 km/h
2558 17-12-2011 22:55:00 3.4 C 5.07 g/m*3 0.46 C 11.3 km/h
2559 17-12-2011 23:00:00 3.6 C 5.14 g/m*3 0.39 C 12.9 km/h
2560 17-12-2011 23:05:00 3.6 C 5.14 g/m*3 3.6 C 4.8 km/h
2561 17-12-2011 23:10:00 3.6 C 5.14 g/m*3 1.98 C 6.4 km/h
2562 17-12-2011 23:15:00 3.6 C 5.14 g/m*3 3.6 C 4.8 km/h
2563 17-12-2011 23:20:00 3.5 C 5.1 g/m*3 1.86 C 6.4 km/h
2564 17-12-2011 23:25:00 3.4 C 5.13 g/m*3 0.46 C 11.3 km/h
2565 17-12-2011 23:30:00 3.3 C 5.04 g/m*3 0.7 C 9.7 km/h
2566 17-12-2011 23:35:00 3.3 C 5.04 g/m*3 0.34 C 11.3 km/h
2567 17-12-2011 23:40:00 3.2 C 4.94 g/m*3 0.22 C 11.3 km/h
2568 17-12-2011 23:45:00 3.2 C 4.94 g/m*3 0.58 C 9.7 km/h
2569 17-12-2011 23:50:00 3.2 C 4.94 g/m*3 0.58 C 9.7 km/h
2570 17-12-2011 23:55:00 3.2 C 5 g/m*3 0.99 C 8.1 km/h
2571 18-12-2011 00:00:00 3.2 C 5 g/m*3 0.22 C 11.3 km/h
2572 18-12-2011 00:05:00 3.2 C 5 g/m*3 0.99 C 8.1 km/h
2573 18-12-2011 00:10:00 3.2 C 5 g/m*3 0.99 C 8.1 km/h
2574 18-12-2011 00:15:00 3.3 C 4.97 g/m*3 1.11 C 8.1 km/h
2575 18-12-2011 00:20:00 3.3 C 4.97 g/m*3 1.11 C 8.1 km/h
Sensor: Nr:Datum:Temp:Abs-Feuchte:Windchill:Wind:
Aussen-T/F 2576 18-12-2011 00:25:00 3.3 C 4.97 g/m*3 1.11 C 8.1 km/h
2577 18-12-2011 00:30:00 3.2 C 5 g/m*3 3.2 C 4.8 km/h
2578 18-12-2011 00:35:00 3.2 C 5 g/m*3 0.99 C 8.1 km/h
2579 18-12-2011 00:40:00 3.1 C 4.97 g/m*3 3.1 C 3.2 km/h
2580 18-12-2011 00:45:00 3 C 4.93 g/m*3 1.28 C 6.4 km/h
2581 18-12-2011 00:50:00 3.1 C 4.97 g/m*3 0.46 C 9.7 km/h
2582 18-12-2011 00:55:00 3.1 C 4.97 g/m*3 0.46 C 9.7 km/h
2583 18-12-2011 01:00:00 3.1 C 4.97 g/m*3 -0.51 C 14.5 km/h
2584 18-12-2011 01:05:00 3.2 C 5.06 g/m*3 -0.89 C 17.7 km/h
2585 18-12-2011 01:10:00 3.2 C 5 g/m*3 -0.65 C 16.1 km/h
2586 18-12-2011 01:15:00 3.2 C 5 g/m*3 0.99 C 8.1 km/h
2587 18-12-2011 01:20:00 3.2 C 5 g/m*3 0.58 C 9.7 km/h
2588 18-12-2011 01:25:00 3.2 C 5.06 g/m*3 0.58 C 9.7 km/h
2589 18-12-2011 01:30:00 3.2 C 5 g/m*3 0.22 C 11.3 km/h
2590 18-12-2011 01:35:00 3.2 C 5 g/m*3 0.58 C 9.7 km/h
2591 18-12-2011 01:40:00 3.2 C 5 g/m*3 0.22 C 11.3 km/h
2592 18-12-2011 01:45:00 3.2 C 5.06 g/m*3 0.99 C 8.1 km/h
2593 18-12-2011 01:50:00 3.2 C 5.06 g/m*3 -0.1 C 12.9 km/h
2594 18-12-2011 01:55:00 3.2 C 5.06 g/m*3 0.99 C 8.1 km/h
2595 18-12-2011 02:00:00 3.2 C 5.06 g/m*3 0.58 C 9.7 km/h
2596 18-12-2011 02:05:00 3.2 C 5.06 g/m*3 0.99 C 8.1 km/h
2597 18-12-2011 02:10:00 3.1 C 5.09 g/m*3 1.4 C 6.4 km/h
2598 18-12-2011 02:15:00 3.1 C 5.09 g/m*3 0.87 C 8.1 km/h
2599 18-12-2011 02:20:00 3.1 C 5.09 g/m*3 1.4 C 6.4 km/h
2600 18-12-2011 02:25:00 3.2 C 5.06 g/m*3 -0.1 C 12.9 km/h
Sensor: Nr:Datum:Temp:Abs-Feuchte:Windchill:Wind:
Aussen-T/F 2601 18-12-2011 02:30:00 3.2 C 5.06 g/m*3 0.58 C 9.7 km/h
2602 18-12-2011 02:35:00 3.3 C 5.04 g/m*3 0.34 C 11.3 km/h
2603 18-12-2011 02:40:00 3.3 C 5.04 g/m*3 1.11 C 8.1 km/h
2604 18-12-2011 02:45:00 3.4 C 5.07 g/m*3 0.82 C 9.7 km/h
2605 18-12-2011 02:50:00 3.4 C 5.07 g/m*3 0.82 C 9.7 km/h
2606 18-12-2011 02:55:00 3.4 C 5.07 g/m*3 0.82 C 9.7 km/h
2607 18-12-2011 03:00:00 3.4 C 5.07 g/m*3 0.82 C 9.7 km/h
2608 18-12-2011 03:05:00 3.4 C 5.01 g/m*3 1.23 C 8.1 km/h
2609 18-12-2011 03:10:00 3.4 C 5.01 g/m*3 0.82 C 9.7 km/h
2610 18-12-2011 03:15:00 3.4 C 5.01 g/m*3 1.75 C 6.4 km/h
2611 18-12-2011 03:20:00 3.4 C 5.01 g/m*3 0.82 C 9.7 km/h
2612 18-12-2011 03:25:00 3.3 C 5.04 g/m*3 1.11 C 8.1 km/h
2613 18-12-2011 03:30:00 3.2 C 5 g/m*3 1.51 C 6.4 km/h
2614 18-12-2011 03:35:00 3.1 C 4.97 g/m*3 0.87 C 8.1 km/h
2615 18-12-2011 03:40:00 3.1 C 5.03 g/m*3 1.4 C 6.4 km/h
2616 18-12-2011 03:45:00 2.9 C 4.96 g/m*3 0.64 C 8.1 km/h
2617 18-12-2011 03:50:00 2.8 C 4.99 g/m*3 0.52 C 8.1 km/h
2618 18-12-2011 03:55:00 2.6 C 4.98 g/m*3 2.6 C 4.8 km/h
2619 18-12-2011 04:00:00 2.4 C 4.91 g/m*3 2.4 C 4.8 km/h
2620 18-12-2011 04:05:00 2.3 C 4.88 g/m*3 2.3 C 4.8 km/h
2621 18-12-2011 04:10:00 2.3 C 4.88 g/m*3 -0.49 C 9.7 km/h
2622 18-12-2011 04:15:00 2.4 C 4.85 g/m*3 0.59 C 6.4 km/h
2623 18-12-2011 04:20:00 2.4 C 4.85 g/m*3 0.05 C 8.1 km/h
2624 18-12-2011 04:25:00 2.6 C 4.86 g/m*3 -0.14 C 9.7 km/h
2625 18-12-2011 04:30:00 2.8 C 4.87 g/m*3 -1.14 C 16.1 km/h
Sensor: Nr:Datum:Temp:Abs-Feuchte:Windchill:Wind:
Aussen-T/F 2626 18-12-2011 04:35:00 2.9 C 4.78 g/m*3 -0.76 C 14.5 km/h
2627 18-12-2011 04:40:00 2.9 C 4.78 g/m*3 -0.76 C 14.5 km/h
2628 18-12-2011 04:45:00 2.9 C 4.84 g/m*3 -0.14 C 11.3 km/h
2629 18-12-2011 04:50:00 2.7 C 4.84 g/m*3 0.4 C 8.1 km/h
2630 18-12-2011 04:55:00 2.7 C 4.89 g/m*3 -0.71 C 12.9 km/h
2631 18-12-2011 05:00:00 2.7 C 4.89 g/m*3 0.4 C 8.1 km/h
2632 18-12-2011 05:05:00 2.6 C 4.86 g/m*3 0.29 C 8.1 km/h
2633 18-12-2011 05:10:00 2.6 C 4.92 g/m*3 -0.14 C 9.7 km/h
2634 18-12-2011 05:15:00 2.6 C 4.86 g/m*3 -1.12 C 14.5 km/h
2635 18-12-2011 05:20:00 2.6 C 4.92 g/m*3 -1.64 C 17.7 km/h
2636 18-12-2011 05:25:00 2.6 C 4.86 g/m*3 -0.5 C 11.3 km/h
2637 18-12-2011 05:30:00 2.6 C 4.86 g/m*3 -0.5 C 11.3 km/h
2638 18-12-2011 05:35:00 2.6 C 4.86 g/m*3 -1.12 C 14.5 km/h
2639 18-12-2011 05:40:00 2.6 C 4.86 g/m*3 -0.83 C 12.9 km/h
2640 18-12-2011 05:45:00 2.5 C 4.89 g/m*3 -0.26 C 9.7 km/h
2641 18-12-2011 05:50:00 2.4 C 4.85 g/m*3 2.4 C 4.8 km/h
2642 18-12-2011 05:55:00 2.3 C 4.82 g/m*3 2.3 C 3.2 km/h
2643 18-12-2011 06:00:00 2.2 C 4.84 g/m*3 2.2 C 4.8 km/h
2644 18-12-2011 06:05:00 2.1 C 4.87 g/m*3 2.1 C 3.2 km/h
2645 18-12-2011 06:10:00 2.2 C 4.9 g/m*3 2.2 C 4.8 km/h
2646 18-12-2011 06:15:00 2.1 C 4.87 g/m*3 2.1 C 4.8 km/h
2647 18-12-2011 06:20:00 2.2 C 4.9 g/m*3 0.36 C 6.4 km/h
2648 18-12-2011 06:25:00 2.2 C 4.84 g/m*3 2.2 C 4.8 km/h
2649 18-12-2011 06:30:00 2.2 C 4.9 g/m*3 0.36 C 6.4 km/h
2650 18-12-2011 06:35:00 2.2 C 4.84 g/m*3 0.36 C 6.4 km/h
Sensor: Nr:Datum:Temp:Abs-Feuchte:Windchill:Wind:
Aussen-T/F 2651 18-12-2011 06:40:00 2.3 C 4.88 g/m*3 0.47 C 6.4 km/h
2652 18-12-2011 06:45:00 2.3 C 4.88 g/m*3 2.3 C 4.8 km/h
2653 18-12-2011 06:50:00 2.3 C 4.88 g/m*3 -0.07 C 8.1 km/h
2654 18-12-2011 06:55:00 2.4 C 4.91 g/m*3 0.59 C 6.4 km/h
2655 18-12-2011 07:00:00 2.3 C 4.88 g/m*3 2.3 C 4.8 km/h
2656 18-12-2011 07:05:00 2.4 C 4.91 g/m*3 0.05 C 8.1 km/h
2657 18-12-2011 07:10:00 2.4 C 4.91 g/m*3 2.4 C 4.8 km/h
2658 18-12-2011 07:15:00 2.4 C 4.91 g/m*3 2.4 C 3.2 km/h
2659 18-12-2011 07:20:00 2.4 C 4.91 g/m*3 2.4 C 4.8 km/h
2660 18-12-2011 07:25:00 2.3 C 4.93 g/m*3 0.47 C 6.4 km/h
2661 18-12-2011 07:30:00 2.3 C 4.93 g/m*3 2.3 C 4.8 km/h
2662 18-12-2011 07:35:00 2.3 C 4.93 g/m*3 2.3 C 4.8 km/h
2663 18-12-2011 07:40:00 2.3 C 4.93 g/m*3 2.3 C 4.8 km/h
2664 18-12-2011 07:45:00 2.2 C 4.96 g/m*3 2.2 C 4.8 km/h
2665 18-12-2011 07:50:00 2.2 C 4.96 g/m*3 2.2 C 3.2 km/h
2666 18-12-2011 07:55:00 2.1 C 4.92 g/m*3 2.1 C 3.2 km/h
2667 18-12-2011 08:00:00 2.1 C 4.98 g/m*3 2.1 C 4.8 km/h
2668 18-12-2011 08:05:00 2.1 C 4.98 g/m*3 2.1 C 4.8 km/h
2669 18-12-2011 08:10:00 2.1 C 4.92 g/m*3 0.24 C 6.4 km/h
2670 18-12-2011 08:15:00 2.2 C 4.96 g/m*3 0.36 C 6.4 km/h
2671 18-12-2011 08:20:00 2.4 C 4.97 g/m*3 0.05 C 8.1 km/h
2672 18-12-2011 08:25:00 2.5 C 4.94 g/m*3 2.5 C 4.8 km/h
2673 18-12-2011 08:30:00 2.6 C 4.98 g/m*3 -0.5 C 11.3 km/h
2674 18-12-2011 08:35:00 2.6 C 5.03 g/m*3 2.6 C 4.8 km/h
2675 18-12-2011 08:40:00 2.4 C 5.02 g/m*3 0.05 C 8.1 km/h
Sensor: Nr:Datum:Temp:Abs-Feuchte:Windchill:Wind:
Aussen-T/F 2676 18-12-2011 08:45:00 2.2 C 5.01 g/m*3 -0.18 C 8.1 km/h
2677 18-12-2011 08:50:00 2.1 C 4.98 g/m*3 0.24 C 6.4 km/h
2678 18-12-2011 08:55:00 1.9 C 4.97 g/m*3 -0.97 C 9.7 km/h
2679 18-12-2011 09:00:00 1.8 C 4.93 g/m*3 -0.65 C 8.1 km/h
2680 18-12-2011 09:05:00 1.8 C 4.99 g/m*3 -1.47 C 11.3 km/h
2681 18-12-2011 09:10:00 1.7 C 4.95 g/m*3 -0.22 C 6.4 km/h
2682 18-12-2011 09:15:00 1.7 C 5.01 g/m*3 1.7 C 4.8 km/h
2683 18-12-2011 09:20:00 1.7 C 5.01 g/m*3 1.7 C 4.8 km/h
2684 18-12-2011 09:25:00 1.8 C 5.04 g/m*3 1.8 C 4.8 km/h
2685 18-12-2011 09:30:00 1.8 C 5.04 g/m*3 1.8 C 4.8 km/h
2686 18-12-2011 09:35:00 1.9 C 5.08 g/m*3 1.9 C 4.8 km/h
2687 18-12-2011 09:40:00 1.9 C 5.08 g/m*3 1.9 C 3.2 km/h
2688 18-12-2011 09:45:00 2 C 5.11 g/m*3 -0.85 C 9.7 km/h
2689 18-12-2011 09:50:00 2.1 C 5.09 g/m*3 -0.3 C 8.1 km/h
2690 18-12-2011 09:55:00 2.1 C 5.15 g/m*3 2.1 C 4.8 km/h
2691 18-12-2011 10:00:00 2.1 C 5.15 g/m*3 0.24 C 6.4 km/h
2692 18-12-2011 10:05:00 2.1 C 5.15 g/m*3 -0.3 C 8.1 km/h
2693 18-12-2011 10:10:00 2.1 C 5.15 g/m*3 0.24 C 6.4 km/h
2694 18-12-2011 10:15:00 2.1 C 5.15 g/m*3 2.1 C 4.8 km/h
2695 18-12-2011 10:20:00 2.1 C 5.15 g/m*3 -0.73 C 9.7 km/h
2696 18-12-2011 10:25:00 2.1 C 5.15 g/m*3 2.1 C 4.8 km/h
2697 18-12-2011 10:30:00 2 C 5.11 g/m*3 2 C 4.8 km/h
2698 18-12-2011 10:35:00 2 C 5.11 g/m*3 0.13 C 6.4 km/h
2699 18-12-2011 10:40:00 1.9 C 5.02 g/m*3 0.01 C 6.4 km/h
2700 18-12-2011 10:45:00 1.7 C 4.95 g/m*3 1.7 C 1.6 km/h
Sensor: Nr:Datum:Temp:Abs-Feuchte:Windchill:Wind:
Aussen-T/F 2701 18-12-2011 10:50:00 1.6 C 4.92 g/m*3 1.6 C 3.2 km/h
2702 18-12-2011 10:55:00 1.4 C 4.85 g/m*3 1.4 C 1.6 km/h
2703 18-12-2011 11:00:00 1.3 C 4.87 g/m*3 1.3 C 1.6 km/h
2704 18-12-2011 11:05:00 1.2 C 4.84 g/m*3 1.2 C 1.6 km/h
2705 18-12-2011 11:10:00 1.1 C 4.86 g/m*3 1.1 C 4.8 km/h
2706 18-12-2011 11:15:00 1.1 C 4.86 g/m*3 1.1 C 3.2 km/h
2707 18-12-2011 11:20:00 1.1 C 4.86 g/m*3 1.1 C 0 km/h
2708 18-12-2011 11:25:00 1.1 C 4.91 g/m*3 1.1 C 3.2 km/h
2709 18-12-2011 11:30:00 1.2 C 4.95 g/m*3 1.2 C 3.2 km/h
2710 18-12-2011 11:35:00 1.2 C 4.95 g/m*3 1.2 C 4.8 km/h
2711 18-12-2011 11:40:00 1.4 C 5.01 g/m*3 1.4 C 3.2 km/h
2712 18-12-2011 11:45:00 1.5 C 4.99 g/m*3 1.5 C 4.8 km/h
2713 18-12-2011 11:50:00 1.6 C 5.03 g/m*3 1.6 C 4.8 km/h
2714 18-12-2011 11:55:00 1.7 C 5.06 g/m*3 -0.22 C 6.4 km/h
2715 18-12-2011 12:00:00 1.8 C 5.1 g/m*3 1.8 C 3.2 km/h
2716 18-12-2011 12:05:00 1.9 C 5.08 g/m*3 -0.54 C 8.1 km/h
2717 18-12-2011 12:10:00 1.9 C 5.08 g/m*3 1.9 C 4.8 km/h
2718 18-12-2011 12:15:00 2 C 5.06 g/m*3 -0.42 C 8.1 km/h
2719 18-12-2011 12:20:00 2.1 C 5.09 g/m*3 2.1 C 4.8 km/h
2720 18-12-2011 12:25:00 2.1 C 5.09 g/m*3 0.24 C 6.4 km/h
2721 18-12-2011 12:30:00 2.2 C 5.13 g/m*3 0.36 C 6.4 km/h
2722 18-12-2011 12:35:00 2.2 C 5.13 g/m*3 0.36 C 6.4 km/h
2723 18-12-2011 12:40:00 2.3 C 5.16 g/m*3 2.3 C 1.6 km/h
2724 18-12-2011 12:45:00 2.4 C 5.2 g/m*3 0.59 C 6.4 km/h
2725 18-12-2011 12:50:00 2.4 C 5.2 g/m*3 2.4 C 4.8 km/h
Sensor: Nr:Datum:Temp:Abs-Feuchte:Windchill:Wind:
Aussen-T/F 2726 18-12-2011 12:55:00 2.4 C 5.14 g/m*3 2.4 C 4.8 km/h
2727 18-12-2011 13:00:00 2.5 C 5.23 g/m*3 2.5 C 1.6 km/h
2728 18-12-2011 13:05:00 2.6 C 5.27 g/m*3 2.6 C 1.6 km/h
2729 18-12-2011 13:10:00 2.6 C 5.32 g/m*3 2.6 C 3.2 km/h
2730 18-12-2011 13:15:00 2.6 C 5.32 g/m*3 2.6 C 1.6 km/h
2731 18-12-2011 13:20:00 2.7 C 5.42 g/m*3 2.7 C 1.6 km/h
2732 18-12-2011 13:25:00 2.7 C 5.24 g/m*3 2.7 C 3.2 km/h
2733 18-12-2011 13:30:00 2.8 C 5.4 g/m*3 2.8 C 0 km/h
2734 18-12-2011 13:35:00 2.8 C 5.34 g/m*3 1.05 C 6.4 km/h
2735 18-12-2011 13:40:00 2.9 C 5.32 g/m*3 1.17 C 6.4 km/h
2736 18-12-2011 13:45:00 2.9 C 5.32 g/m*3 2.9 C 1.6 km/h
2737 18-12-2011 13:50:00 3.1 C 5.33 g/m*3 3.1 C 4.8 km/h
2738 18-12-2011 13:55:00 3.1 C 5.33 g/m*3 3.1 C 1.6 km/h
2739 18-12-2011 14:00:00 3.2 C 5.36 g/m*3 0.99 C 8.1 km/h
2740 18-12-2011 14:05:00 3.2 C 5.36 g/m*3 1.51 C 6.4 km/h
2741 18-12-2011 14:10:00 3.2 C 5.42 g/m*3 3.2 C 0 km/h
2742 18-12-2011 14:15:00 3.3 C 5.4 g/m*3 3.3 C 4.8 km/h
2743 18-12-2011 14:20:00 3.3 C 5.34 g/m*3 3.3 C 3.2 km/h
2744 18-12-2011 14:25:00 3.3 C 5.4 g/m*3 3.3 C 0 km/h
2745 18-12-2011 14:30:00 3.4 C 5.5 g/m*3 3.4 C 1.6 km/h
2746 18-12-2011 14:35:00 3.3 C 5.46 g/m*3 3.3 C 1.6 km/h
2747 18-12-2011 14:40:00 3.3 C 5.52 g/m*3 3.3 C 1.6 km/h
2748 18-12-2011 14:45:00 3.2 C 5.54 g/m*3 3.2 C 1.6 km/h
2749 18-12-2011 14:50:00 3.1 C 5.51 g/m*3 3.1 C 1.6 km/h
2750 18-12-2011 14:55:00 3.1 C 5.51 g/m*3 3.1 C 1.6 km/h
Sensor: Nr:Datum:Temp:Abs-Feuchte:Windchill:Wind:
Aussen-T/F 2751 18-12-2011 15:00:00 3.1 C 5.57 g/m*3 3.1 C 3.2 km/h
2752 18-12-2011 15:05:00 3 C 5.35 g/m*3 1.28 C 6.4 km/h
2753 18-12-2011 15:10:00 3.1 C 5.21 g/m*3 0.46 C 9.7 km/h
2754 18-12-2011 15:15:00 3.3 C 5.22 g/m*3 3.3 C 4.8 km/h
2755 18-12-2011 15:20:00 3.3 C 5.4 g/m*3 3.3 C 3.2 km/h
2756 18-12-2011 15:25:00 3.2 C 5.36 g/m*3 3.2 C 4.8 km/h
2757 18-12-2011 15:30:00 3.2 C 5.24 g/m*3 3.2 C 4.8 km/h
2758 18-12-2011 15:35:00 3.3 C 5.16 g/m*3 3.3 C 4.8 km/h
2759 18-12-2011 15:40:00 3.4 C 5.19 g/m*3 3.4 C 3.2 km/h
2760 18-12-2011 15:45:00 3.4 C 5.19 g/m*3 1.75 C 6.4 km/h
2761 18-12-2011 15:50:00 3.4 C 5.13 g/m*3 1.75 C 6.4 km/h
2762 18-12-2011 15:55:00 3.3 C 5.22 g/m*3 3.3 C 3.2 km/h
2763 18-12-2011 16:00:00 3.3 C 5.16 g/m*3 1.63 C 6.4 km/h
2764 18-12-2011 16:05:00 3.2 C 5.12 g/m*3 3.2 C 4.8 km/h
2765 18-12-2011 16:10:00 3.2 C 5.18 g/m*3 3.2 C 3.2 km/h
2766 18-12-2011 16:15:00 3.2 C 5.18 g/m*3 3.2 C 4.8 km/h
2767 18-12-2011 16:20:00 3.2 C 5.12 g/m*3 1.51 C 6.4 km/h
2768 18-12-2011 16:25:00 3.3 C 5.1 g/m*3 1.63 C 6.4 km/h
2769 18-12-2011 16:30:00 3.2 C 5.06 g/m*3 1.51 C 6.4 km/h
2770 18-12-2011 16:35:00 3.2 C 5 g/m*3 3.2 C 4.8 km/h
2771 18-12-2011 16:40:00 3.2 C 5 g/m*3 3.2 C 4.8 km/h
2772 18-12-2011 16:45:00 3.2 C 5 g/m*3 3.2 C 4.8 km/h
2773 18-12-2011 16:50:00 3.2 C 5 g/m*3 3.2 C 3.2 km/h
2774 18-12-2011 16:55:00 3.2 C 5.12 g/m*3 3.2 C 3.2 km/h
2775 18-12-2011 17:00:00 3.1 C 5.09 g/m*3 0.87 C 8.1 km/h
Sensor: Nr:Datum:Temp:Abs-Feuchte:Windchill:Wind:
Aussen-T/F 2776 18-12-2011 17:05:00 3 C 5.05 g/m*3 3 C 4.8 km/h
2777 18-12-2011 17:10:00 2.9 C 5.02 g/m*3 2.9 C 3.2 km/h
2778 18-12-2011 17:15:00 2.7 C 5.01 g/m*3 2.7 C 4.8 km/h
2779 18-12-2011 17:20:00 2.6 C 4.98 g/m*3 0.82 C 6.4 km/h
2780 18-12-2011 17:25:00 2.6 C 4.92 g/m*3 2.6 C 3.2 km/h
2781 18-12-2011 17:30:00 2.4 C 4.85 g/m*3 2.4 C 4.8 km/h
2782 18-12-2011 17:35:00 2.4 C 4.91 g/m*3 0.59 C 6.4 km/h
2783 18-12-2011 17:40:00 2.4 C 4.85 g/m*3 0.59 C 6.4 km/h
2784 18-12-2011 17:45:00 2.4 C 4.85 g/m*3 2.4 C 4.8 km/h
2785 18-12-2011 17:50:00 2.4 C 4.91 g/m*3 0.59 C 6.4 km/h
2786 18-12-2011 17:55:00 2.3 C 4.82 g/m*3 2.3 C 4.8 km/h
2787 18-12-2011 18:00:00 2.3 C 4.88 g/m*3 2.3 C 3.2 km/h
2788 18-12-2011 18:05:00 2.3 C 4.76 g/m*3 2.3 C 3.2 km/h
2789 18-12-2011 18:10:00 2.4 C 4.85 g/m*3 2.4 C 4.8 km/h
2790 18-12-2011 18:15:00 2.4 C 4.91 g/m*3 2.4 C 4.8 km/h
2791 18-12-2011 18:20:00 2.4 C 4.8 g/m*3 2.4 C 4.8 km/h
2792 18-12-2011 18:25:00 2.3 C 4.76 g/m*3 2.3 C 3.2 km/h
2793 18-12-2011 18:30:00 2.2 C 4.84 g/m*3 0.36 C 6.4 km/h
2794 18-12-2011 18:35:00 2 C 4.72 g/m*3 2 C 4.8 km/h
2795 18-12-2011 18:40:00 1.9 C 4.75 g/m*3 1.9 C 4.8 km/h
2796 18-12-2011 18:45:00 1.8 C 4.71 g/m*3 1.8 C 3.2 km/h
2797 18-12-2011 18:50:00 1.7 C 4.68 g/m*3 -0.22 C 6.4 km/h
2798 18-12-2011 18:55:00 1.8 C 4.71 g/m*3 1.8 C 4.8 km/h
2799 18-12-2011 19:00:00 1.8 C 4.77 g/m*3 1.8 C 4.8 km/h
2800 18-12-2011 19:05:00 1.7 C 4.68 g/m*3 1.7 C 4.8 km/h
Sensor: Nr:Datum:Temp:Abs-Feuchte:Windchill:Wind:
Aussen-T/F 2801 18-12-2011 19:10:00 1.8 C 4.71 g/m*3 -1.09 C 9.7 km/h
2802 18-12-2011 19:15:00 1.9 C 4.69 g/m*3 -0.54 C 8.1 km/h
2803 18-12-2011 19:20:00 1.9 C 4.75 g/m*3 1.9 C 4.8 km/h
2804 18-12-2011 19:25:00 2 C 4.72 g/m*3 0.13 C 6.4 km/h
2805 18-12-2011 19:30:00 2 C 4.78 g/m*3 2 C 3.2 km/h
2806 18-12-2011 19:35:00 1.9 C 4.75 g/m*3 1.9 C 4.8 km/h
2807 18-12-2011 19:40:00 1.8 C 4.66 g/m*3 -0.1 C 6.4 km/h
2808 18-12-2011 19:45:00 1.7 C 4.63 g/m*3 -1.21 C 9.7 km/h
2809 18-12-2011 19:50:00 1.7 C 4.63 g/m*3 -1.21 C 9.7 km/h
2810 18-12-2011 19:55:00 1.6 C 4.6 g/m*3 -0.89 C 8.1 km/h
2811 18-12-2011 20:00:00 1.3 C 4.61 g/m*3 1.3 C 3.2 km/h
2812 18-12-2011 20:05:00 1.2 C 4.58 g/m*3 1.2 C 4.8 km/h
2813 18-12-2011 20:10:00 1.1 C 4.55 g/m*3 -0.91 C 6.4 km/h
2814 18-12-2011 20:15:00 1.1 C 4.6 g/m*3 -0.91 C 6.4 km/h
2815 18-12-2011 20:20:00 1.1 C 4.6 g/m*3 1.1 C 3.2 km/h
2816 18-12-2011 20:25:00 1 C 4.62 g/m*3 1 C 3.2 km/h
2817 18-12-2011 20:30:00 0.9 C 4.59 g/m*3 0.9 C 3.2 km/h
2818 18-12-2011 20:35:00 0.7 C 4.53 g/m*3 0.7 C 4.8 km/h
2819 18-12-2011 20:40:00 0.6 C 4.54 g/m*3 0.6 C 3.2 km/h
2820 18-12-2011 20:45:00 0.5 C 4.51 g/m*3 0.5 C 4.8 km/h
2821 18-12-2011 20:50:00 0.4 C 4.48 g/m*3 0.4 C 3.2 km/h
2822 18-12-2011 20:55:00 0.3 C 4.45 g/m*3 0.3 C 4.8 km/h
2823 18-12-2011 21:00:00 0.2 C 4.42 g/m*3 0.2 C 4.8 km/h
2824 18-12-2011 21:05:00 0.2 C 4.47 g/m*3 0.2 C 3.2 km/h
2825 18-12-2011 21:10:00 0.2 C 4.47 g/m*3 -1.95 C 6.4 km/h
Sensor: Nr:Datum:Temp:Abs-Feuchte:Windchill:Wind:
Aussen-T/F 2826 18-12-2011 21:15:00 0.7 C 4.58 g/m*3 -2.4 C 9.7 km/h
2827 18-12-2011 21:20:00 0.9 C 4.54 g/m*3 -2.16 C 9.7 km/h
2828 18-12-2011 21:25:00 1.1 C 4.55 g/m*3 -0.91 C 6.4 km/h
2829 18-12-2011 21:30:00 1 C 4.52 g/m*3 -1.59 C 8.1 km/h
2830 18-12-2011 21:35:00 1.1 C 4.49 g/m*3 -2.66 C 12.9 km/h
2831 18-12-2011 21:40:00 1.3 C 4.5 g/m*3 -3 C 16.1 km/h
2832 18-12-2011 21:45:00 1.4 C 4.53 g/m*3 -2.29 C 12.9 km/h
2833 18-12-2011 21:50:00 1.3 C 4.5 g/m*3 -2.41 C 12.9 km/h
2834 18-12-2011 21:55:00 1.3 C 4.5 g/m*3 -3.26 C 17.7 km/h
2835 18-12-2011 22:00:00 1.3 C 4.45 g/m*3 -3 C 16.1 km/h
2836 18-12-2011 22:05:00 1.3 C 4.4 g/m*3 -2.41 C 12.9 km/h
2837 18-12-2011 22:10:00 1.2 C 4.37 g/m*3 -1.8 C 9.7 km/h
2838 18-12-2011 22:15:00 1.2 C 4.42 g/m*3 -2.19 C 11.3 km/h
2839 18-12-2011 22:20:00 1.1 C 4.34 g/m*3 -1.92 C 9.7 km/h
2840 18-12-2011 22:25:00 1.1 C 4.34 g/m*3 -2.31 C 11.3 km/h
2841 18-12-2011 22:30:00 0.9 C 4.33 g/m*3 -2.55 C 11.3 km/h
2842 18-12-2011 22:35:00 0.9 C 4.28 g/m*3 -3.21 C 14.5 km/h
2843 18-12-2011 22:40:00 0.9 C 4.28 g/m*3 -1.71 C 8.1 km/h
2844 18-12-2011 22:45:00 0.8 C 4.2 g/m*3 -3.02 C 12.9 km/h
2845 18-12-2011 22:50:00 0.8 C 4.25 g/m*3 -2.67 C 11.3 km/h
2846 18-12-2011 22:55:00 0.8 C 4.25 g/m*3 -2.28 C 9.7 km/h
2847 18-12-2011 23:00:00 0.6 C 4.24 g/m*3 -2.06 C 8.1 km/h
2848 18-12-2011 23:05:00 0.4 C 4.18 g/m*3 -2.3 C 8.1 km/h
2849 18-12-2011 23:10:00 0.4 C 4.18 g/m*3 -2.76 C 9.7 km/h
2850 18-12-2011 23:15:00 0.4 C 4.18 g/m*3 -3.16 C 11.3 km/h
Sensor: Nr:Datum:Temp:Abs-Feuchte:Windchill:Wind:
Aussen-T/F 2851 18-12-2011 23:20:00 0.5 C 4.21 g/m*3 -2.18 C 8.1 km/h
2852 18-12-2011 23:25:00 0.4 C 4.18 g/m*3 -1.72 C 6.4 km/h
2853 18-12-2011 23:30:00 0.4 C 4.18 g/m*3 -1.72 C 6.4 km/h
2854 18-12-2011 23:35:00 0.4 C 4.18 g/m*3 -2.76 C 9.7 km/h
2855 18-12-2011 23:40:00 0.4 C 4.13 g/m*3 -1.72 C 6.4 km/h
2856 18-12-2011 23:45:00 0.4 C 4.13 g/m*3 -2.3 C 8.1 km/h
2857 18-12-2011 23:50:00 0.4 C 4.13 g/m*3 0.4 C 4.8 km/h
2858 18-12-2011 23:55:00 0.4 C 4.23 g/m*3 -1.72 C 6.4 km/h
2859 19-12-2011 00:00:00 0.3 C 4.25 g/m*3 -1.84 C 6.4 km/h
2860 19-12-2011 00:05:00 0.3 C 4.2 g/m*3 -1.84 C 6.4 km/h
2861 19-12-2011 00:10:00 0.3 C 4.2 g/m*3 -3.28 C 11.3 km/h
2862 19-12-2011 00:15:00 0.2 C 4.27 g/m*3 -2.53 C 8.1 km/h
2863 19-12-2011 00:20:00 0.3 C 4.2 g/m*3 -2.88 C 9.7 km/h
2864 19-12-2011 00:25:00 0.6 C 4.24 g/m*3 -2.06 C 8.1 km/h
2865 19-12-2011 00:30:00 0.7 C 4.27 g/m*3 -1.95 C 8.1 km/h
2866 19-12-2011 00:35:00 0.8 C 4.3 g/m*3 -2.28 C 9.7 km/h
2867 19-12-2011 00:40:00 0.8 C 4.3 g/m*3 -1.83 C 8.1 km/h
2868 19-12-2011 00:45:00 0.8 C 4.3 g/m*3 -2.28 C 9.7 km/h
2869 19-12-2011 00:50:00 0.7 C 4.32 g/m*3 -1.37 C 6.4 km/h
2870 19-12-2011 00:55:00 0.8 C 4.3 g/m*3 -2.28 C 9.7 km/h
2871 19-12-2011 01:00:00 0.8 C 4.3 g/m*3 -1.26 C 6.4 km/h
2872 19-12-2011 01:05:00 0.8 C 4.4 g/m*3 -1.26 C 6.4 km/h
2873 19-12-2011 01:10:00 0.7 C 4.37 g/m*3 -1.37 C 6.4 km/h
2874 19-12-2011 01:15:00 0.5 C 4.36 g/m*3 0.5 C 4.8 km/h
2875 19-12-2011 01:20:00 0.4 C 4.33 g/m*3 -2.3 C 8.1 km/h
Sensor: Nr:Datum:Temp:Abs-Feuchte:Windchill:Wind:
Aussen-T/F 2876 19-12-2011 01:25:00 0.3 C 4.35 g/m*3 0.3 C 4.8 km/h
2877 19-12-2011 01:30:00 0.3 C 4.4 g/m*3 0.3 C 3.2 km/h
2878 19-12-2011 01:35:00 0.3 C 4.4 g/m*3 0.3 C 3.2 km/h
2879 19-12-2011 01:40:00 0.3 C 4.45 g/m*3 0.3 C 3.2 km/h
2880 19-12-2011 01:45:00 0.3 C 4.45 g/m*3 0.3 C 4.8 km/h
2881 19-12-2011 01:50:00 0.2 C 4.42 g/m*3 0.2 C 3.2 km/h
2882 19-12-2011 01:55:00 0.2 C 4.42 g/m*3 0.2 C 1.6 km/h
2883 19-12-2011 02:00:00 0.1 C 4.39 g/m*3 0.1 C 3.2 km/h
2884 19-12-2011 02:05:00 0.1 C 4.39 g/m*3 0.1 C 3.2 km/h
2885 19-12-2011 02:10:00 0 C 4.36 g/m*3 0 C 3.2 km/h
2886 19-12-2011 02:15:00 -0.1 C 4.38 g/m*3 -0.1 C 1.6 km/h
2887 19-12-2011 02:20:00 -0.1 C 4.38 g/m*3 -0.1 C 0 km/h
2888 19-12-2011 02:25:00 -0.1 C 4.43 g/m*3 -0.1 C 1.6 km/h
2889 19-12-2011 02:30:00 0 C 4.41 g/m*3 0 C 3.2 km/h
2890 19-12-2011 02:35:00 0.1 C 4.49 g/m*3 0.1 C 1.6 km/h
2891 19-12-2011 02:40:00 0.2 C 4.52 g/m*3 0.2 C 0 km/h
2892 19-12-2011 02:45:00 0.2 C 4.52 g/m*3 0.2 C 1.6 km/h
2893 19-12-2011 02:50:00 0.3 C 4.5 g/m*3 0.3 C 1.6 km/h
2894 19-12-2011 02:55:00 0.4 C 4.53 g/m*3 0.4 C 1.6 km/h
2895 19-12-2011 03:00:00 0.4 C 4.53 g/m*3 0.4 C 3.2 km/h
2896 19-12-2011 03:05:00 0.6 C 4.6 g/m*3 0.6 C 4.8 km/h
2897 19-12-2011 03:10:00 0.7 C 4.63 g/m*3 0.7 C 3.2 km/h
2898 19-12-2011 03:15:00 0.9 C 4.64 g/m*3 -1.71 C 8.1 km/h
2899 19-12-2011 03:20:00 1 C 4.62 g/m*3 -1.59 C 8.1 km/h
2900 19-12-2011 03:25:00 1.1 C 4.65 g/m*3 -0.91 C 6.4 km/h
Sensor: Nr:Datum:Temp:Abs-Feuchte:Windchill:Wind:
Aussen-T/F 2901 19-12-2011 03:30:00 1.2 C 4.68 g/m*3 1.2 C 4.8 km/h
2902 19-12-2011 03:35:00 1.2 C 4.63 g/m*3 -0.8 C 6.4 km/h
2903 19-12-2011 03:40:00 1.2 C 4.68 g/m*3 -0.8 C 6.4 km/h
2904 19-12-2011 03:45:00 1.3 C 4.66 g/m*3 -0.68 C 6.4 km/h
2905 19-12-2011 03:50:00 1.3 C 4.66 g/m*3 -1.24 C 8.1 km/h
2906 19-12-2011 03:55:00 1.4 C 4.69 g/m*3 1.4 C 4.8 km/h
2907 19-12-2011 04:00:00 1.3 C 4.66 g/m*3 1.3 C 3.2 km/h
2908 19-12-2011 04:05:00 1.3 C 4.66 g/m*3 1.3 C 4.8 km/h
2909 19-12-2011 04:10:00 1.3 C 4.72 g/m*3 1.3 C 3.2 km/h
2910 19-12-2011 04:15:00 1.2 C 4.68 g/m*3 1.2 C 4.8 km/h
2911 19-12-2011 04:20:00 1.2 C 4.68 g/m*3 1.2 C 1.6 km/h
2912 19-12-2011 04:25:00 1.2 C 4.68 g/m*3 1.2 C 1.6 km/h
2913 19-12-2011 04:30:00 1.1 C 4.7 g/m*3 1.1 C 1.6 km/h
2914 19-12-2011 04:35:00 1.1 C 4.7 g/m*3 1.1 C 1.6 km/h
2915 19-12-2011 04:40:00 1.1 C 4.7 g/m*3 1.1 C 3.2 km/h
2916 19-12-2011 04:45:00 1 C 4.67 g/m*3 1 C 3.2 km/h
2917 19-12-2011 04:50:00 0.9 C 4.69 g/m*3 0.9 C 1.6 km/h
2918 19-12-2011 04:55:00 0.9 C 4.69 g/m*3 0.9 C 1.6 km/h
2919 19-12-2011 05:00:00 0.9 C 4.69 g/m*3 0.9 C 3.2 km/h
2920 19-12-2011 05:05:00 0.9 C 4.69 g/m*3 0.9 C 1.6 km/h
2921 19-12-2011 05:10:00 0.9 C 4.69 g/m*3 0.9 C 1.6 km/h
2922 19-12-2011 05:15:00 0.9 C 4.69 g/m*3 0.9 C 3.2 km/h
2923 19-12-2011 05:20:00 0.9 C 4.69 g/m*3 0.9 C 1.6 km/h
2924 19-12-2011 05:25:00 0.8 C 4.66 g/m*3 0.8 C 3.2 km/h
2925 19-12-2011 05:30:00 0.7 C 4.63 g/m*3 0.7 C 3.2 km/h
Sensor: Nr:Datum:Temp:Abs-Feuchte:Windchill:Wind:
Aussen-T/F 2926 19-12-2011 05:35:00 0.7 C 4.63 g/m*3 0.7 C 3.2 km/h
2927 19-12-2011 05:40:00 0.6 C 4.6 g/m*3 0.6 C 3.2 km/h
2928 19-12-2011 05:45:00 0.5 C 4.56 g/m*3 0.5 C 3.2 km/h
2929 19-12-2011 05:50:00 0.4 C 4.58 g/m*3 0.4 C 3.2 km/h
2930 19-12-2011 05:55:00 0.5 C 4.61 g/m*3 0.5 C 1.6 km/h
2931 19-12-2011 06:00:00 0.6 C 4.65 g/m*3 0.6 C 3.2 km/h
2932 19-12-2011 06:05:00 0.6 C 4.65 g/m*3 0.6 C 3.2 km/h
2933 19-12-2011 06:10:00 0.7 C 4.68 g/m*3 0.7 C 1.6 km/h
2934 19-12-2011 06:15:00 0.7 C 4.68 g/m*3 0.7 C 1.6 km/h
2935 19-12-2011 06:20:00 0.7 C 4.68 g/m*3 0.7 C 1.6 km/h
2936 19-12-2011 06:25:00 0.7 C 4.68 g/m*3 0.7 C 1.6 km/h
2937 19-12-2011 06:30:00 0.7 C 4.68 g/m*3 0.7 C 1.6 km/h
2938 19-12-2011 06:35:00 0.7 C 4.68 g/m*3 0.7 C 1.6 km/h
2939 19-12-2011 06:40:00 0.8 C 4.71 g/m*3 0.8 C 1.6 km/h
2940 19-12-2011 06:45:00 0.8 C 4.76 g/m*3 0.8 C 0 km/h
2941 19-12-2011 06:50:00 0.8 C 4.76 g/m*3 0.8 C 1.6 km/h
2942 19-12-2011 06:55:00 0.8 C 4.71 g/m*3 0.8 C 3.2 km/h
2943 19-12-2011 07:00:00 0.8 C 4.71 g/m*3 0.8 C 3.2 km/h
2944 19-12-2011 07:05:00 0.8 C 4.71 g/m*3 0.8 C 1.6 km/h
2945 19-12-2011 07:10:00 0.8 C 4.71 g/m*3 0.8 C 1.6 km/h
2946 19-12-2011 07:15:00 0.8 C 4.71 g/m*3 0.8 C 3.2 km/h
2947 19-12-2011 07:20:00 0.8 C 4.71 g/m*3 0.8 C 3.2 km/h
2948 19-12-2011 07:25:00 0.8 C 4.71 g/m*3 0.8 C 1.6 km/h
2949 19-12-2011 07:30:00 0.8 C 4.71 g/m*3 0.8 C 3.2 km/h
2950 19-12-2011 07:35:00 0.8 C 4.71 g/m*3 0.8 C 3.2 km/h
Sensor: Nr:Datum:Temp:Abs-Feuchte:Windchill:Wind:
Aussen-T/F 2951 19-12-2011 07:40:00 0.8 C 4.71 g/m*3 0.8 C 3.2 km/h
2952 19-12-2011 07:45:00 0.9 C 4.74 g/m*3 0.9 C 0 km/h
2953 19-12-2011 07:50:00 0.9 C 4.74 g/m*3 0.9 C 0 km/h
2954 19-12-2011 07:55:00 0.9 C 4.74 g/m*3 0.9 C 1.6 km/h
2955 19-12-2011 08:00:00 0.9 C 4.74 g/m*3 0.9 C 1.6 km/h
2956 19-12-2011 08:05:00 0.9 C 4.74 g/m*3 0.9 C 0 km/h
2957 19-12-2011 08:10:00 0.9 C 4.74 g/m*3 0.9 C 1.6 km/h
2958 19-12-2011 08:15:00 0.9 C 4.74 g/m*3 0.9 C 1.6 km/h
2959 19-12-2011 08:20:00 0.9 C 4.74 g/m*3 0.9 C 1.6 km/h
2960 19-12-2011 08:25:00 0.9 C 4.74 g/m*3 0.9 C 1.6 km/h
2961 19-12-2011 08:30:00 0.9 C 4.74 g/m*3 0.9 C 1.6 km/h
2962 19-12-2011 08:35:00 0.9 C 4.74 g/m*3 0.9 C 0 km/h
2963 19-12-2011 08:40:00 0.9 C 4.74 g/m*3 0.9 C 1.6 km/h
2964 19-12-2011 08:45:00 0.8 C 4.71 g/m*3 0.8 C 1.6 km/h
2965 19-12-2011 08:50:00 0.9 C 4.74 g/m*3 0.9 C 1.6 km/h
2966 19-12-2011 08:55:00 0.9 C 4.74 g/m*3 0.9 C 3.2 km/h
2967 19-12-2011 09:00:00 0.9 C 4.74 g/m*3 0.9 C 3.2 km/h
2968 19-12-2011 09:05:00 0.9 C 4.69 g/m*3 -1.14 C 6.4 km/h
2969 19-12-2011 09:10:00 1.1 C 4.76 g/m*3 1.1 C 3.2 km/h
2970 19-12-2011 09:15:00 1.2 C 4.74 g/m*3 1.2 C 4.8 km/h
2971 19-12-2011 09:20:00 1.3 C 4.66 g/m*3 1.3 C 4.8 km/h
2972 19-12-2011 09:25:00 1.5 C 4.73 g/m*3 1.5 C 3.2 km/h
2973 19-12-2011 09:30:00 1.6 C 4.7 g/m*3 1.6 C 3.2 km/h
2974 19-12-2011 09:35:00 1.6 C 4.81 g/m*3 1.6 C 3.2 km/h
2975 19-12-2011 09:40:00 1.6 C 4.81 g/m*3 1.6 C 3.2 km/h
Sensor: Nr:Datum:Temp:Abs-Feuchte:Windchill:Wind:
Aussen-T/F 2976 19-12-2011 09:45:00 1.6 C 4.76 g/m*3 1.6 C 3.2 km/h
2977 19-12-2011 09:50:00 1.6 C 4.81 g/m*3 1.6 C 1.6 km/h
2978 19-12-2011 09:55:00 1.6 C 4.81 g/m*3 1.6 C 0 km/h
2979 19-12-2011 10:00:00 1.6 C 4.87 g/m*3 1.6 C 0 km/h
2980 19-12-2011 10:05:00 1.6 C 4.87 g/m*3 1.6 C 1.6 km/h
2981 19-12-2011 10:10:00 1.6 C 4.87 g/m*3 1.6 C 0 km/h
2982 19-12-2011 10:15:00 1.6 C 4.87 g/m*3 1.6 C 0 km/h
2983 19-12-2011 10:20:00 1.7 C 4.9 g/m*3 1.7 C 0 km/h
2984 19-12-2011 10:25:00 1.7 C 4.95 g/m*3 1.7 C 0 km/h
2985 19-12-2011 10:30:00 1.8 C 4.88 g/m*3 1.8 C 1.6 km/h
2986 19-12-2011 10:35:00 1.8 C 4.82 g/m*3 1.8 C 3.2 km/h
2987 19-12-2011 10:40:00 1.9 C 4.86 g/m*3 1.9 C 1.6 km/h
2988 19-12-2011 10:45:00 2 C 4.89 g/m*3 2 C 3.2 km/h
2989 19-12-2011 10:50:00 2.1 C 4.92 g/m*3 2.1 C 4.8 km/h
2990 19-12-2011 10:55:00 2.1 C 4.92 g/m*3 2.1 C 3.2 km/h
2991 19-12-2011 11:00:00 2.1 C 4.92 g/m*3 2.1 C 3.2 km/h
2992 19-12-2011 11:05:00 2.2 C 4.96 g/m*3 2.2 C 4.8 km/h
2993 19-12-2011 11:10:00 2.2 C 4.96 g/m*3 2.2 C 3.2 km/h
2994 19-12-2011 11:15:00 2.2 C 4.9 g/m*3 2.2 C 3.2 km/h
2995 19-12-2011 11:20:00 2.2 C 4.9 g/m*3 2.2 C 1.6 km/h
2996 19-12-2011 11:25:00 2.3 C 4.93 g/m*3 2.3 C 0 km/h
2997 19-12-2011 11:30:00 2.3 C 4.93 g/m*3 2.3 C 3.2 km/h
2998 19-12-2011 11:35:00 2.4 C 4.91 g/m*3 0.59 C 6.4 km/h
2999 19-12-2011 11:40:00 2.4 C 4.85 g/m*3 2.4 C 3.2 km/h
3000 19-12-2011 11:45:00 2.5 C 4.77 g/m*3 0.71 C 6.4 km/h
Sensor: Nr:Datum:Temp:Abs-Feuchte:Windchill:Wind:
Aussen-T/F 3001 19-12-2011 11:50:00 2.6 C 4.8 g/m*3 2.6 C 3.2 km/h
3002 19-12-2011 11:55:00 2.6 C 4.86 g/m*3 2.6 C 1.6 km/h
3003 19-12-2011 12:00:00 2.7 C 4.78 g/m*3 2.7 C 3.2 km/h
3004 19-12-2011 12:05:00 2.7 C 4.84 g/m*3 2.7 C 3.2 km/h
3005 19-12-2011 12:10:00 2.7 C 4.84 g/m*3 2.7 C 1.6 km/h
3006 19-12-2011 12:15:00 2.7 C 4.84 g/m*3 2.7 C 3.2 km/h
3007 19-12-2011 12:20:00 2.7 C 4.78 g/m*3 2.7 C 4.8 km/h
3008 19-12-2011 12:25:00 2.8 C 4.81 g/m*3 2.8 C 3.2 km/h
3009 19-12-2011 12:30:00 2.8 C 4.81 g/m*3 2.8 C 4.8 km/h
3010 19-12-2011 12:35:00 2.8 C 4.75 g/m*3 2.8 C 4.8 km/h
3011 19-12-2011 12:40:00 2.8 C 4.75 g/m*3 2.8 C 4.8 km/h
3012 19-12-2011 12:45:00 2.8 C 4.75 g/m*3 0.52 C 8.1 km/h
3013 19-12-2011 12:50:00 2.9 C 4.78 g/m*3 1.17 C 6.4 km/h
3014 19-12-2011 12:55:00 2.9 C 4.78 g/m*3 1.17 C 6.4 km/h
3015 19-12-2011 13:00:00 2.9 C 4.72 g/m*3 1.17 C 6.4 km/h
3016 19-12-2011 13:05:00 3 C 4.76 g/m*3 1.28 C 6.4 km/h
3017 19-12-2011 13:10:00 3.1 C 4.79 g/m*3 1.4 C 6.4 km/h
3018 19-12-2011 13:15:00 3.1 C 4.79 g/m*3 0.46 C 9.7 km/h
3019 19-12-2011 13:20:00 3.1 C 4.79 g/m*3 0.46 C 9.7 km/h
3020 19-12-2011 13:25:00 3.1 C 4.79 g/m*3 0.87 C 8.1 km/h
3021 19-12-2011 13:30:00 3.2 C 4.82 g/m*3 0.22 C 11.3 km/h
3022 19-12-2011 13:35:00 3.2 C 4.76 g/m*3 0.99 C 8.1 km/h
3023 19-12-2011 13:40:00 3.2 C 4.82 g/m*3 0.22 C 11.3 km/h
3024 19-12-2011 13:45:00 3.2 C 4.88 g/m*3 0.99 C 8.1 km/h
3025 19-12-2011 13:50:00 3.2 C 4.82 g/m*3 0.58 C 9.7 km/h
Sensor: Nr:Datum:Temp:Abs-Feuchte:Windchill:Wind:
Aussen-T/F 3026 19-12-2011 13:55:00 3.2 C 4.82 g/m*3 0.99 C 8.1 km/h
3027 19-12-2011 14:00:00 3.2 C 4.82 g/m*3 0.99 C 8.1 km/h
3028 19-12-2011 14:05:00 3.2 C 4.82 g/m*3 0.99 C 8.1 km/h
3029 19-12-2011 14:10:00 3.2 C 4.82 g/m*3 1.51 C 6.4 km/h
3030 19-12-2011 14:15:00 3.2 C 4.82 g/m*3 1.51 C 6.4 km/h
3031 19-12-2011 14:20:00 3.2 C 4.88 g/m*3 0.58 C 9.7 km/h
3032 19-12-2011 14:25:00 3.2 C 4.82 g/m*3 0.58 C 9.7 km/h
3033 19-12-2011 14:30:00 3.2 C 4.88 g/m*3 0.58 C 9.7 km/h
3034 19-12-2011 14:35:00 3.2 C 4.88 g/m*3 1.51 C 6.4 km/h
3035 19-12-2011 14:40:00 3.2 C 4.88 g/m*3 0.58 C 9.7 km/h
3036 19-12-2011 14:45:00 3.3 C 4.91 g/m*3 1.63 C 6.4 km/h
3037 19-12-2011 14:50:00 3.3 C 4.91 g/m*3 3.3 C 4.8 km/h
3038 19-12-2011 14:55:00 3.3 C 4.85 g/m*3 1.11 C 8.1 km/h
3039 19-12-2011 15:00:00 3.4 C 4.89 g/m*3 1.75 C 6.4 km/h
3040 19-12-2011 15:05:00 3.3 C 4.85 g/m*3 0.7 C 9.7 km/h
3041 19-12-2011 15:10:00 3.3 C 4.85 g/m*3 1.11 C 8.1 km/h
3042 19-12-2011 15:15:00 3.3 C 4.85 g/m*3 1.63 C 6.4 km/h
3043 19-12-2011 15:20:00 3.2 C 4.82 g/m*3 1.51 C 6.4 km/h
3044 19-12-2011 15:25:00 3.2 C 4.88 g/m*3 1.51 C 6.4 km/h
3045 19-12-2011 15:30:00 3.1 C 4.85 g/m*3 3.1 C 4.8 km/h
3046 19-12-2011 15:35:00 3.1 C 4.85 g/m*3 0.87 C 8.1 km/h
3047 19-12-2011 15:40:00 3.1 C 4.85 g/m*3 0.87 C 8.1 km/h
3048 19-12-2011 15:45:00 3 C 4.82 g/m*3 1.28 C 6.4 km/h
3049 19-12-2011 15:50:00 3 C 4.82 g/m*3 3 C 4.8 km/h
3050 19-12-2011 15:55:00 3 C 4.88 g/m*3 3 C 4.8 km/h
Sensor: Nr:Datum:Temp:Abs-Feuchte:Windchill:Wind:
Aussen-T/F 3051 19-12-2011 16:00:00 2.9 C 4.78 g/m*3 2.9 C 4.8 km/h
3052 19-12-2011 16:05:00 2.9 C 4.78 g/m*3 2.9 C 4.8 km/h
3053 19-12-2011 16:10:00 2.9 C 4.78 g/m*3 2.9 C 4.8 km/h
3054 19-12-2011 16:15:00 2.9 C 4.84 g/m*3 2.9 C 3.2 km/h
3055 19-12-2011 16:20:00 2.8 C 4.81 g/m*3 2.8 C 4.8 km/h
3056 19-12-2011 16:25:00 2.8 C 4.81 g/m*3 0.52 C 8.1 km/h
3057 19-12-2011 16:30:00 2.7 C 4.78 g/m*3 0.4 C 8.1 km/h
3058 19-12-2011 16:35:00 2.7 C 4.84 g/m*3 0.94 C 6.4 km/h
3059 19-12-2011 16:40:00 2.7 C 4.84 g/m*3 2.7 C 4.8 km/h
3060 19-12-2011 16:45:00 2.6 C 4.8 g/m*3 0.82 C 6.4 km/h
3061 19-12-2011 16:50:00 2.5 C 4.77 g/m*3 0.71 C 6.4 km/h
3062 19-12-2011 16:55:00 2.5 C 4.83 g/m*3 0.17 C 8.1 km/h
3063 19-12-2011 17:00:00 2.6 C 4.86 g/m*3 0.29 C 8.1 km/h
3064 19-12-2011 17:05:00 2.5 C 4.77 g/m*3 2.5 C 4.8 km/h
3065 19-12-2011 17:10:00 2.5 C 4.89 g/m*3 2.5 C 3.2 km/h
3066 19-12-2011 17:15:00 2.5 C 4.89 g/m*3 2.5 C 3.2 km/h
3067 19-12-2011 17:20:00 2.5 C 4.77 g/m*3 2.5 C 4.8 km/h
3068 19-12-2011 17:25:00 2.6 C 4.8 g/m*3 2.6 C 4.8 km/h
3069 19-12-2011 17:30:00 2.6 C 4.8 g/m*3 2.6 C 4.8 km/h
3070 19-12-2011 17:35:00 2.6 C 4.8 g/m*3 0.82 C 6.4 km/h
3071 19-12-2011 17:40:00 2.7 C 4.84 g/m*3 2.7 C 3.2 km/h
3072 19-12-2011 17:45:00 2.6 C 4.8 g/m*3 2.6 C 4.8 km/h
3073 19-12-2011 17:50:00 2.6 C 4.86 g/m*3 2.6 C 4.8 km/h
3074 19-12-2011 17:55:00 2.6 C 4.86 g/m*3 2.6 C 1.6 km/h
3075 19-12-2011 18:00:00 2.5 C 4.89 g/m*3 2.5 C 3.2 km/h
Sensor: Nr:Datum:Temp:Abs-Feuchte:Windchill:Wind:
Aussen-T/F 3076 19-12-2011 18:05:00 2.4 C 4.8 g/m*3 2.4 C 3.2 km/h
3077 19-12-2011 18:10:00 2.4 C 4.8 g/m*3 2.4 C 3.2 km/h
3078 19-12-2011 18:15:00 2.4 C 4.8 g/m*3 2.4 C 3.2 km/h
3079 19-12-2011 18:20:00 2.4 C 4.85 g/m*3 2.4 C 1.6 km/h
3080 19-12-2011 18:25:00 2.4 C 4.85 g/m*3 2.4 C 3.2 km/h
3081 19-12-2011 18:30:00 2.3 C 4.76 g/m*3 2.3 C 4.8 km/h
3082 19-12-2011 18:35:00 2.4 C 4.91 g/m*3 2.4 C 3.2 km/h
3083 19-12-2011 18:40:00 2.3 C 4.82 g/m*3 2.3 C 3.2 km/h
3084 19-12-2011 18:45:00 2.2 C 4.79 g/m*3 2.2 C 3.2 km/h
3085 19-12-2011 18:50:00 2.1 C 4.76 g/m*3 2.1 C 4.8 km/h
3086 19-12-2011 18:55:00 2 C 4.72 g/m*3 2 C 3.2 km/h
3087 19-12-2011 19:00:00 1.9 C 4.69 g/m*3 0.01 C 6.4 km/h
3088 19-12-2011 19:05:00 1.9 C 4.69 g/m*3 1.9 C 4.8 km/h
3089 19-12-2011 19:10:00 1.8 C 4.71 g/m*3 1.8 C 4.8 km/h
3090 19-12-2011 19:15:00 1.8 C 4.66 g/m*3 -0.1 C 6.4 km/h
3091 19-12-2011 19:20:00 1.8 C 4.71 g/m*3 1.8 C 3.2 km/h
3092 19-12-2011 19:25:00 1.6 C 4.65 g/m*3 1.6 C 3.2 km/h
3093 19-12-2011 19:30:00 1.4 C 4.64 g/m*3 1.4 C 4.8 km/h
3094 19-12-2011 19:35:00 1.3 C 4.61 g/m*3 1.3 C 4.8 km/h
3095 19-12-2011 19:40:00 1.3 C 4.61 g/m*3 1.3 C 4.8 km/h
3096 19-12-2011 19:45:00 1.2 C 4.58 g/m*3 1.2 C 4.8 km/h
3097 19-12-2011 19:50:00 1.2 C 4.58 g/m*3 -1.36 C 8.1 km/h
3098 19-12-2011 19:55:00 1.2 C 4.63 g/m*3 1.2 C 3.2 km/h
3099 19-12-2011 20:00:00 1.2 C 4.63 g/m*3 1.2 C 3.2 km/h
3100 19-12-2011 20:05:00 1.2 C 4.63 g/m*3 1.2 C 3.2 km/h
Sensor: Nr:Datum:Temp:Abs-Feuchte:Windchill:Wind:
Aussen-T/F 3101 19-12-2011 20:10:00 1.3 C 4.61 g/m*3 -0.68 C 6.4 km/h
3102 19-12-2011 20:15:00 1.4 C 4.64 g/m*3 1.4 C 3.2 km/h
3103 19-12-2011 20:20:00 1.5 C 4.62 g/m*3 1.5 C 3.2 km/h
3104 19-12-2011 20:25:00 1.5 C 4.62 g/m*3 1.5 C 3.2 km/h
3105 19-12-2011 20:30:00 1.4 C 4.64 g/m*3 1.4 C 3.2 km/h
3106 19-12-2011 20:35:00 1.5 C 4.62 g/m*3 -0.45 C 6.4 km/h
3107 19-12-2011 20:40:00 1.7 C 4.68 g/m*3 1.7 C 3.2 km/h
3108 19-12-2011 20:45:00 1.7 C 4.63 g/m*3 1.7 C 4.8 km/h
3109 19-12-2011 20:50:00 1.8 C 4.66 g/m*3 1.8 C 4.8 km/h
3110 19-12-2011 20:55:00 1.8 C 4.66 g/m*3 1.8 C 4.8 km/h
3111 19-12-2011 21:00:00 1.8 C 4.66 g/m*3 1.8 C 3.2 km/h
3112 19-12-2011 21:05:00 1.8 C 4.6 g/m*3 1.8 C 4.8 km/h
3113 19-12-2011 21:10:00 1.9 C 4.64 g/m*3 1.9 C 3.2 km/h
3114 19-12-2011 21:15:00 2 C 4.67 g/m*3 2 C 3.2 km/h
3115 19-12-2011 21:20:00 2 C 4.61 g/m*3 2 C 3.2 km/h
3116 19-12-2011 21:25:00 2.1 C 4.64 g/m*3 2.1 C 3.2 km/h
3117 19-12-2011 21:30:00 2.2 C 4.62 g/m*3 2.2 C 4.8 km/h
3118 19-12-2011 21:35:00 2.3 C 4.59 g/m*3 -0.49 C 9.7 km/h
3119 19-12-2011 21:40:00 2.3 C 4.59 g/m*3 2.3 C 4.8 km/h
3120 19-12-2011 21:45:00 2.3 C 4.65 g/m*3 2.3 C 3.2 km/h
3121 19-12-2011 21:50:00 2.3 C 4.71 g/m*3 2.3 C 3.2 km/h
3122 19-12-2011 21:55:00 2.2 C 4.62 g/m*3 2.2 C 3.2 km/h
3123 19-12-2011 22:00:00 2.2 C 4.62 g/m*3 0.36 C 6.4 km/h
3124 19-12-2011 22:05:00 2.1 C 4.59 g/m*3 2.1 C 4.8 km/h
3125 19-12-2011 22:10:00 2.1 C 4.64 g/m*3 2.1 C 3.2 km/h
Sensor: Nr:Datum:Temp:Abs-Feuchte:Windchill:Wind:
Aussen-T/F 3126 19-12-2011 22:15:00 1.9 C 4.64 g/m*3 1.9 C 1.6 km/h
3127 19-12-2011 22:20:00 1.9 C 4.58 g/m*3 1.9 C 4.8 km/h
3128 19-12-2011 22:25:00 1.9 C 4.58 g/m*3 0.01 C 6.4 km/h
3129 19-12-2011 22:30:00 2.1 C 4.59 g/m*3 -1.11 C 11.3 km/h
3130 19-12-2011 22:35:00 2.1 C 4.53 g/m*3 2.1 C 4.8 km/h
3131 19-12-2011 22:40:00 2.1 C 4.53 g/m*3 2.1 C 3.2 km/h
3132 19-12-2011 22:45:00 2.1 C 4.53 g/m*3 0.24 C 6.4 km/h
3133 19-12-2011 22:50:00 2.1 C 4.59 g/m*3 2.1 C 3.2 km/h
3134 19-12-2011 22:55:00 1.9 C 4.64 g/m*3 1.9 C 3.2 km/h
3135 19-12-2011 23:00:00 1.8 C 4.49 g/m*3 1.8 C 4.8 km/h
3136 19-12-2011 23:05:00 1.8 C 4.55 g/m*3 1.8 C 3.2 km/h
3137 19-12-2011 23:10:00 1.8 C 4.44 g/m*3 1.8 C 4.8 km/h
3138 19-12-2011 23:15:00 1.8 C 4.55 g/m*3 1.8 C 0 km/h
3139 19-12-2011 23:20:00 1.8 C 4.55 g/m*3 1.8 C 0 km/h
3140 19-12-2011 23:25:00 1.8 C 4.55 g/m*3 1.8 C 3.2 km/h
3141 19-12-2011 23:30:00 1.7 C 4.46 g/m*3 1.7 C 4.8 km/h
3142 19-12-2011 23:35:00 1.8 C 4.39 g/m*3 1.8 C 3.2 km/h
3143 19-12-2011 23:40:00 1.9 C 4.47 g/m*3 1.9 C 3.2 km/h
3144 19-12-2011 23:45:00 1.9 C 4.36 g/m*3 0.01 C 6.4 km/h
3145 19-12-2011 23:50:00 2.1 C 4.36 g/m*3 -1.11 C 11.3 km/h
3146 19-12-2011 23:55:00 2.2 C 4.45 g/m*3 -0.61 C 9.7 km/h
3147 20-12-2011 00:00:00 2.2 C 4.34 g/m*3 2.2 C 4.8 km/h
3148 20-12-2011 00:05:00 2.2 C 4.45 g/m*3 2.2 C 4.8 km/h
3149 20-12-2011 00:10:00 2.1 C 4.31 g/m*3 2.1 C 3.2 km/h
3150 20-12-2011 00:15:00 2.1 C 4.42 g/m*3 2.1 C 1.6 km/h
Sensor: Nr:Datum:Temp:Abs-Feuchte:Windchill:Wind:
Aussen-T/F 3151 20-12-2011 00:20:00 2.1 C 4.53 g/m*3 2.1 C 1.6 km/h
3152 20-12-2011 00:25:00 2 C 4.45 g/m*3 2 C 3.2 km/h
3153 20-12-2011 00:30:00 1.9 C 4.36 g/m*3 1.9 C 4.8 km/h
3154 20-12-2011 00:35:00 2 C 4.33 g/m*3 2 C 3.2 km/h
3155 20-12-2011 00:40:00 2 C 4.39 g/m*3 2 C 3.2 km/h
3156 20-12-2011 00:45:00 2 C 4.45 g/m*3 2 C 1.6 km/h
3157 20-12-2011 00:50:00 2 C 4.33 g/m*3 0.13 C 6.4 km/h
3158 20-12-2011 00:55:00 2 C 4.39 g/m*3 2 C 3.2 km/h
3159 20-12-2011 01:00:00 2 C 4.33 g/m*3 2 C 3.2 km/h
3160 20-12-2011 01:05:00 2.1 C 4.42 g/m*3 2.1 C 3.2 km/h
3161 20-12-2011 01:10:00 2.1 C 4.36 g/m*3 0.24 C 6.4 km/h
3162 20-12-2011 01:15:00 2.1 C 4.31 g/m*3 0.24 C 6.4 km/h
3163 20-12-2011 01:20:00 2.1 C 4.31 g/m*3 -0.3 C 8.1 km/h
3164 20-12-2011 01:25:00 2.1 C 4.31 g/m*3 2.1 C 1.6 km/h
3165 20-12-2011 01:30:00 2.1 C 4.31 g/m*3 2.1 C 3.2 km/h
3166 20-12-2011 01:35:00 2.1 C 4.25 g/m*3 2.1 C 4.8 km/h
3167 20-12-2011 01:40:00 2.1 C 4.25 g/m*3 2.1 C 4.8 km/h
3168 20-12-2011 01:45:00 2 C 4.33 g/m*3 2 C 4.8 km/h
3169 20-12-2011 01:50:00 1.9 C 4.36 g/m*3 1.9 C 3.2 km/h
3170 20-12-2011 01:55:00 1.8 C 4.39 g/m*3 1.8 C 4.8 km/h
3171 20-12-2011 02:00:00 1.6 C 4.43 g/m*3 1.6 C 4.8 km/h
3172 20-12-2011 02:05:00 1.5 C 4.46 g/m*3 1.5 C 3.2 km/h
3173 20-12-2011 02:10:00 1.4 C 4.48 g/m*3 1.4 C 0 km/h
3174 20-12-2011 02:15:00 1.3 C 4.5 g/m*3 1.3 C 1.6 km/h
3175 20-12-2011 02:20:00 1.2 C 4.53 g/m*3 1.2 C 3.2 km/h
Sensor: Nr:Datum:Temp:Abs-Feuchte:Windchill:Wind:
Aussen-T/F 3176 20-12-2011 02:25:00 1.1 C 4.49 g/m*3 1.1 C 3.2 km/h
3177 20-12-2011 02:30:00 1 C 4.52 g/m*3 1 C 1.6 km/h
3178 20-12-2011 02:35:00 0.9 C 4.54 g/m*3 0.9 C 3.2 km/h
3179 20-12-2011 02:40:00 0.9 C 4.59 g/m*3 0.9 C 1.6 km/h
3180 20-12-2011 02:45:00 0.8 C 4.61 g/m*3 0.8 C 0 km/h
3181 20-12-2011 02:50:00 0.8 C 4.61 g/m*3 0.8 C 0 km/h
3182 20-12-2011 02:55:00 0.7 C 4.63 g/m*3 0.7 C 0 km/h
3183 20-12-2011 03:00:00 0.7 C 4.63 g/m*3 0.7 C 1.6 km/h
3184 20-12-2011 03:05:00 0.6 C 4.6 g/m*3 0.6 C 0 km/h
3185 20-12-2011 03:10:00 0.6 C 4.65 g/m*3 0.6 C 0 km/h
3186 20-12-2011 03:15:00 0.6 C 4.65 g/m*3 0.6 C 0 km/h
3187 20-12-2011 03:20:00 0.5 C 4.61 g/m*3 0.5 C 0 km/h
3188 20-12-2011 03:25:00 0.5 C 4.66 g/m*3 0.5 C 1.6 km/h
3189 20-12-2011 03:30:00 0.5 C 4.66 g/m*3 0.5 C 0 km/h
3190 20-12-2011 03:35:00 0.4 C 4.63 g/m*3 0.4 C 1.6 km/h
3191 20-12-2011 03:40:00 0.4 C 4.63 g/m*3 0.4 C 0 km/h
3192 20-12-2011 03:45:00 0.4 C 4.63 g/m*3 0.4 C 3.2 km/h
3193 20-12-2011 03:50:00 0.4 C 4.63 g/m*3 0.4 C 0 km/h
3194 20-12-2011 03:55:00 0.4 C 4.68 g/m*3 0.4 C 0 km/h
3195 20-12-2011 04:00:00 0.4 C 4.68 g/m*3 0.4 C 1.6 km/h
3196 20-12-2011 04:05:00 0.4 C 4.68 g/m*3 0.4 C 0 km/h
3197 20-12-2011 04:10:00 0.4 C 4.68 g/m*3 0.4 C 0 km/h
3198 20-12-2011 04:15:00 0.4 C 4.68 g/m*3 0.4 C 0 km/h
3199 20-12-2011 04:20:00 0.4 C 4.68 g/m*3 0.4 C 0 km/h
3200 20-12-2011 04:25:00 0.4 C 4.68 g/m*3 0.4 C 0 km/h
Sensor: Nr:Datum:Temp:Abs-Feuchte:Windchill:Wind:
Aussen-T/F 3201 20-12-2011 04:30:00 0.4 C 4.68 g/m*3 0.4 C 0 km/h
3202 20-12-2011 04:35:00 0.4 C 4.68 g/m*3 0.4 C 0 km/h
3203 20-12-2011 04:40:00 0.4 C 4.68 g/m*3 0.4 C 0 km/h
3204 20-12-2011 04:45:00 0.4 C 4.68 g/m*3 0.4 C 0 km/h
3205 20-12-2011 04:50:00 0.4 C 4.68 g/m*3 0.4 C 0 km/h
3206 20-12-2011 04:55:00 0.4 C 4.68 g/m*3 0.4 C 0 km/h
3207 20-12-2011 05:00:00 0.4 C 4.68 g/m*3 0.4 C 0 km/h
3208 20-12-2011 05:05:00 0.4 C 4.68 g/m*3 0.4 C 0 km/h
3209 20-12-2011 05:10:00 0.4 C 4.73 g/m*3 0.4 C 0 km/h
3210 20-12-2011 05:15:00 0.4 C 4.73 g/m*3 0.4 C 0 km/h
3211 20-12-2011 05:20:00 0.4 C 4.73 g/m*3 0.4 C 0 km/h
3212 20-12-2011 05:25:00 0.4 C 4.68 g/m*3 0.4 C 0 km/h
3213 20-12-2011 05:30:00 0.4 C 4.68 g/m*3 0.4 C 0 km/h
3214 20-12-2011 05:35:00 0.4 C 4.73 g/m*3 0.4 C 0 km/h
3215 20-12-2011 05:40:00 0.4 C 4.73 g/m*3 0.4 C 0 km/h
3216 20-12-2011 05:45:00 0.4 C 4.73 g/m*3 0.4 C 0 km/h
3217 20-12-2011 05:50:00 0.4 C 4.73 g/m*3 0.4 C 0 km/h
3218 20-12-2011 05:55:00 0.4 C 4.73 g/m*3 0.4 C 0 km/h
3219 20-12-2011 06:00:00 0.4 C 4.73 g/m*3 0.4 C 0 km/h
3220 20-12-2011 06:05:00 0.4 C 4.73 g/m*3 0.4 C 0 km/h
3221 20-12-2011 06:10:00 0.4 C 4.73 g/m*3 0.4 C 0 km/h
3222 20-12-2011 06:15:00 0.4 C 4.73 g/m*3 0.4 C 0 km/h
3223 20-12-2011 06:20:00 0.4 C 4.73 g/m*3 0.4 C 0 km/h
3224 20-12-2011 06:25:00 0.4 C 4.73 g/m*3 0.4 C 0 km/h
3225 20-12-2011 06:30:00 0.4 C 4.73 g/m*3 0.4 C 0 km/h
Sensor: Nr:Datum:Temp:Abs-Feuchte:Windchill:Wind:
Aussen-T/F 3226 20-12-2011 06:35:00 0.4 C 4.73 g/m*3 0.4 C 0 km/h
3227 20-12-2011 06:40:00 0.4 C 4.73 g/m*3 0.4 C 0 km/h
3228 20-12-2011 06:45:00 0.5 C 4.76 g/m*3 0.5 C 0 km/h
3229 20-12-2011 06:50:00 0.5 C 4.76 g/m*3 0.5 C 0 km/h
3230 20-12-2011 06:55:00 0.5 C 4.76 g/m*3 0.5 C 0 km/h
3231 20-12-2011 07:00:00 0.5 C 4.76 g/m*3 0.5 C 0 km/h
3232 20-12-2011 07:05:00 0.5 C 4.76 g/m*3 0.5 C 0 km/h
3233 20-12-2011 07:10:00 0.5 C 4.76 g/m*3 0.5 C 0 km/h
3234 20-12-2011 07:15:00 0.5 C 4.76 g/m*3 0.5 C 0 km/h